<?xml version="1.0" encoding="UTF-8" standalone="no" ?>
<gpx xmlns="http://www.topografix.com/GPX/1/1" xmlns:xsi="http://www.w3.org/2001/XMLSchema-instance" xsi:schemaLocation="http://www.topografix.com/GPX/1/1 http://www.topografix.com/GPX/1/1/gpx.xsd" version="1.1" creator="VisuGPX - https://www.visugpx.com">
  <metadata>
    <name>Semi-marathon du Lac d\'Annecy</name>
    <desc><![CDATA[Semi-marathon du Lac d\'Annecy]]></desc>
  </metadata>
  <trk>
    <name><![CDATA[Semi marathon Annecy 2013]]></name>
    <trkseg>
      <trkpt lat="45.90419" lon="6.13885">
        <ele>468.20001220703</ele>
        <time>2013-04-21T12:28:30.000Z</time>
      </trkpt>
      <trkpt lat="45.90416" lon="6.13875">
        <ele>468.20001220703</ele>
        <time>2013-04-21T12:28:35.000Z</time>
      </trkpt>
      <trkpt lat="45.90409" lon="6.13854">
        <ele>468.20001220703</ele>
        <time>2013-04-21T12:28:39.000Z</time>
      </trkpt>
      <trkpt lat="45.90401" lon="6.13826">
        <ele>468.20001220703</ele>
        <time>2013-04-21T12:28:44.000Z</time>
      </trkpt>
      <trkpt lat="45.90398" lon="6.13808">
        <ele>468.20001220703</ele>
        <time>2013-04-21T12:28:47.000Z</time>
      </trkpt>
      <trkpt lat="45.90392" lon="6.13793">
        <ele>468.20001220703</ele>
        <time>2013-04-21T12:28:50.000Z</time>
      </trkpt>
      <trkpt lat="45.90388" lon="6.13775">
        <ele>468.20001220703</ele>
        <time>2013-04-21T12:28:53.000Z</time>
      </trkpt>
      <trkpt lat="45.90385" lon="6.13765">
        <ele>468.20001220703</ele>
        <time>2013-04-21T12:28:55.000Z</time>
      </trkpt>
      <trkpt lat="45.90377" lon="6.1374">
        <ele>468.20001220703</ele>
        <time>2013-04-21T12:29:00.000Z</time>
      </trkpt>
      <trkpt lat="45.90375" lon="6.13735">
        <ele>468.20001220703</ele>
        <time>2013-04-21T12:29:01.000Z</time>
      </trkpt>
      <trkpt lat="45.9037" lon="6.13709">
        <ele>468.20001220703</ele>
        <time>2013-04-21T12:29:06.000Z</time>
      </trkpt>
      <trkpt lat="45.90363" lon="6.13689">
        <ele>468.20001220703</ele>
        <time>2013-04-21T12:29:09.000Z</time>
      </trkpt>
      <trkpt lat="45.90361" lon="6.13681">
        <ele>468.20001220703</ele>
        <time>2013-04-21T12:29:10.000Z</time>
      </trkpt>
      <trkpt lat="45.90359" lon="6.1367">
        <ele>468.20001220703</ele>
        <time>2013-04-21T12:29:12.000Z</time>
      </trkpt>
      <trkpt lat="45.90355" lon="6.13653">
        <ele>468.20001220703</ele>
        <time>2013-04-21T12:29:15.000Z</time>
      </trkpt>
      <trkpt lat="45.90353" lon="6.13647">
        <ele>468.20001220703</ele>
        <time>2013-04-21T12:29:16.000Z</time>
      </trkpt>
      <trkpt lat="45.9035" lon="6.1363">
        <ele>468.20001220703</ele>
        <time>2013-04-21T12:29:19.000Z</time>
      </trkpt>
      <trkpt lat="45.90347" lon="6.13619">
        <ele>468.20001220703</ele>
        <time>2013-04-21T12:29:21.000Z</time>
      </trkpt>
      <trkpt lat="45.90344" lon="6.13608">
        <ele>468.20001220703</ele>
        <time>2013-04-21T12:29:23.000Z</time>
      </trkpt>
      <trkpt lat="45.90336" lon="6.13584">
        <ele>468.20001220703</ele>
        <time>2013-04-21T12:29:27.000Z</time>
      </trkpt>
      <trkpt lat="45.90332" lon="6.13573">
        <ele>468.20001220703</ele>
        <time>2013-04-21T12:29:29.000Z</time>
      </trkpt>
      <trkpt lat="45.9033" lon="6.13562">
        <ele>468.20001220703</ele>
        <time>2013-04-21T12:29:31.000Z</time>
      </trkpt>
      <trkpt lat="45.90324" lon="6.13533">
        <ele>468.20001220703</ele>
        <time>2013-04-21T12:29:36.000Z</time>
      </trkpt>
      <trkpt lat="45.9032" lon="6.13508">
        <ele>468.20001220703</ele>
        <time>2013-04-21T12:29:40.000Z</time>
      </trkpt>
      <trkpt lat="45.90316" lon="6.13497">
        <ele>468.20001220703</ele>
        <time>2013-04-21T12:29:42.000Z</time>
      </trkpt>
      <trkpt lat="45.90313" lon="6.13488">
        <ele>468.20001220703</ele>
        <time>2013-04-21T12:29:44.000Z</time>
      </trkpt>
      <trkpt lat="45.90309" lon="6.13474">
        <ele>468.20001220703</ele>
        <time>2013-04-21T12:29:47.000Z</time>
      </trkpt>
      <trkpt lat="45.90302" lon="6.1345">
        <ele>468.20001220703</ele>
        <time>2013-04-21T12:29:52.000Z</time>
      </trkpt>
      <trkpt lat="45.90296" lon="6.13423">
        <ele>468.20001220703</ele>
        <time>2013-04-21T12:29:57.000Z</time>
      </trkpt>
      <trkpt lat="45.90291" lon="6.13403">
        <ele>468.20001220703</ele>
        <time>2013-04-21T12:30:01.000Z</time>
      </trkpt>
      <trkpt lat="45.90287" lon="6.13386">
        <ele>468.20001220703</ele>
        <time>2013-04-21T12:30:04.000Z</time>
      </trkpt>
      <trkpt lat="45.90279" lon="6.1336">
        <ele>468.20001220703</ele>
        <time>2013-04-21T12:30:09.000Z</time>
      </trkpt>
      <trkpt lat="45.90275" lon="6.13338">
        <ele>468.20001220703</ele>
        <time>2013-04-21T12:30:13.000Z</time>
      </trkpt>
      <trkpt lat="45.90269" lon="6.13311">
        <ele>468.20001220703</ele>
        <time>2013-04-21T12:30:18.000Z</time>
      </trkpt>
      <trkpt lat="45.90262" lon="6.13285">
        <ele>468.20001220703</ele>
        <time>2013-04-21T12:30:23.000Z</time>
      </trkpt>
      <trkpt lat="45.9026" lon="6.13279">
        <ele>468.20001220703</ele>
        <time>2013-04-21T12:30:24.000Z</time>
      </trkpt>
      <trkpt lat="45.90254" lon="6.13253">
        <ele>468.20001220703</ele>
        <time>2013-04-21T12:30:29.000Z</time>
      </trkpt>
      <trkpt lat="45.90251" lon="6.13247">
        <ele>468.20001220703</ele>
        <time>2013-04-21T12:30:30.000Z</time>
      </trkpt>
      <trkpt lat="45.90242" lon="6.13221">
        <ele>468.20001220703</ele>
        <time>2013-04-21T12:30:35.000Z</time>
      </trkpt>
      <trkpt lat="45.9024" lon="6.13214">
        <ele>468.20001220703</ele>
        <time>2013-04-21T12:30:36.000Z</time>
      </trkpt>
      <trkpt lat="45.90233" lon="6.13186">
        <ele>468.20001220703</ele>
        <time>2013-04-21T12:30:41.000Z</time>
      </trkpt>
      <trkpt lat="45.90231" lon="6.13181">
        <ele>468.20001220703</ele>
        <time>2013-04-21T12:30:42.000Z</time>
      </trkpt>
      <trkpt lat="45.90223" lon="6.13155">
        <ele>468.20001220703</ele>
        <time>2013-04-21T12:30:47.000Z</time>
      </trkpt>
      <trkpt lat="45.90215" lon="6.13131">
        <ele>468.20001220703</ele>
        <time>2013-04-21T12:30:52.000Z</time>
      </trkpt>
      <trkpt lat="45.90209" lon="6.13106">
        <ele>468.20001220703</ele>
        <time>2013-04-21T12:30:57.000Z</time>
      </trkpt>
      <trkpt lat="45.90202" lon="6.13082">
        <ele>468.20001220703</ele>
        <time>2013-04-21T12:31:02.000Z</time>
      </trkpt>
      <trkpt lat="45.90193" lon="6.13057">
        <ele>468.20001220703</ele>
        <time>2013-04-21T12:31:07.000Z</time>
      </trkpt>
      <trkpt lat="45.9019" lon="6.13047">
        <ele>468.20001220703</ele>
        <time>2013-04-21T12:31:09.000Z</time>
      </trkpt>
      <trkpt lat="45.90182" lon="6.13022">
        <ele>468.20001220703</ele>
        <time>2013-04-21T12:31:14.000Z</time>
      </trkpt>
      <trkpt lat="45.90179" lon="6.13012">
        <ele>468.20001220703</ele>
        <time>2013-04-21T12:31:16.000Z</time>
      </trkpt>
      <trkpt lat="45.90172" lon="6.12982">
        <ele>468.20001220703</ele>
        <time>2013-04-21T12:31:21.000Z</time>
      </trkpt>
      <trkpt lat="45.90165" lon="6.12957">
        <ele>468.20001220703</ele>
        <time>2013-04-21T12:31:26.000Z</time>
      </trkpt>
      <trkpt lat="45.90159" lon="6.12936">
        <ele>468.20001220703</ele>
        <time>2013-04-21T12:31:31.000Z</time>
      </trkpt>
      <trkpt lat="45.90153" lon="6.12913">
        <ele>468.20001220703</ele>
        <time>2013-04-21T12:31:36.000Z</time>
      </trkpt>
      <trkpt lat="45.90145" lon="6.12889">
        <ele>468.20001220703</ele>
        <time>2013-04-21T12:31:41.000Z</time>
      </trkpt>
      <trkpt lat="45.90144" lon="6.12882">
        <ele>468.20001220703</ele>
        <time>2013-04-21T12:31:42.000Z</time>
      </trkpt>
      <trkpt lat="45.90138" lon="6.12863">
        <ele>468.20001220703</ele>
        <time>2013-04-21T12:31:46.000Z</time>
      </trkpt>
      <trkpt lat="45.90133" lon="6.12839">
        <ele>468.20001220703</ele>
        <time>2013-04-21T12:31:50.000Z</time>
      </trkpt>
      <trkpt lat="45.90128" lon="6.12823">
        <ele>468.60000610352</ele>
        <time>2013-04-21T12:31:53.000Z</time>
      </trkpt>
      <trkpt lat="45.90126" lon="6.12817">
        <ele>469</ele>
        <time>2013-04-21T12:31:54.000Z</time>
      </trkpt>
      <trkpt lat="45.90125" lon="6.12811">
        <ele>469.39999389648</ele>
        <time>2013-04-21T12:31:55.000Z</time>
      </trkpt>
      <trkpt lat="45.90123" lon="6.12806">
        <ele>470</ele>
        <time>2013-04-21T12:31:56.000Z</time>
      </trkpt>
      <trkpt lat="45.90121" lon="6.12801">
        <ele>470.39999389648</ele>
        <time>2013-04-21T12:31:57.000Z</time>
      </trkpt>
      <trkpt lat="45.90119" lon="6.12797">
        <ele>470.39999389648</ele>
        <time>2013-04-21T12:31:58.000Z</time>
      </trkpt>
      <trkpt lat="45.90113" lon="6.12784">
        <ele>470.39999389648</ele>
        <time>2013-04-21T12:32:01.000Z</time>
      </trkpt>
      <trkpt lat="45.9011" lon="6.12779">
        <ele>470.39999389648</ele>
        <time>2013-04-21T12:32:02.000Z</time>
      </trkpt>
      <trkpt lat="45.90106" lon="6.12775">
        <ele>470.39999389648</ele>
        <time>2013-04-21T12:32:03.000Z</time>
      </trkpt>
      <trkpt lat="45.90094" lon="6.12768">
        <ele>470.39999389648</ele>
        <time>2013-04-21T12:32:07.000Z</time>
      </trkpt>
      <trkpt lat="45.90087" lon="6.12768">
        <ele>470.39999389648</ele>
        <time>2013-04-21T12:32:09.000Z</time>
      </trkpt>
      <trkpt lat="45.90083" lon="6.1277">
        <ele>470.39999389648</ele>
        <time>2013-04-21T12:32:11.000Z</time>
      </trkpt>
      <trkpt lat="45.90069" lon="6.12778">
        <ele>470.39999389648</ele>
        <time>2013-04-21T12:32:15.000Z</time>
      </trkpt>
      <trkpt lat="45.90052" lon="6.12788">
        <ele>470.39999389648</ele>
        <time>2013-04-21T12:32:20.000Z</time>
      </trkpt>
      <trkpt lat="45.9005" lon="6.12791">
        <ele>470.39999389648</ele>
        <time>2013-04-21T12:32:21.000Z</time>
      </trkpt>
      <trkpt lat="45.90043" lon="6.12795">
        <ele>470.39999389648</ele>
        <time>2013-04-21T12:32:23.000Z</time>
      </trkpt>
      <trkpt lat="45.90028" lon="6.12804">
        <ele>470.39999389648</ele>
        <time>2013-04-21T12:32:28.000Z</time>
      </trkpt>
      <trkpt lat="45.90012" lon="6.12818">
        <ele>470.39999389648</ele>
        <time>2013-04-21T12:32:33.000Z</time>
      </trkpt>
      <trkpt lat="45.90009" lon="6.12821">
        <ele>470.39999389648</ele>
        <time>2013-04-21T12:32:34.000Z</time>
      </trkpt>
      <trkpt lat="45.89992" lon="6.12834">
        <ele>470.39999389648</ele>
        <time>2013-04-21T12:32:39.000Z</time>
      </trkpt>
      <trkpt lat="45.89974" lon="6.12847">
        <ele>470.39999389648</ele>
        <time>2013-04-21T12:32:44.000Z</time>
      </trkpt>
      <trkpt lat="45.8997" lon="6.1285">
        <ele>470.39999389648</ele>
        <time>2013-04-21T12:32:45.000Z</time>
      </trkpt>
      <trkpt lat="45.89954" lon="6.12859">
        <ele>470.39999389648</ele>
        <time>2013-04-21T12:32:49.000Z</time>
      </trkpt>
      <trkpt lat="45.8995" lon="6.12861">
        <ele>470.39999389648</ele>
        <time>2013-04-21T12:32:50.000Z</time>
      </trkpt>
      <trkpt lat="45.89939" lon="6.12866">
        <ele>470.39999389648</ele>
        <time>2013-04-21T12:32:53.000Z</time>
      </trkpt>
      <trkpt lat="45.89932" lon="6.1287">
        <ele>470.39999389648</ele>
        <time>2013-04-21T12:32:55.000Z</time>
      </trkpt>
      <trkpt lat="45.89913" lon="6.1288">
        <ele>470.39999389648</ele>
        <time>2013-04-21T12:33:00.000Z</time>
      </trkpt>
      <trkpt lat="45.8991" lon="6.12881">
        <ele>470.39999389648</ele>
        <time>2013-04-21T12:33:01.000Z</time>
      </trkpt>
      <trkpt lat="45.89907" lon="6.12883">
        <ele>470.39999389648</ele>
        <time>2013-04-21T12:33:02.000Z</time>
      </trkpt>
      <trkpt lat="45.89889" lon="6.12892">
        <ele>470.39999389648</ele>
        <time>2013-04-21T12:33:07.000Z</time>
      </trkpt>
      <trkpt lat="45.8987" lon="6.12902">
        <ele>470.39999389648</ele>
        <time>2013-04-21T12:33:12.000Z</time>
      </trkpt>
      <trkpt lat="45.89854" lon="6.1291">
        <ele>470.39999389648</ele>
        <time>2013-04-21T12:33:17.000Z</time>
      </trkpt>
      <trkpt lat="45.89833" lon="6.12912">
        <ele>470.39999389648</ele>
        <time>2013-04-21T12:33:22.000Z</time>
      </trkpt>
      <trkpt lat="45.89813" lon="6.12913">
        <ele>470.39999389648</ele>
        <time>2013-04-21T12:33:27.000Z</time>
      </trkpt>
      <trkpt lat="45.89809" lon="6.12915">
        <ele>470.39999389648</ele>
        <time>2013-04-21T12:33:28.000Z</time>
      </trkpt>
      <trkpt lat="45.89799" lon="6.1293">
        <ele>470.39999389648</ele>
        <time>2013-04-21T12:33:32.000Z</time>
      </trkpt>
      <trkpt lat="45.89794" lon="6.12951">
        <ele>470.39999389648</ele>
        <time>2013-04-21T12:33:36.000Z</time>
      </trkpt>
      <trkpt lat="45.89793" lon="6.12958">
        <ele>470.39999389648</ele>
        <time>2013-04-21T12:33:37.000Z</time>
      </trkpt>
      <trkpt lat="45.8979" lon="6.12979">
        <ele>470.39999389648</ele>
        <time>2013-04-21T12:33:41.000Z</time>
      </trkpt>
      <trkpt lat="45.89787" lon="6.13001">
        <ele>470.39999389648</ele>
        <time>2013-04-21T12:33:45.000Z</time>
      </trkpt>
      <trkpt lat="45.89783" lon="6.13027">
        <ele>470.39999389648</ele>
        <time>2013-04-21T12:33:50.000Z</time>
      </trkpt>
      <trkpt lat="45.89782" lon="6.13032">
        <ele>470.39999389648</ele>
        <time>2013-04-21T12:33:51.000Z</time>
      </trkpt>
      <trkpt lat="45.89775" lon="6.13058">
        <ele>470.39999389648</ele>
        <time>2013-04-21T12:33:56.000Z</time>
      </trkpt>
      <trkpt lat="45.89765" lon="6.13082">
        <ele>470.39999389648</ele>
        <time>2013-04-21T12:34:01.000Z</time>
      </trkpt>
      <trkpt lat="45.89763" lon="6.13086">
        <ele>470.39999389648</ele>
        <time>2013-04-21T12:34:02.000Z</time>
      </trkpt>
      <trkpt lat="45.89749" lon="6.13104">
        <ele>470.39999389648</ele>
        <time>2013-04-21T12:34:07.000Z</time>
      </trkpt>
      <trkpt lat="45.89746" lon="6.13107">
        <ele>470.39999389648</ele>
        <time>2013-04-21T12:34:08.000Z</time>
      </trkpt>
      <trkpt lat="45.89734" lon="6.13123">
        <ele>470.39999389648</ele>
        <time>2013-04-21T12:34:12.000Z</time>
      </trkpt>
      <trkpt lat="45.89721" lon="6.13138">
        <ele>470.39999389648</ele>
        <time>2013-04-21T12:34:17.000Z</time>
      </trkpt>
      <trkpt lat="45.89705" lon="6.13156">
        <ele>470.39999389648</ele>
        <time>2013-04-21T12:34:22.000Z</time>
      </trkpt>
      <trkpt lat="45.89701" lon="6.13162">
        <ele>470.20001220703</ele>
        <time>2013-04-21T12:34:24.000Z</time>
      </trkpt>
      <trkpt lat="45.89697" lon="6.13165">
        <ele>469.79998779297</ele>
        <time>2013-04-21T12:34:25.000Z</time>
      </trkpt>
      <trkpt lat="45.89694" lon="6.13168">
        <ele>469.20001220703</ele>
        <time>2013-04-21T12:34:26.000Z</time>
      </trkpt>
      <trkpt lat="45.89691" lon="6.13172">
        <ele>468.79998779297</ele>
        <time>2013-04-21T12:34:27.000Z</time>
      </trkpt>
      <trkpt lat="45.89688" lon="6.13176">
        <ele>468.39999389648</ele>
        <time>2013-04-21T12:34:28.000Z</time>
      </trkpt>
      <trkpt lat="45.89686" lon="6.13179">
        <ele>468.39999389648</ele>
        <time>2013-04-21T12:34:29.000Z</time>
      </trkpt>
      <trkpt lat="45.89677" lon="6.13189">
        <ele>468.60000610352</ele>
        <time>2013-04-21T12:34:32.000Z</time>
      </trkpt>
      <trkpt lat="45.89673" lon="6.13193">
        <ele>469</ele>
        <time>2013-04-21T12:34:33.000Z</time>
      </trkpt>
      <trkpt lat="45.89671" lon="6.13196">
        <ele>469.39999389648</ele>
        <time>2013-04-21T12:34:34.000Z</time>
      </trkpt>
      <trkpt lat="45.89668" lon="6.13198">
        <ele>469.79998779297</ele>
        <time>2013-04-21T12:34:35.000Z</time>
      </trkpt>
      <trkpt lat="45.89664" lon="6.13201">
        <ele>470.20001220703</ele>
        <time>2013-04-21T12:34:36.000Z</time>
      </trkpt>
      <trkpt lat="45.89661" lon="6.13205">
        <ele>470.39999389648</ele>
        <time>2013-04-21T12:34:37.000Z</time>
      </trkpt>
      <trkpt lat="45.89645" lon="6.13221">
        <ele>470.39999389648</ele>
        <time>2013-04-21T12:34:42.000Z</time>
      </trkpt>
      <trkpt lat="45.8963" lon="6.13238">
        <ele>470.39999389648</ele>
        <time>2013-04-21T12:34:47.000Z</time>
      </trkpt>
      <trkpt lat="45.89616" lon="6.13256">
        <ele>470.39999389648</ele>
        <time>2013-04-21T12:34:52.000Z</time>
      </trkpt>
      <trkpt lat="45.89603" lon="6.13272">
        <ele>470.39999389648</ele>
        <time>2013-04-21T12:34:57.000Z</time>
      </trkpt>
      <trkpt lat="45.89591" lon="6.13285">
        <ele>470.39999389648</ele>
        <time>2013-04-21T12:35:01.000Z</time>
      </trkpt>
      <trkpt lat="45.89588" lon="6.13289">
        <ele>470.39999389648</ele>
        <time>2013-04-21T12:35:02.000Z</time>
      </trkpt>
      <trkpt lat="45.89573" lon="6.13305">
        <ele>470.39999389648</ele>
        <time>2013-04-21T12:35:07.000Z</time>
      </trkpt>
      <trkpt lat="45.89567" lon="6.13312">
        <ele>470.39999389648</ele>
        <time>2013-04-21T12:35:09.000Z</time>
      </trkpt>
      <trkpt lat="45.89553" lon="6.13329">
        <ele>470.39999389648</ele>
        <time>2013-04-21T12:35:14.000Z</time>
      </trkpt>
      <trkpt lat="45.8955" lon="6.13332">
        <ele>470.39999389648</ele>
        <time>2013-04-21T12:35:15.000Z</time>
      </trkpt>
      <trkpt lat="45.89535" lon="6.1335">
        <ele>470.39999389648</ele>
        <time>2013-04-21T12:35:20.000Z</time>
      </trkpt>
      <trkpt lat="45.89533" lon="6.13353">
        <ele>470.39999389648</ele>
        <time>2013-04-21T12:35:21.000Z</time>
      </trkpt>
      <trkpt lat="45.89523" lon="6.13365">
        <ele>470</ele>
        <time>2013-04-21T12:35:24.000Z</time>
      </trkpt>
      <trkpt lat="45.89521" lon="6.13366">
        <ele>469.60000610352</ele>
        <time>2013-04-21T12:35:25.000Z</time>
      </trkpt>
      <trkpt lat="45.89518" lon="6.1337">
        <ele>469.20001220703</ele>
        <time>2013-04-21T12:35:26.000Z</time>
      </trkpt>
      <trkpt lat="45.89514" lon="6.13376">
        <ele>468.60000610352</ele>
        <time>2013-04-21T12:35:27.000Z</time>
      </trkpt>
      <trkpt lat="45.89512" lon="6.13377">
        <ele>468.60000610352</ele>
        <time>2013-04-21T12:35:28.000Z</time>
      </trkpt>
      <trkpt lat="45.89508" lon="6.13383">
        <ele>468.39999389648</ele>
        <time>2013-04-21T12:35:29.000Z</time>
      </trkpt>
      <trkpt lat="45.89495" lon="6.13396">
        <ele>468.39999389648</ele>
        <time>2013-04-21T12:35:33.000Z</time>
      </trkpt>
      <trkpt lat="45.89493" lon="6.13399">
        <ele>468.39999389648</ele>
        <time>2013-04-21T12:35:34.000Z</time>
      </trkpt>
      <trkpt lat="45.89486" lon="6.13407">
        <ele>468.39999389648</ele>
        <time>2013-04-21T12:35:36.000Z</time>
      </trkpt>
      <trkpt lat="45.8947" lon="6.13423">
        <ele>468.39999389648</ele>
        <time>2013-04-21T12:35:41.000Z</time>
      </trkpt>
      <trkpt lat="45.89467" lon="6.13426">
        <ele>468.39999389648</ele>
        <time>2013-04-21T12:35:42.000Z</time>
      </trkpt>
      <trkpt lat="45.89465" lon="6.1343">
        <ele>468.79998779297</ele>
        <time>2013-04-21T12:35:43.000Z</time>
      </trkpt>
      <trkpt lat="45.89462" lon="6.13433">
        <ele>469.20001220703</ele>
        <time>2013-04-21T12:35:44.000Z</time>
      </trkpt>
      <trkpt lat="45.8946" lon="6.13436">
        <ele>469.60000610352</ele>
        <time>2013-04-21T12:35:45.000Z</time>
      </trkpt>
      <trkpt lat="45.89457" lon="6.13439">
        <ele>470</ele>
        <time>2013-04-21T12:35:46.000Z</time>
      </trkpt>
      <trkpt lat="45.89454" lon="6.13442">
        <ele>470.39999389648</ele>
        <time>2013-04-21T12:35:47.000Z</time>
      </trkpt>
      <trkpt lat="45.89448" lon="6.13449">
        <ele>470</ele>
        <time>2013-04-21T12:35:49.000Z</time>
      </trkpt>
      <trkpt lat="45.89445" lon="6.13453">
        <ele>469.60000610352</ele>
        <time>2013-04-21T12:35:50.000Z</time>
      </trkpt>
      <trkpt lat="45.89443" lon="6.13456">
        <ele>469.20001220703</ele>
        <time>2013-04-21T12:35:51.000Z</time>
      </trkpt>
      <trkpt lat="45.89439" lon="6.1346">
        <ele>468.79998779297</ele>
        <time>2013-04-21T12:35:52.000Z</time>
      </trkpt>
      <trkpt lat="45.89437" lon="6.13463">
        <ele>468.39999389648</ele>
        <time>2013-04-21T12:35:53.000Z</time>
      </trkpt>
      <trkpt lat="45.89431" lon="6.13472">
        <ele>468.39999389648</ele>
        <time>2013-04-21T12:35:55.000Z</time>
      </trkpt>
      <trkpt lat="45.89417" lon="6.13492">
        <ele>468.39999389648</ele>
        <time>2013-04-21T12:36:00.000Z</time>
      </trkpt>
      <trkpt lat="45.89411" lon="6.13499">
        <ele>468.39999389648</ele>
        <time>2013-04-21T12:36:02.000Z</time>
      </trkpt>
      <trkpt lat="45.89397" lon="6.13519">
        <ele>468.39999389648</ele>
        <time>2013-04-21T12:36:07.000Z</time>
      </trkpt>
      <trkpt lat="45.89393" lon="6.13523">
        <ele>468.39999389648</ele>
        <time>2013-04-21T12:36:08.000Z</time>
      </trkpt>
      <trkpt lat="45.8938" lon="6.13542">
        <ele>468.39999389648</ele>
        <time>2013-04-21T12:36:13.000Z</time>
      </trkpt>
      <trkpt lat="45.89372" lon="6.13553">
        <ele>468.39999389648</ele>
        <time>2013-04-21T12:36:16.000Z</time>
      </trkpt>
      <trkpt lat="45.89367" lon="6.13561">
        <ele>468.39999389648</ele>
        <time>2013-04-21T12:36:18.000Z</time>
      </trkpt>
      <trkpt lat="45.89354" lon="6.1358">
        <ele>468.39999389648</ele>
        <time>2013-04-21T12:36:23.000Z</time>
      </trkpt>
      <trkpt lat="45.89352" lon="6.13584">
        <ele>468.39999389648</ele>
        <time>2013-04-21T12:36:24.000Z</time>
      </trkpt>
      <trkpt lat="45.8934" lon="6.13598">
        <ele>468.39999389648</ele>
        <time>2013-04-21T12:36:28.000Z</time>
      </trkpt>
      <trkpt lat="45.8933" lon="6.13614">
        <ele>468.39999389648</ele>
        <time>2013-04-21T12:36:32.000Z</time>
      </trkpt>
      <trkpt lat="45.89318" lon="6.13636">
        <ele>468.39999389648</ele>
        <time>2013-04-21T12:36:37.000Z</time>
      </trkpt>
      <trkpt lat="45.89315" lon="6.13641">
        <ele>468.39999389648</ele>
        <time>2013-04-21T12:36:38.000Z</time>
      </trkpt>
      <trkpt lat="45.89305" lon="6.13665">
        <ele>468.39999389648</ele>
        <time>2013-04-21T12:36:43.000Z</time>
      </trkpt>
      <trkpt lat="45.89295" lon="6.13681">
        <ele>468.39999389648</ele>
        <time>2013-04-21T12:36:47.000Z</time>
      </trkpt>
      <trkpt lat="45.89286" lon="6.13696">
        <ele>468.79998779297</ele>
        <time>2013-04-21T12:36:51.000Z</time>
      </trkpt>
      <trkpt lat="45.89283" lon="6.13701">
        <ele>469.39999389648</ele>
        <time>2013-04-21T12:36:52.000Z</time>
      </trkpt>
      <trkpt lat="45.8928" lon="6.13705">
        <ele>469.60000610352</ele>
        <time>2013-04-21T12:36:53.000Z</time>
      </trkpt>
      <trkpt lat="45.89278" lon="6.13709">
        <ele>469.39999389648</ele>
        <time>2013-04-21T12:36:54.000Z</time>
      </trkpt>
      <trkpt lat="45.89275" lon="6.13713">
        <ele>469</ele>
        <time>2013-04-21T12:36:55.000Z</time>
      </trkpt>
      <trkpt lat="45.89273" lon="6.13717">
        <ele>468.79998779297</ele>
        <time>2013-04-21T12:36:56.000Z</time>
      </trkpt>
      <trkpt lat="45.89271" lon="6.13721">
        <ele>468.60000610352</ele>
        <time>2013-04-21T12:36:57.000Z</time>
      </trkpt>
      <trkpt lat="45.89269" lon="6.13725">
        <ele>468.39999389648</ele>
        <time>2013-04-21T12:36:58.000Z</time>
      </trkpt>
      <trkpt lat="45.89266" lon="6.13729">
        <ele>468.39999389648</ele>
        <time>2013-04-21T12:36:59.000Z</time>
      </trkpt>
      <trkpt lat="45.89255" lon="6.13745">
        <ele>468.39999389648</ele>
        <time>2013-04-21T12:37:03.000Z</time>
      </trkpt>
      <trkpt lat="45.89245" lon="6.13762">
        <ele>468.39999389648</ele>
        <time>2013-04-21T12:37:07.000Z</time>
      </trkpt>
      <trkpt lat="45.8924" lon="6.1377">
        <ele>468.79998779297</ele>
        <time>2013-04-21T12:37:09.000Z</time>
      </trkpt>
      <trkpt lat="45.89238" lon="6.13773">
        <ele>469.20001220703</ele>
        <time>2013-04-21T12:37:10.000Z</time>
      </trkpt>
      <trkpt lat="45.89236" lon="6.13776">
        <ele>469.39999389648</ele>
        <time>2013-04-21T12:37:11.000Z</time>
      </trkpt>
      <trkpt lat="45.89234" lon="6.13781">
        <ele>469.79998779297</ele>
        <time>2013-04-21T12:37:12.000Z</time>
      </trkpt>
      <trkpt lat="45.89231" lon="6.13785">
        <ele>470.20001220703</ele>
        <time>2013-04-21T12:37:13.000Z</time>
      </trkpt>
      <trkpt lat="45.8923" lon="6.1379">
        <ele>470.39999389648</ele>
        <time>2013-04-21T12:37:14.000Z</time>
      </trkpt>
      <trkpt lat="45.89227" lon="6.13794">
        <ele>470.20001220703</ele>
        <time>2013-04-21T12:37:15.000Z</time>
      </trkpt>
      <trkpt lat="45.89225" lon="6.13798">
        <ele>469.79998779297</ele>
        <time>2013-04-21T12:37:16.000Z</time>
      </trkpt>
      <trkpt lat="45.89223" lon="6.13801">
        <ele>469.39999389648</ele>
        <time>2013-04-21T12:37:17.000Z</time>
      </trkpt>
      <trkpt lat="45.8922" lon="6.13807">
        <ele>469</ele>
        <time>2013-04-21T12:37:18.000Z</time>
      </trkpt>
      <trkpt lat="45.89218" lon="6.13812">
        <ele>468.60000610352</ele>
        <time>2013-04-21T12:37:19.000Z</time>
      </trkpt>
      <trkpt lat="45.89216" lon="6.13815">
        <ele>468.39999389648</ele>
        <time>2013-04-21T12:37:20.000Z</time>
      </trkpt>
      <trkpt lat="45.89209" lon="6.13827">
        <ele>468.60000610352</ele>
        <time>2013-04-21T12:37:23.000Z</time>
      </trkpt>
      <trkpt lat="45.89206" lon="6.13832">
        <ele>469</ele>
        <time>2013-04-21T12:37:24.000Z</time>
      </trkpt>
      <trkpt lat="45.89204" lon="6.13836">
        <ele>469.60000610352</ele>
        <time>2013-04-21T12:37:25.000Z</time>
      </trkpt>
      <trkpt lat="45.89202" lon="6.1384">
        <ele>470</ele>
        <time>2013-04-21T12:37:26.000Z</time>
      </trkpt>
      <trkpt lat="45.892" lon="6.13843">
        <ele>470.39999389648</ele>
        <time>2013-04-21T12:37:27.000Z</time>
      </trkpt>
      <trkpt lat="45.89198" lon="6.13848">
        <ele>470.60000610352</ele>
        <time>2013-04-21T12:37:28.000Z</time>
      </trkpt>
      <trkpt lat="45.89193" lon="6.13857">
        <ele>470.60000610352</ele>
        <time>2013-04-21T12:37:30.000Z</time>
      </trkpt>
      <trkpt lat="45.8919" lon="6.13862">
        <ele>470.39999389648</ele>
        <time>2013-04-21T12:37:31.000Z</time>
      </trkpt>
      <trkpt lat="45.89188" lon="6.13865">
        <ele>470</ele>
        <time>2013-04-21T12:37:32.000Z</time>
      </trkpt>
      <trkpt lat="45.89185" lon="6.13869">
        <ele>469.39999389648</ele>
        <time>2013-04-21T12:37:33.000Z</time>
      </trkpt>
      <trkpt lat="45.89183" lon="6.13873">
        <ele>468.79998779297</ele>
        <time>2013-04-21T12:37:34.000Z</time>
      </trkpt>
      <trkpt lat="45.8918" lon="6.13877">
        <ele>468.39999389648</ele>
        <time>2013-04-21T12:37:35.000Z</time>
      </trkpt>
      <trkpt lat="45.89178" lon="6.1388">
        <ele>468.39999389648</ele>
        <time>2013-04-21T12:37:36.000Z</time>
      </trkpt>
      <trkpt lat="45.89173" lon="6.1389">
        <ele>468.39999389648</ele>
        <time>2013-04-21T12:37:38.000Z</time>
      </trkpt>
      <trkpt lat="45.89169" lon="6.13897">
        <ele>468.60000610352</ele>
        <time>2013-04-21T12:37:40.000Z</time>
      </trkpt>
      <trkpt lat="45.89167" lon="6.139">
        <ele>469</ele>
        <time>2013-04-21T12:37:41.000Z</time>
      </trkpt>
      <trkpt lat="45.89164" lon="6.13905">
        <ele>469.39999389648</ele>
        <time>2013-04-21T12:37:42.000Z</time>
      </trkpt>
      <trkpt lat="45.89161" lon="6.13909">
        <ele>469.79998779297</ele>
        <time>2013-04-21T12:37:43.000Z</time>
      </trkpt>
      <trkpt lat="45.89159" lon="6.13913">
        <ele>470.20001220703</ele>
        <time>2013-04-21T12:37:44.000Z</time>
      </trkpt>
      <trkpt lat="45.89157" lon="6.13916">
        <ele>470.39999389648</ele>
        <time>2013-04-21T12:37:45.000Z</time>
      </trkpt>
      <trkpt lat="45.89153" lon="6.13926">
        <ele>470.39999389648</ele>
        <time>2013-04-21T12:37:47.000Z</time>
      </trkpt>
      <trkpt lat="45.8914" lon="6.13948">
        <ele>470.39999389648</ele>
        <time>2013-04-21T12:37:52.000Z</time>
      </trkpt>
      <trkpt lat="45.89138" lon="6.13952">
        <ele>470.39999389648</ele>
        <time>2013-04-21T12:37:53.000Z</time>
      </trkpt>
      <trkpt lat="45.8913" lon="6.13968">
        <ele>470.39999389648</ele>
        <time>2013-04-21T12:37:57.000Z</time>
      </trkpt>
      <trkpt lat="45.89122" lon="6.13984">
        <ele>470.39999389648</ele>
        <time>2013-04-21T12:38:01.000Z</time>
      </trkpt>
      <trkpt lat="45.89115" lon="6.13995">
        <ele>470</ele>
        <time>2013-04-21T12:38:04.000Z</time>
      </trkpt>
      <trkpt lat="45.89112" lon="6.14">
        <ele>469.60000610352</ele>
        <time>2013-04-21T12:38:05.000Z</time>
      </trkpt>
      <trkpt lat="45.89109" lon="6.14004">
        <ele>469.20001220703</ele>
        <time>2013-04-21T12:38:06.000Z</time>
      </trkpt>
      <trkpt lat="45.89107" lon="6.1401">
        <ele>468.79998779297</ele>
        <time>2013-04-21T12:38:07.000Z</time>
      </trkpt>
      <trkpt lat="45.89105" lon="6.14014">
        <ele>468.39999389648</ele>
        <time>2013-04-21T12:38:08.000Z</time>
      </trkpt>
      <trkpt lat="45.89103" lon="6.14017">
        <ele>468.20001220703</ele>
        <time>2013-04-21T12:38:09.000Z</time>
      </trkpt>
      <trkpt lat="45.891" lon="6.14022">
        <ele>468.20001220703</ele>
        <time>2013-04-21T12:38:10.000Z</time>
      </trkpt>
      <trkpt lat="45.89091" lon="6.14045">
        <ele>468.20001220703</ele>
        <time>2013-04-21T12:38:15.000Z</time>
      </trkpt>
      <trkpt lat="45.89081" lon="6.1407">
        <ele>468.20001220703</ele>
        <time>2013-04-21T12:38:20.000Z</time>
      </trkpt>
      <trkpt lat="45.89079" lon="6.14074">
        <ele>468.20001220703</ele>
        <time>2013-04-21T12:38:21.000Z</time>
      </trkpt>
      <trkpt lat="45.89073" lon="6.141">
        <ele>468.20001220703</ele>
        <time>2013-04-21T12:38:26.000Z</time>
      </trkpt>
      <trkpt lat="45.89067" lon="6.14128">
        <ele>468.20001220703</ele>
        <time>2013-04-21T12:38:31.000Z</time>
      </trkpt>
      <trkpt lat="45.89064" lon="6.14155">
        <ele>468.20001220703</ele>
        <time>2013-04-21T12:38:36.000Z</time>
      </trkpt>
      <trkpt lat="45.89062" lon="6.14182">
        <ele>468.20001220703</ele>
        <time>2013-04-21T12:38:41.000Z</time>
      </trkpt>
      <trkpt lat="45.89059" lon="6.14211">
        <ele>468.20001220703</ele>
        <time>2013-04-21T12:38:46.000Z</time>
      </trkpt>
      <trkpt lat="45.89059" lon="6.14216">
        <ele>468.20001220703</ele>
        <time>2013-04-21T12:38:47.000Z</time>
      </trkpt>
      <trkpt lat="45.89057" lon="6.14226">
        <ele>468.39999389648</ele>
        <time>2013-04-21T12:38:49.000Z</time>
      </trkpt>
      <trkpt lat="45.89057" lon="6.14231">
        <ele>469</ele>
        <time>2013-04-21T12:38:50.000Z</time>
      </trkpt>
      <trkpt lat="45.89056" lon="6.14235">
        <ele>469.39999389648</ele>
        <time>2013-04-21T12:38:51.000Z</time>
      </trkpt>
      <trkpt lat="45.89055" lon="6.1424">
        <ele>469.79998779297</ele>
        <time>2013-04-21T12:38:52.000Z</time>
      </trkpt>
      <trkpt lat="45.89053" lon="6.14244">
        <ele>470.20001220703</ele>
        <time>2013-04-21T12:38:53.000Z</time>
      </trkpt>
      <trkpt lat="45.89051" lon="6.1425">
        <ele>470.39999389648</ele>
        <time>2013-04-21T12:38:54.000Z</time>
      </trkpt>
      <trkpt lat="45.89047" lon="6.14264">
        <ele>470.39999389648</ele>
        <time>2013-04-21T12:38:57.000Z</time>
      </trkpt>
      <trkpt lat="45.89038" lon="6.14285">
        <ele>470.39999389648</ele>
        <time>2013-04-21T12:39:01.000Z</time>
      </trkpt>
      <trkpt lat="45.89033" lon="6.14294">
        <ele>470.39999389648</ele>
        <time>2013-04-21T12:39:03.000Z</time>
      </trkpt>
      <trkpt lat="45.89021" lon="6.14314">
        <ele>470.39999389648</ele>
        <time>2013-04-21T12:39:08.000Z</time>
      </trkpt>
      <trkpt lat="45.8901" lon="6.14329">
        <ele>470.39999389648</ele>
        <time>2013-04-21T12:39:12.000Z</time>
      </trkpt>
      <trkpt lat="45.88997" lon="6.14342">
        <ele>470.39999389648</ele>
        <time>2013-04-21T12:39:17.000Z</time>
      </trkpt>
      <trkpt lat="45.88979" lon="6.14353">
        <ele>470.39999389648</ele>
        <time>2013-04-21T12:39:22.000Z</time>
      </trkpt>
      <trkpt lat="45.88971" lon="6.14357">
        <ele>470.39999389648</ele>
        <time>2013-04-21T12:39:24.000Z</time>
      </trkpt>
      <trkpt lat="45.88952" lon="6.14362">
        <ele>470.39999389648</ele>
        <time>2013-04-21T12:39:29.000Z</time>
      </trkpt>
      <trkpt lat="45.88933" lon="6.14363">
        <ele>470.39999389648</ele>
        <time>2013-04-21T12:39:34.000Z</time>
      </trkpt>
      <trkpt lat="45.88913" lon="6.14365">
        <ele>470.39999389648</ele>
        <time>2013-04-21T12:39:39.000Z</time>
      </trkpt>
      <trkpt lat="45.88898" lon="6.14365">
        <ele>470.20001220703</ele>
        <time>2013-04-21T12:39:43.000Z</time>
      </trkpt>
      <trkpt lat="45.88894" lon="6.14365">
        <ele>469.79998779297</ele>
        <time>2013-04-21T12:39:44.000Z</time>
      </trkpt>
      <trkpt lat="45.88891" lon="6.14363">
        <ele>469.39999389648</ele>
        <time>2013-04-21T12:39:45.000Z</time>
      </trkpt>
      <trkpt lat="45.88887" lon="6.14364">
        <ele>468.79998779297</ele>
        <time>2013-04-21T12:39:46.000Z</time>
      </trkpt>
      <trkpt lat="45.88884" lon="6.14364">
        <ele>468.60000610352</ele>
        <time>2013-04-21T12:39:47.000Z</time>
      </trkpt>
      <trkpt lat="45.88879" lon="6.14364">
        <ele>468.20001220703</ele>
        <time>2013-04-21T12:39:48.000Z</time>
      </trkpt>
      <trkpt lat="45.88868" lon="6.14365">
        <ele>468.60000610352</ele>
        <time>2013-04-21T12:39:51.000Z</time>
      </trkpt>
      <trkpt lat="45.88864" lon="6.14366">
        <ele>469</ele>
        <time>2013-04-21T12:39:52.000Z</time>
      </trkpt>
      <trkpt lat="45.88861" lon="6.14366">
        <ele>469.39999389648</ele>
        <time>2013-04-21T12:39:53.000Z</time>
      </trkpt>
      <trkpt lat="45.88856" lon="6.14366">
        <ele>469.79998779297</ele>
        <time>2013-04-21T12:39:54.000Z</time>
      </trkpt>
      <trkpt lat="45.88852" lon="6.14366">
        <ele>470.20001220703</ele>
        <time>2013-04-21T12:39:55.000Z</time>
      </trkpt>
      <trkpt lat="45.88848" lon="6.14366">
        <ele>470.39999389648</ele>
        <time>2013-04-21T12:39:56.000Z</time>
      </trkpt>
      <trkpt lat="45.88843" lon="6.14366">
        <ele>470.39999389648</ele>
        <time>2013-04-21T12:39:57.000Z</time>
      </trkpt>
      <trkpt lat="45.88839" lon="6.14367">
        <ele>470.20001220703</ele>
        <time>2013-04-21T12:39:58.000Z</time>
      </trkpt>
      <trkpt lat="45.88835" lon="6.14367">
        <ele>469.60000610352</ele>
        <time>2013-04-21T12:39:59.000Z</time>
      </trkpt>
      <trkpt lat="45.8883" lon="6.14367">
        <ele>469.20001220703</ele>
        <time>2013-04-21T12:40:00.000Z</time>
      </trkpt>
      <trkpt lat="45.88827" lon="6.14366">
        <ele>468.79998779297</ele>
        <time>2013-04-21T12:40:01.000Z</time>
      </trkpt>
      <trkpt lat="45.88823" lon="6.14366">
        <ele>468.39999389648</ele>
        <time>2013-04-21T12:40:02.000Z</time>
      </trkpt>
      <trkpt lat="45.88819" lon="6.14365">
        <ele>468.39999389648</ele>
        <time>2013-04-21T12:40:03.000Z</time>
      </trkpt>
      <trkpt lat="45.88799" lon="6.14361">
        <ele>468.39999389648</ele>
        <time>2013-04-21T12:40:08.000Z</time>
      </trkpt>
      <trkpt lat="45.88784" lon="6.14358">
        <ele>468.39999389648</ele>
        <time>2013-04-21T12:40:12.000Z</time>
      </trkpt>
      <trkpt lat="45.88777" lon="6.14356">
        <ele>468.39999389648</ele>
        <time>2013-04-21T12:40:14.000Z</time>
      </trkpt>
      <trkpt lat="45.88762" lon="6.14351">
        <ele>468.39999389648</ele>
        <time>2013-04-21T12:40:18.000Z</time>
      </trkpt>
      <trkpt lat="45.88751" lon="6.14351">
        <ele>468.39999389648</ele>
        <time>2013-04-21T12:40:20.000Z</time>
      </trkpt>
      <trkpt lat="45.88744" lon="6.1435">
        <ele>468.39999389648</ele>
        <time>2013-04-21T12:40:22.000Z</time>
      </trkpt>
      <trkpt lat="45.88725" lon="6.14343">
        <ele>468.39999389648</ele>
        <time>2013-04-21T12:40:27.000Z</time>
      </trkpt>
      <trkpt lat="45.88704" lon="6.14337">
        <ele>468.39999389648</ele>
        <time>2013-04-21T12:40:32.000Z</time>
      </trkpt>
      <trkpt lat="45.887" lon="6.14335">
        <ele>468.39999389648</ele>
        <time>2013-04-21T12:40:33.000Z</time>
      </trkpt>
      <trkpt lat="45.88689" lon="6.14332">
        <ele>468.39999389648</ele>
        <time>2013-04-21T12:40:36.000Z</time>
      </trkpt>
      <trkpt lat="45.88681" lon="6.14329">
        <ele>468.39999389648</ele>
        <time>2013-04-21T12:40:38.000Z</time>
      </trkpt>
      <trkpt lat="45.88674" lon="6.14324">
        <ele>468.39999389648</ele>
        <time>2013-04-21T12:40:40.000Z</time>
      </trkpt>
      <trkpt lat="45.8866" lon="6.14315">
        <ele>468.39999389648</ele>
        <time>2013-04-21T12:40:44.000Z</time>
      </trkpt>
      <trkpt lat="45.88642" lon="6.14307">
        <ele>468.39999389648</ele>
        <time>2013-04-21T12:40:49.000Z</time>
      </trkpt>
      <trkpt lat="45.88624" lon="6.14299">
        <ele>468.39999389648</ele>
        <time>2013-04-21T12:40:54.000Z</time>
      </trkpt>
      <trkpt lat="45.88621" lon="6.14297">
        <ele>468.39999389648</ele>
        <time>2013-04-21T12:40:55.000Z</time>
      </trkpt>
      <trkpt lat="45.88602" lon="6.14288">
        <ele>468.39999389648</ele>
        <time>2013-04-21T12:41:00.000Z</time>
      </trkpt>
      <trkpt lat="45.886" lon="6.14285">
        <ele>468.39999389648</ele>
        <time>2013-04-21T12:41:01.000Z</time>
      </trkpt>
      <trkpt lat="45.88596" lon="6.14282">
        <ele>468.39999389648</ele>
        <time>2013-04-21T12:41:02.000Z</time>
      </trkpt>
      <trkpt lat="45.88579" lon="6.14273">
        <ele>468.39999389648</ele>
        <time>2013-04-21T12:41:07.000Z</time>
      </trkpt>
      <trkpt lat="45.88575" lon="6.14272">
        <ele>468.79998779297</ele>
        <time>2013-04-21T12:41:08.000Z</time>
      </trkpt>
      <trkpt lat="45.88571" lon="6.14271">
        <ele>469.20001220703</ele>
        <time>2013-04-21T12:41:09.000Z</time>
      </trkpt>
      <trkpt lat="45.88568" lon="6.14269">
        <ele>469.60000610352</ele>
        <time>2013-04-21T12:41:10.000Z</time>
      </trkpt>
      <trkpt lat="45.88565" lon="6.14267">
        <ele>470</ele>
        <time>2013-04-21T12:41:11.000Z</time>
      </trkpt>
      <trkpt lat="45.88561" lon="6.14265">
        <ele>470.60000610352</ele>
        <time>2013-04-21T12:41:12.000Z</time>
      </trkpt>
      <trkpt lat="45.88557" lon="6.14264">
        <ele>470.20001220703</ele>
        <time>2013-04-21T12:41:13.000Z</time>
      </trkpt>
      <trkpt lat="45.88553" lon="6.14261">
        <ele>469.79998779297</ele>
        <time>2013-04-21T12:41:14.000Z</time>
      </trkpt>
      <trkpt lat="45.8855" lon="6.14258">
        <ele>469.39999389648</ele>
        <time>2013-04-21T12:41:15.000Z</time>
      </trkpt>
      <trkpt lat="45.88546" lon="6.14257">
        <ele>469</ele>
        <time>2013-04-21T12:41:16.000Z</time>
      </trkpt>
      <trkpt lat="45.88544" lon="6.14254">
        <ele>468.60000610352</ele>
        <time>2013-04-21T12:41:17.000Z</time>
      </trkpt>
      <trkpt lat="45.88526" lon="6.14247">
        <ele>468.60000610352</ele>
        <time>2013-04-21T12:41:22.000Z</time>
      </trkpt>
      <trkpt lat="45.88511" lon="6.14244">
        <ele>468.79998779297</ele>
        <time>2013-04-21T12:41:26.000Z</time>
      </trkpt>
      <trkpt lat="45.88506" lon="6.14243">
        <ele>469.20001220703</ele>
        <time>2013-04-21T12:41:27.000Z</time>
      </trkpt>
      <trkpt lat="45.88502" lon="6.14243">
        <ele>469.60000610352</ele>
        <time>2013-04-21T12:41:28.000Z</time>
      </trkpt>
      <trkpt lat="45.88497" lon="6.14243">
        <ele>470</ele>
        <time>2013-04-21T12:41:29.000Z</time>
      </trkpt>
      <trkpt lat="45.88493" lon="6.14243">
        <ele>470.39999389648</ele>
        <time>2013-04-21T12:41:30.000Z</time>
      </trkpt>
      <trkpt lat="45.8849" lon="6.14242">
        <ele>470.60000610352</ele>
        <time>2013-04-21T12:41:31.000Z</time>
      </trkpt>
      <trkpt lat="45.88485" lon="6.14241">
        <ele>470.20001220703</ele>
        <time>2013-04-21T12:41:32.000Z</time>
      </trkpt>
      <trkpt lat="45.88482" lon="6.1424">
        <ele>469.79998779297</ele>
        <time>2013-04-21T12:41:33.000Z</time>
      </trkpt>
      <trkpt lat="45.88478" lon="6.14238">
        <ele>469.39999389648</ele>
        <time>2013-04-21T12:41:34.000Z</time>
      </trkpt>
      <trkpt lat="45.88476" lon="6.14236">
        <ele>469</ele>
        <time>2013-04-21T12:41:35.000Z</time>
      </trkpt>
      <trkpt lat="45.88472" lon="6.14235">
        <ele>468.60000610352</ele>
        <time>2013-04-21T12:41:36.000Z</time>
      </trkpt>
      <trkpt lat="45.88468" lon="6.14234">
        <ele>468.39999389648</ele>
        <time>2013-04-21T12:41:37.000Z</time>
      </trkpt>
      <trkpt lat="45.88449" lon="6.14232">
        <ele>468.39999389648</ele>
        <time>2013-04-21T12:41:42.000Z</time>
      </trkpt>
      <trkpt lat="45.88444" lon="6.14232">
        <ele>468.39999389648</ele>
        <time>2013-04-21T12:41:43.000Z</time>
      </trkpt>
      <trkpt lat="45.88424" lon="6.14229">
        <ele>468.39999389648</ele>
        <time>2013-04-21T12:41:48.000Z</time>
      </trkpt>
      <trkpt lat="45.88405" lon="6.14227">
        <ele>468.39999389648</ele>
        <time>2013-04-21T12:41:53.000Z</time>
      </trkpt>
      <trkpt lat="45.88385" lon="6.14224">
        <ele>468.39999389648</ele>
        <time>2013-04-21T12:41:58.000Z</time>
      </trkpt>
      <trkpt lat="45.88376" lon="6.1422">
        <ele>468.39999389648</ele>
        <time>2013-04-21T12:42:01.000Z</time>
      </trkpt>
      <trkpt lat="45.88371" lon="6.14219">
        <ele>468.39999389648</ele>
        <time>2013-04-21T12:42:02.000Z</time>
      </trkpt>
      <trkpt lat="45.88368" lon="6.14219">
        <ele>468.39999389648</ele>
        <time>2013-04-21T12:42:03.000Z</time>
      </trkpt>
      <trkpt lat="45.88349" lon="6.14215">
        <ele>468.39999389648</ele>
        <time>2013-04-21T12:42:08.000Z</time>
      </trkpt>
      <trkpt lat="45.88345" lon="6.14215">
        <ele>468.39999389648</ele>
        <time>2013-04-21T12:42:09.000Z</time>
      </trkpt>
      <trkpt lat="45.88326" lon="6.14212">
        <ele>468.39999389648</ele>
        <time>2013-04-21T12:42:14.000Z</time>
      </trkpt>
      <trkpt lat="45.88322" lon="6.14212">
        <ele>468.39999389648</ele>
        <time>2013-04-21T12:42:15.000Z</time>
      </trkpt>
      <trkpt lat="45.88302" lon="6.1421">
        <ele>468.39999389648</ele>
        <time>2013-04-21T12:42:20.000Z</time>
      </trkpt>
      <trkpt lat="45.88287" lon="6.14209">
        <ele>468.39999389648</ele>
        <time>2013-04-21T12:42:24.000Z</time>
      </trkpt>
      <trkpt lat="45.88281" lon="6.14208">
        <ele>469</ele>
        <time>2013-04-21T12:42:26.000Z</time>
      </trkpt>
      <trkpt lat="45.88277" lon="6.14206">
        <ele>469.39999389648</ele>
        <time>2013-04-21T12:42:27.000Z</time>
      </trkpt>
      <trkpt lat="45.88274" lon="6.14206">
        <ele>469.79998779297</ele>
        <time>2013-04-21T12:42:28.000Z</time>
      </trkpt>
      <trkpt lat="45.88271" lon="6.14205">
        <ele>470</ele>
        <time>2013-04-21T12:42:29.000Z</time>
      </trkpt>
      <trkpt lat="45.88267" lon="6.14205">
        <ele>469.60000610352</ele>
        <time>2013-04-21T12:42:30.000Z</time>
      </trkpt>
      <trkpt lat="45.88263" lon="6.14204">
        <ele>469.20001220703</ele>
        <time>2013-04-21T12:42:31.000Z</time>
      </trkpt>
      <trkpt lat="45.8826" lon="6.14203">
        <ele>469</ele>
        <time>2013-04-21T12:42:32.000Z</time>
      </trkpt>
      <trkpt lat="45.88257" lon="6.14202">
        <ele>468.60000610352</ele>
        <time>2013-04-21T12:42:33.000Z</time>
      </trkpt>
      <trkpt lat="45.88254" lon="6.14202">
        <ele>468.79998779297</ele>
        <time>2013-04-21T12:42:34.000Z</time>
      </trkpt>
      <trkpt lat="45.88251" lon="6.14202">
        <ele>469.20001220703</ele>
        <time>2013-04-21T12:42:35.000Z</time>
      </trkpt>
      <trkpt lat="45.88248" lon="6.14202">
        <ele>469.60000610352</ele>
        <time>2013-04-21T12:42:36.000Z</time>
      </trkpt>
      <trkpt lat="45.88244" lon="6.14201">
        <ele>470</ele>
        <time>2013-04-21T12:42:37.000Z</time>
      </trkpt>
      <trkpt lat="45.88241" lon="6.14201">
        <ele>470.39999389648</ele>
        <time>2013-04-21T12:42:38.000Z</time>
      </trkpt>
      <trkpt lat="45.88238" lon="6.14202">
        <ele>470.60000610352</ele>
        <time>2013-04-21T12:42:39.000Z</time>
      </trkpt>
      <trkpt lat="45.88236" lon="6.14201">
        <ele>470.60000610352</ele>
        <time>2013-04-21T12:42:40.000Z</time>
      </trkpt>
      <trkpt lat="45.88221" lon="6.142">
        <ele>470.60000610352</ele>
        <time>2013-04-21T12:42:45.000Z</time>
      </trkpt>
      <trkpt lat="45.88214" lon="6.142">
        <ele>470.79998779297</ele>
        <time>2013-04-21T12:42:47.000Z</time>
      </trkpt>
      <trkpt lat="45.8821" lon="6.14199">
        <ele>471.20001220703</ele>
        <time>2013-04-21T12:42:48.000Z</time>
      </trkpt>
      <trkpt lat="45.88207" lon="6.14199">
        <ele>471.79998779297</ele>
        <time>2013-04-21T12:42:49.000Z</time>
      </trkpt>
      <trkpt lat="45.88204" lon="6.14199">
        <ele>472.20001220703</ele>
        <time>2013-04-21T12:42:50.000Z</time>
      </trkpt>
      <trkpt lat="45.88201" lon="6.14199">
        <ele>472.79998779297</ele>
        <time>2013-04-21T12:42:51.000Z</time>
      </trkpt>
      <trkpt lat="45.88198" lon="6.14198">
        <ele>473</ele>
        <time>2013-04-21T12:42:52.000Z</time>
      </trkpt>
      <trkpt lat="45.88187" lon="6.14197">
        <ele>473</ele>
        <time>2013-04-21T12:42:55.000Z</time>
      </trkpt>
      <trkpt lat="45.88169" lon="6.14198">
        <ele>473.39999389648</ele>
        <time>2013-04-21T12:43:00.000Z</time>
      </trkpt>
      <trkpt lat="45.88166" lon="6.14198">
        <ele>474</ele>
        <time>2013-04-21T12:43:01.000Z</time>
      </trkpt>
      <trkpt lat="45.88162" lon="6.14198">
        <ele>474.39999389648</ele>
        <time>2013-04-21T12:43:02.000Z</time>
      </trkpt>
      <trkpt lat="45.88158" lon="6.14198">
        <ele>474.79998779297</ele>
        <time>2013-04-21T12:43:03.000Z</time>
      </trkpt>
      <trkpt lat="45.88154" lon="6.14198">
        <ele>475</ele>
        <time>2013-04-21T12:43:04.000Z</time>
      </trkpt>
      <trkpt lat="45.88146" lon="6.14198">
        <ele>475</ele>
        <time>2013-04-21T12:43:06.000Z</time>
      </trkpt>
      <trkpt lat="45.88131" lon="6.14197">
        <ele>475</ele>
        <time>2013-04-21T12:43:10.000Z</time>
      </trkpt>
      <trkpt lat="45.88118" lon="6.14208">
        <ele>475</ele>
        <time>2013-04-21T12:43:14.000Z</time>
      </trkpt>
      <trkpt lat="45.88102" lon="6.14219">
        <ele>475</ele>
        <time>2013-04-21T12:43:19.000Z</time>
      </trkpt>
      <trkpt lat="45.88085" lon="6.14232">
        <ele>475</ele>
        <time>2013-04-21T12:43:24.000Z</time>
      </trkpt>
      <trkpt lat="45.88066" lon="6.14241">
        <ele>475</ele>
        <time>2013-04-21T12:43:29.000Z</time>
      </trkpt>
      <trkpt lat="45.88045" lon="6.14249">
        <ele>475</ele>
        <time>2013-04-21T12:43:34.000Z</time>
      </trkpt>
      <trkpt lat="45.88039" lon="6.14253">
        <ele>475</ele>
        <time>2013-04-21T12:43:36.000Z</time>
      </trkpt>
      <trkpt lat="45.88032" lon="6.14255">
        <ele>475</ele>
        <time>2013-04-21T12:43:38.000Z</time>
      </trkpt>
      <trkpt lat="45.88022" lon="6.14257">
        <ele>475</ele>
        <time>2013-04-21T12:43:41.000Z</time>
      </trkpt>
      <trkpt lat="45.88004" lon="6.14262">
        <ele>475</ele>
        <time>2013-04-21T12:43:46.000Z</time>
      </trkpt>
      <trkpt lat="45.88" lon="6.14263">
        <ele>475</ele>
        <time>2013-04-21T12:43:47.000Z</time>
      </trkpt>
      <trkpt lat="45.8798" lon="6.14266">
        <ele>475</ele>
        <time>2013-04-21T12:43:52.000Z</time>
      </trkpt>
      <trkpt lat="45.87972" lon="6.14266">
        <ele>475</ele>
        <time>2013-04-21T12:43:54.000Z</time>
      </trkpt>
      <trkpt lat="45.87961" lon="6.14266">
        <ele>474.60000610352</ele>
        <time>2013-04-21T12:43:57.000Z</time>
      </trkpt>
      <trkpt lat="45.87957" lon="6.14265">
        <ele>474.20001220703</ele>
        <time>2013-04-21T12:43:58.000Z</time>
      </trkpt>
      <trkpt lat="45.87954" lon="6.14265">
        <ele>473.60000610352</ele>
        <time>2013-04-21T12:43:59.000Z</time>
      </trkpt>
      <trkpt lat="45.87949" lon="6.14265">
        <ele>473.20001220703</ele>
        <time>2013-04-21T12:44:00.000Z</time>
      </trkpt>
      <trkpt lat="45.87946" lon="6.14265">
        <ele>473.60000610352</ele>
        <time>2013-04-21T12:44:01.000Z</time>
      </trkpt>
      <trkpt lat="45.87942" lon="6.14264">
        <ele>474</ele>
        <time>2013-04-21T12:44:02.000Z</time>
      </trkpt>
      <trkpt lat="45.87938" lon="6.14264">
        <ele>474.39999389648</ele>
        <time>2013-04-21T12:44:03.000Z</time>
      </trkpt>
      <trkpt lat="45.87934" lon="6.14265">
        <ele>474.79998779297</ele>
        <time>2013-04-21T12:44:04.000Z</time>
      </trkpt>
      <trkpt lat="45.8793" lon="6.14264">
        <ele>475</ele>
        <time>2013-04-21T12:44:05.000Z</time>
      </trkpt>
      <trkpt lat="45.87927" lon="6.14265">
        <ele>474.60000610352</ele>
        <time>2013-04-21T12:44:06.000Z</time>
      </trkpt>
      <trkpt lat="45.87923" lon="6.14264">
        <ele>474.20001220703</ele>
        <time>2013-04-21T12:44:07.000Z</time>
      </trkpt>
      <trkpt lat="45.87919" lon="6.14264">
        <ele>473.79998779297</ele>
        <time>2013-04-21T12:44:08.000Z</time>
      </trkpt>
      <trkpt lat="45.87915" lon="6.14264">
        <ele>473.39999389648</ele>
        <time>2013-04-21T12:44:09.000Z</time>
      </trkpt>
      <trkpt lat="45.87912" lon="6.14264">
        <ele>473.20001220703</ele>
        <time>2013-04-21T12:44:10.000Z</time>
      </trkpt>
      <trkpt lat="45.8789" lon="6.14262">
        <ele>473.20001220703</ele>
        <time>2013-04-21T12:44:16.000Z</time>
      </trkpt>
      <trkpt lat="45.8787" lon="6.14262">
        <ele>473.20001220703</ele>
        <time>2013-04-21T12:44:21.000Z</time>
      </trkpt>
      <trkpt lat="45.87851" lon="6.14262">
        <ele>473.20001220703</ele>
        <time>2013-04-21T12:44:26.000Z</time>
      </trkpt>
      <trkpt lat="45.87832" lon="6.14264">
        <ele>473.20001220703</ele>
        <time>2013-04-21T12:44:31.000Z</time>
      </trkpt>
      <trkpt lat="45.87828" lon="6.14264">
        <ele>473.20001220703</ele>
        <time>2013-04-21T12:44:32.000Z</time>
      </trkpt>
      <trkpt lat="45.8781" lon="6.14266">
        <ele>473.20001220703</ele>
        <time>2013-04-21T12:44:37.000Z</time>
      </trkpt>
      <trkpt lat="45.87806" lon="6.14267">
        <ele>473.20001220703</ele>
        <time>2013-04-21T12:44:38.000Z</time>
      </trkpt>
      <trkpt lat="45.87787" lon="6.14273">
        <ele>473.20001220703</ele>
        <time>2013-04-21T12:44:43.000Z</time>
      </trkpt>
      <trkpt lat="45.87783" lon="6.14274">
        <ele>473.20001220703</ele>
        <time>2013-04-21T12:44:44.000Z</time>
      </trkpt>
      <trkpt lat="45.87764" lon="6.14281">
        <ele>473.20001220703</ele>
        <time>2013-04-21T12:44:49.000Z</time>
      </trkpt>
      <trkpt lat="45.87746" lon="6.14286">
        <ele>473.20001220703</ele>
        <time>2013-04-21T12:44:54.000Z</time>
      </trkpt>
      <trkpt lat="45.87728" lon="6.14292">
        <ele>473.20001220703</ele>
        <time>2013-04-21T12:44:59.000Z</time>
      </trkpt>
      <trkpt lat="45.87721" lon="6.14293">
        <ele>473.20001220703</ele>
        <time>2013-04-21T12:45:01.000Z</time>
      </trkpt>
      <trkpt lat="45.87707" lon="6.14294">
        <ele>473.20001220703</ele>
        <time>2013-04-21T12:45:05.000Z</time>
      </trkpt>
      <trkpt lat="45.87692" lon="6.14299">
        <ele>473.20001220703</ele>
        <time>2013-04-21T12:45:09.000Z</time>
      </trkpt>
      <trkpt lat="45.87675" lon="6.14304">
        <ele>473.20001220703</ele>
        <time>2013-04-21T12:45:13.000Z</time>
      </trkpt>
      <trkpt lat="45.87656" lon="6.14307">
        <ele>473.20001220703</ele>
        <time>2013-04-21T12:45:18.000Z</time>
      </trkpt>
      <trkpt lat="45.8764" lon="6.14309">
        <ele>473.20001220703</ele>
        <time>2013-04-21T12:45:22.000Z</time>
      </trkpt>
      <trkpt lat="45.87632" lon="6.14309">
        <ele>473.20001220703</ele>
        <time>2013-04-21T12:45:24.000Z</time>
      </trkpt>
      <trkpt lat="45.87613" lon="6.14309">
        <ele>473.20001220703</ele>
        <time>2013-04-21T12:45:29.000Z</time>
      </trkpt>
      <trkpt lat="45.87595" lon="6.14308">
        <ele>473.20001220703</ele>
        <time>2013-04-21T12:45:34.000Z</time>
      </trkpt>
      <trkpt lat="45.87588" lon="6.14307">
        <ele>473.20001220703</ele>
        <time>2013-04-21T12:45:36.000Z</time>
      </trkpt>
      <trkpt lat="45.87568" lon="6.14308">
        <ele>473.20001220703</ele>
        <time>2013-04-21T12:45:41.000Z</time>
      </trkpt>
      <trkpt lat="45.87548" lon="6.14307">
        <ele>472.79998779297</ele>
        <time>2013-04-21T12:45:46.000Z</time>
      </trkpt>
      <trkpt lat="45.87544" lon="6.14308">
        <ele>472.39999389648</ele>
        <time>2013-04-21T12:45:47.000Z</time>
      </trkpt>
      <trkpt lat="45.8754" lon="6.14307">
        <ele>472</ele>
        <time>2013-04-21T12:45:48.000Z</time>
      </trkpt>
      <trkpt lat="45.87536" lon="6.14306">
        <ele>471.60000610352</ele>
        <time>2013-04-21T12:45:49.000Z</time>
      </trkpt>
      <trkpt lat="45.87532" lon="6.14306">
        <ele>471.20001220703</ele>
        <time>2013-04-21T12:45:50.000Z</time>
      </trkpt>
      <trkpt lat="45.87525" lon="6.14306">
        <ele>471.20001220703</ele>
        <time>2013-04-21T12:45:52.000Z</time>
      </trkpt>
      <trkpt lat="45.87506" lon="6.14304">
        <ele>471.20001220703</ele>
        <time>2013-04-21T12:45:57.000Z</time>
      </trkpt>
      <trkpt lat="45.87491" lon="6.14306">
        <ele>471.20001220703</ele>
        <time>2013-04-21T12:46:01.000Z</time>
      </trkpt>
      <trkpt lat="45.87487" lon="6.14305">
        <ele>471.20001220703</ele>
        <time>2013-04-21T12:46:02.000Z</time>
      </trkpt>
      <trkpt lat="45.8747" lon="6.14304">
        <ele>471.20001220703</ele>
        <time>2013-04-21T12:46:07.000Z</time>
      </trkpt>
      <trkpt lat="45.87454" lon="6.14309">
        <ele>471.20001220703</ele>
        <time>2013-04-21T12:46:11.000Z</time>
      </trkpt>
      <trkpt lat="45.87434" lon="6.14315">
        <ele>471.20001220703</ele>
        <time>2013-04-21T12:46:16.000Z</time>
      </trkpt>
      <trkpt lat="45.87426" lon="6.14318">
        <ele>471.20001220703</ele>
        <time>2013-04-21T12:46:18.000Z</time>
      </trkpt>
      <trkpt lat="45.87409" lon="6.14324">
        <ele>471.20001220703</ele>
        <time>2013-04-21T12:46:22.000Z</time>
      </trkpt>
      <trkpt lat="45.87402" lon="6.14326">
        <ele>471.20001220703</ele>
        <time>2013-04-21T12:46:24.000Z</time>
      </trkpt>
      <trkpt lat="45.87382" lon="6.14334">
        <ele>471.20001220703</ele>
        <time>2013-04-21T12:46:29.000Z</time>
      </trkpt>
      <trkpt lat="45.87363" lon="6.14342">
        <ele>471.20001220703</ele>
        <time>2013-04-21T12:46:34.000Z</time>
      </trkpt>
      <trkpt lat="45.87359" lon="6.14343">
        <ele>471.20001220703</ele>
        <time>2013-04-21T12:46:35.000Z</time>
      </trkpt>
      <trkpt lat="45.87341" lon="6.14351">
        <ele>471.20001220703</ele>
        <time>2013-04-21T12:46:40.000Z</time>
      </trkpt>
      <trkpt lat="45.87337" lon="6.14353">
        <ele>471.20001220703</ele>
        <time>2013-04-21T12:46:41.000Z</time>
      </trkpt>
      <trkpt lat="45.87318" lon="6.14359">
        <ele>471.20001220703</ele>
        <time>2013-04-21T12:46:46.000Z</time>
      </trkpt>
      <trkpt lat="45.873" lon="6.14366">
        <ele>471.20001220703</ele>
        <time>2013-04-21T12:46:51.000Z</time>
      </trkpt>
      <trkpt lat="45.87282" lon="6.14372">
        <ele>471.20001220703</ele>
        <time>2013-04-21T12:46:56.000Z</time>
      </trkpt>
      <trkpt lat="45.87278" lon="6.14372">
        <ele>471.20001220703</ele>
        <time>2013-04-21T12:46:57.000Z</time>
      </trkpt>
      <trkpt lat="45.87265" lon="6.14376">
        <ele>471.20001220703</ele>
        <time>2013-04-21T12:47:01.000Z</time>
      </trkpt>
      <trkpt lat="45.87253" lon="6.14379">
        <ele>471.20001220703</ele>
        <time>2013-04-21T12:47:04.000Z</time>
      </trkpt>
      <trkpt lat="45.8724" lon="6.14382">
        <ele>471.20001220703</ele>
        <time>2013-04-21T12:47:08.000Z</time>
      </trkpt>
      <trkpt lat="45.87223" lon="6.14383">
        <ele>471.20001220703</ele>
        <time>2013-04-21T12:47:13.000Z</time>
      </trkpt>
      <trkpt lat="45.87204" lon="6.14384">
        <ele>471.20001220703</ele>
        <time>2013-04-21T12:47:18.000Z</time>
      </trkpt>
      <trkpt lat="45.87199" lon="6.14384">
        <ele>471.20001220703</ele>
        <time>2013-04-21T12:47:19.000Z</time>
      </trkpt>
      <trkpt lat="45.87179" lon="6.14383">
        <ele>471.20001220703</ele>
        <time>2013-04-21T12:47:24.000Z</time>
      </trkpt>
      <trkpt lat="45.87159" lon="6.14381">
        <ele>471.20001220703</ele>
        <time>2013-04-21T12:47:29.000Z</time>
      </trkpt>
      <trkpt lat="45.87139" lon="6.14379">
        <ele>471.20001220703</ele>
        <time>2013-04-21T12:47:34.000Z</time>
      </trkpt>
      <trkpt lat="45.87135" lon="6.14379">
        <ele>471.20001220703</ele>
        <time>2013-04-21T12:47:35.000Z</time>
      </trkpt>
      <trkpt lat="45.87127" lon="6.14378">
        <ele>471.20001220703</ele>
        <time>2013-04-21T12:47:37.000Z</time>
      </trkpt>
      <trkpt lat="45.87116" lon="6.14374">
        <ele>471.20001220703</ele>
        <time>2013-04-21T12:47:40.000Z</time>
      </trkpt>
      <trkpt lat="45.87102" lon="6.14367">
        <ele>471.20001220703</ele>
        <time>2013-04-21T12:47:44.000Z</time>
      </trkpt>
      <trkpt lat="45.87083" lon="6.14358">
        <ele>471.20001220703</ele>
        <time>2013-04-21T12:47:49.000Z</time>
      </trkpt>
      <trkpt lat="45.87068" lon="6.1435">
        <ele>471.20001220703</ele>
        <time>2013-04-21T12:47:53.000Z</time>
      </trkpt>
      <trkpt lat="45.87061" lon="6.14344">
        <ele>471.20001220703</ele>
        <time>2013-04-21T12:47:55.000Z</time>
      </trkpt>
      <trkpt lat="45.87047" lon="6.14333">
        <ele>471.20001220703</ele>
        <time>2013-04-21T12:47:59.000Z</time>
      </trkpt>
      <trkpt lat="45.87043" lon="6.14331">
        <ele>471.20001220703</ele>
        <time>2013-04-21T12:48:00.000Z</time>
      </trkpt>
      <trkpt lat="45.87031" lon="6.14326">
        <ele>471.20001220703</ele>
        <time>2013-04-21T12:48:03.000Z</time>
      </trkpt>
      <trkpt lat="45.87022" lon="6.14325">
        <ele>471.20001220703</ele>
        <time>2013-04-21T12:48:05.000Z</time>
      </trkpt>
      <trkpt lat="45.87018" lon="6.14322">
        <ele>471.20001220703</ele>
        <time>2013-04-21T12:48:06.000Z</time>
      </trkpt>
      <trkpt lat="45.87" lon="6.14311">
        <ele>471.20001220703</ele>
        <time>2013-04-21T12:48:11.000Z</time>
      </trkpt>
      <trkpt lat="45.86996" lon="6.14309">
        <ele>471.20001220703</ele>
        <time>2013-04-21T12:48:12.000Z</time>
      </trkpt>
      <trkpt lat="45.86977" lon="6.143">
        <ele>471.20001220703</ele>
        <time>2013-04-21T12:48:17.000Z</time>
      </trkpt>
      <trkpt lat="45.8697" lon="6.14298">
        <ele>471.20001220703</ele>
        <time>2013-04-21T12:48:19.000Z</time>
      </trkpt>
      <trkpt lat="45.86953" lon="6.1429">
        <ele>471.20001220703</ele>
        <time>2013-04-21T12:48:24.000Z</time>
      </trkpt>
      <trkpt lat="45.86938" lon="6.14289">
        <ele>471.20001220703</ele>
        <time>2013-04-21T12:48:28.000Z</time>
      </trkpt>
      <trkpt lat="45.86921" lon="6.14279">
        <ele>471.20001220703</ele>
        <time>2013-04-21T12:48:33.000Z</time>
      </trkpt>
      <trkpt lat="45.86904" lon="6.14271">
        <ele>471.20001220703</ele>
        <time>2013-04-21T12:48:38.000Z</time>
      </trkpt>
      <trkpt lat="45.86886" lon="6.14267">
        <ele>471.20001220703</ele>
        <time>2013-04-21T12:48:43.000Z</time>
      </trkpt>
      <trkpt lat="45.86866" lon="6.14266">
        <ele>471.20001220703</ele>
        <time>2013-04-21T12:48:48.000Z</time>
      </trkpt>
      <trkpt lat="45.86848" lon="6.1427">
        <ele>471.20001220703</ele>
        <time>2013-04-21T12:48:52.000Z</time>
      </trkpt>
      <trkpt lat="45.86844" lon="6.1427">
        <ele>471.20001220703</ele>
        <time>2013-04-21T12:48:53.000Z</time>
      </trkpt>
      <trkpt lat="45.86831" lon="6.14273">
        <ele>471.20001220703</ele>
        <time>2013-04-21T12:48:56.000Z</time>
      </trkpt>
      <trkpt lat="45.86819" lon="6.14275">
        <ele>471.20001220703</ele>
        <time>2013-04-21T12:48:59.000Z</time>
      </trkpt>
      <trkpt lat="45.86812" lon="6.14276">
        <ele>471</ele>
        <time>2013-04-21T12:49:01.000Z</time>
      </trkpt>
      <trkpt lat="45.86808" lon="6.14277">
        <ele>470.60000610352</ele>
        <time>2013-04-21T12:49:02.000Z</time>
      </trkpt>
      <trkpt lat="45.86802" lon="6.1428">
        <ele>470.20001220703</ele>
        <time>2013-04-21T12:49:03.000Z</time>
      </trkpt>
      <trkpt lat="45.86798" lon="6.14281">
        <ele>469.60000610352</ele>
        <time>2013-04-21T12:49:04.000Z</time>
      </trkpt>
      <trkpt lat="45.86795" lon="6.14281">
        <ele>469.20001220703</ele>
        <time>2013-04-21T12:49:05.000Z</time>
      </trkpt>
      <trkpt lat="45.86792" lon="6.14282">
        <ele>469</ele>
        <time>2013-04-21T12:49:06.000Z</time>
      </trkpt>
      <trkpt lat="45.86788" lon="6.14282">
        <ele>469.39999389648</ele>
        <time>2013-04-21T12:49:07.000Z</time>
      </trkpt>
      <trkpt lat="45.86784" lon="6.14282">
        <ele>469.79998779297</ele>
        <time>2013-04-21T12:49:08.000Z</time>
      </trkpt>
      <trkpt lat="45.86781" lon="6.14284">
        <ele>470.20001220703</ele>
        <time>2013-04-21T12:49:09.000Z</time>
      </trkpt>
      <trkpt lat="45.86776" lon="6.14286">
        <ele>470.60000610352</ele>
        <time>2013-04-21T12:49:10.000Z</time>
      </trkpt>
      <trkpt lat="45.86773" lon="6.14288">
        <ele>471</ele>
        <time>2013-04-21T12:49:11.000Z</time>
      </trkpt>
      <trkpt lat="45.86769" lon="6.1429">
        <ele>470.79998779297</ele>
        <time>2013-04-21T12:49:12.000Z</time>
      </trkpt>
      <trkpt lat="45.86765" lon="6.14291">
        <ele>470.39999389648</ele>
        <time>2013-04-21T12:49:13.000Z</time>
      </trkpt>
      <trkpt lat="45.86762" lon="6.14293">
        <ele>470</ele>
        <time>2013-04-21T12:49:14.000Z</time>
      </trkpt>
      <trkpt lat="45.86758" lon="6.14295">
        <ele>469.60000610352</ele>
        <time>2013-04-21T12:49:15.000Z</time>
      </trkpt>
      <trkpt lat="45.86755" lon="6.14296">
        <ele>469</ele>
        <time>2013-04-21T12:49:16.000Z</time>
      </trkpt>
      <trkpt lat="45.86751" lon="6.14299">
        <ele>469</ele>
        <time>2013-04-21T12:49:17.000Z</time>
      </trkpt>
      <trkpt lat="45.86735" lon="6.14308">
        <ele>469</ele>
        <time>2013-04-21T12:49:22.000Z</time>
      </trkpt>
      <trkpt lat="45.86732" lon="6.1431">
        <ele>469</ele>
        <time>2013-04-21T12:49:23.000Z</time>
      </trkpt>
      <trkpt lat="45.86716" lon="6.14322">
        <ele>469</ele>
        <time>2013-04-21T12:49:28.000Z</time>
      </trkpt>
      <trkpt lat="45.86713" lon="6.14324">
        <ele>469.20001220703</ele>
        <time>2013-04-21T12:49:29.000Z</time>
      </trkpt>
      <trkpt lat="45.8671" lon="6.14327">
        <ele>469.60000610352</ele>
        <time>2013-04-21T12:49:30.000Z</time>
      </trkpt>
      <trkpt lat="45.86706" lon="6.14328">
        <ele>470.20001220703</ele>
        <time>2013-04-21T12:49:31.000Z</time>
      </trkpt>
      <trkpt lat="45.86703" lon="6.14331">
        <ele>470.60000610352</ele>
        <time>2013-04-21T12:49:32.000Z</time>
      </trkpt>
      <trkpt lat="45.86699" lon="6.14334">
        <ele>471</ele>
        <time>2013-04-21T12:49:33.000Z</time>
      </trkpt>
      <trkpt lat="45.86695" lon="6.14337">
        <ele>470.60000610352</ele>
        <time>2013-04-21T12:49:34.000Z</time>
      </trkpt>
      <trkpt lat="45.86692" lon="6.14339">
        <ele>470.20001220703</ele>
        <time>2013-04-21T12:49:35.000Z</time>
      </trkpt>
      <trkpt lat="45.86688" lon="6.14342">
        <ele>469.79998779297</ele>
        <time>2013-04-21T12:49:36.000Z</time>
      </trkpt>
      <trkpt lat="45.86684" lon="6.14344">
        <ele>469.39999389648</ele>
        <time>2013-04-21T12:49:37.000Z</time>
      </trkpt>
      <trkpt lat="45.86681" lon="6.14346">
        <ele>469</ele>
        <time>2013-04-21T12:49:38.000Z</time>
      </trkpt>
      <trkpt lat="45.86671" lon="6.14352">
        <ele>469</ele>
        <time>2013-04-21T12:49:41.000Z</time>
      </trkpt>
      <trkpt lat="45.86653" lon="6.14363">
        <ele>469.20001220703</ele>
        <time>2013-04-21T12:49:46.000Z</time>
      </trkpt>
      <trkpt lat="45.8665" lon="6.14365">
        <ele>469.60000610352</ele>
        <time>2013-04-21T12:49:47.000Z</time>
      </trkpt>
      <trkpt lat="45.86646" lon="6.14367">
        <ele>470</ele>
        <time>2013-04-21T12:49:48.000Z</time>
      </trkpt>
      <trkpt lat="45.86643" lon="6.14368">
        <ele>470.39999389648</ele>
        <time>2013-04-21T12:49:49.000Z</time>
      </trkpt>
      <trkpt lat="45.86639" lon="6.14369">
        <ele>470.39999389648</ele>
        <time>2013-04-21T12:49:50.000Z</time>
      </trkpt>
      <trkpt lat="45.86636" lon="6.14371">
        <ele>470</ele>
        <time>2013-04-21T12:49:51.000Z</time>
      </trkpt>
      <trkpt lat="45.86632" lon="6.14373">
        <ele>469.79998779297</ele>
        <time>2013-04-21T12:49:52.000Z</time>
      </trkpt>
      <trkpt lat="45.86628" lon="6.14374">
        <ele>469.39999389648</ele>
        <time>2013-04-21T12:49:53.000Z</time>
      </trkpt>
      <trkpt lat="45.86624" lon="6.14376">
        <ele>469.39999389648</ele>
        <time>2013-04-21T12:49:54.000Z</time>
      </trkpt>
      <trkpt lat="45.8662" lon="6.14377">
        <ele>469.79998779297</ele>
        <time>2013-04-21T12:49:55.000Z</time>
      </trkpt>
      <trkpt lat="45.86617" lon="6.14378">
        <ele>470</ele>
        <time>2013-04-21T12:49:56.000Z</time>
      </trkpt>
      <trkpt lat="45.86612" lon="6.1438">
        <ele>470.39999389648</ele>
        <time>2013-04-21T12:49:57.000Z</time>
      </trkpt>
      <trkpt lat="45.86608" lon="6.14381">
        <ele>470.79998779297</ele>
        <time>2013-04-21T12:49:58.000Z</time>
      </trkpt>
      <trkpt lat="45.86605" lon="6.14382">
        <ele>470.60000610352</ele>
        <time>2013-04-21T12:49:59.000Z</time>
      </trkpt>
      <trkpt lat="45.866" lon="6.14383">
        <ele>470.20001220703</ele>
        <time>2013-04-21T12:50:00.000Z</time>
      </trkpt>
      <trkpt lat="45.86596" lon="6.14384">
        <ele>469.79998779297</ele>
        <time>2013-04-21T12:50:01.000Z</time>
      </trkpt>
      <trkpt lat="45.86592" lon="6.14384">
        <ele>469.39999389648</ele>
        <time>2013-04-21T12:50:02.000Z</time>
      </trkpt>
      <trkpt lat="45.86588" lon="6.14384">
        <ele>469</ele>
        <time>2013-04-21T12:50:03.000Z</time>
      </trkpt>
      <trkpt lat="45.86584" lon="6.14385">
        <ele>469.20001220703</ele>
        <time>2013-04-21T12:50:04.000Z</time>
      </trkpt>
      <trkpt lat="45.8658" lon="6.14385">
        <ele>469.79998779297</ele>
        <time>2013-04-21T12:50:05.000Z</time>
      </trkpt>
      <trkpt lat="45.86576" lon="6.14386">
        <ele>470.20001220703</ele>
        <time>2013-04-21T12:50:06.000Z</time>
      </trkpt>
      <trkpt lat="45.86572" lon="6.14386">
        <ele>470.60000610352</ele>
        <time>2013-04-21T12:50:07.000Z</time>
      </trkpt>
      <trkpt lat="45.86568" lon="6.14386">
        <ele>471</ele>
        <time>2013-04-21T12:50:08.000Z</time>
      </trkpt>
      <trkpt lat="45.86552" lon="6.14388">
        <ele>471</ele>
        <time>2013-04-21T12:50:12.000Z</time>
      </trkpt>
      <trkpt lat="45.86532" lon="6.1439">
        <ele>471</ele>
        <time>2013-04-21T12:50:17.000Z</time>
      </trkpt>
      <trkpt lat="45.86528" lon="6.1439">
        <ele>471</ele>
        <time>2013-04-21T12:50:18.000Z</time>
      </trkpt>
      <trkpt lat="45.8651" lon="6.14389">
        <ele>471</ele>
        <time>2013-04-21T12:50:23.000Z</time>
      </trkpt>
      <trkpt lat="45.86506" lon="6.14389">
        <ele>471</ele>
        <time>2013-04-21T12:50:24.000Z</time>
      </trkpt>
      <trkpt lat="45.86487" lon="6.1439">
        <ele>471</ele>
        <time>2013-04-21T12:50:29.000Z</time>
      </trkpt>
      <trkpt lat="45.86483" lon="6.14389">
        <ele>471</ele>
        <time>2013-04-21T12:50:30.000Z</time>
      </trkpt>
      <trkpt lat="45.86463" lon="6.14388">
        <ele>471</ele>
        <time>2013-04-21T12:50:35.000Z</time>
      </trkpt>
      <trkpt lat="45.86459" lon="6.14388">
        <ele>470.60000610352</ele>
        <time>2013-04-21T12:50:36.000Z</time>
      </trkpt>
      <trkpt lat="45.86455" lon="6.14387">
        <ele>470.20001220703</ele>
        <time>2013-04-21T12:50:37.000Z</time>
      </trkpt>
      <trkpt lat="45.86451" lon="6.14386">
        <ele>469.79998779297</ele>
        <time>2013-04-21T12:50:38.000Z</time>
      </trkpt>
      <trkpt lat="45.86448" lon="6.14386">
        <ele>469.39999389648</ele>
        <time>2013-04-21T12:50:39.000Z</time>
      </trkpt>
      <trkpt lat="45.86444" lon="6.14386">
        <ele>469</ele>
        <time>2013-04-21T12:50:40.000Z</time>
      </trkpt>
      <trkpt lat="45.86441" lon="6.14386">
        <ele>469</ele>
        <time>2013-04-21T12:50:41.000Z</time>
      </trkpt>
      <trkpt lat="45.86437" lon="6.14385">
        <ele>469.60000610352</ele>
        <time>2013-04-21T12:50:42.000Z</time>
      </trkpt>
      <trkpt lat="45.86432" lon="6.14386">
        <ele>470</ele>
        <time>2013-04-21T12:50:43.000Z</time>
      </trkpt>
      <trkpt lat="45.86428" lon="6.14386">
        <ele>470.20001220703</ele>
        <time>2013-04-21T12:50:44.000Z</time>
      </trkpt>
      <trkpt lat="45.86424" lon="6.14385">
        <ele>470</ele>
        <time>2013-04-21T12:50:45.000Z</time>
      </trkpt>
      <trkpt lat="45.86421" lon="6.14385">
        <ele>469.60000610352</ele>
        <time>2013-04-21T12:50:46.000Z</time>
      </trkpt>
      <trkpt lat="45.86417" lon="6.14385">
        <ele>469.39999389648</ele>
        <time>2013-04-21T12:50:47.000Z</time>
      </trkpt>
      <trkpt lat="45.86413" lon="6.14386">
        <ele>469.20001220703</ele>
        <time>2013-04-21T12:50:48.000Z</time>
      </trkpt>
      <trkpt lat="45.86408" lon="6.14386">
        <ele>469</ele>
        <time>2013-04-21T12:50:49.000Z</time>
      </trkpt>
      <trkpt lat="45.86404" lon="6.14385">
        <ele>469.39999389648</ele>
        <time>2013-04-21T12:50:50.000Z</time>
      </trkpt>
      <trkpt lat="45.86402" lon="6.14384">
        <ele>469.79998779297</ele>
        <time>2013-04-21T12:50:51.000Z</time>
      </trkpt>
      <trkpt lat="45.86398" lon="6.14384">
        <ele>470.20001220703</ele>
        <time>2013-04-21T12:50:52.000Z</time>
      </trkpt>
      <trkpt lat="45.86394" lon="6.14383">
        <ele>470.60000610352</ele>
        <time>2013-04-21T12:50:53.000Z</time>
      </trkpt>
      <trkpt lat="45.8639" lon="6.14383">
        <ele>470.39999389648</ele>
        <time>2013-04-21T12:50:54.000Z</time>
      </trkpt>
      <trkpt lat="45.86386" lon="6.14384">
        <ele>470</ele>
        <time>2013-04-21T12:50:55.000Z</time>
      </trkpt>
      <trkpt lat="45.86382" lon="6.14383">
        <ele>469.79998779297</ele>
        <time>2013-04-21T12:50:56.000Z</time>
      </trkpt>
      <trkpt lat="45.86378" lon="6.14383">
        <ele>469.39999389648</ele>
        <time>2013-04-21T12:50:57.000Z</time>
      </trkpt>
      <trkpt lat="45.86374" lon="6.14383">
        <ele>469.20001220703</ele>
        <time>2013-04-21T12:50:58.000Z</time>
      </trkpt>
      <trkpt lat="45.8637" lon="6.14382">
        <ele>469.60000610352</ele>
        <time>2013-04-21T12:50:59.000Z</time>
      </trkpt>
      <trkpt lat="45.86366" lon="6.14381">
        <ele>470</ele>
        <time>2013-04-21T12:51:00.000Z</time>
      </trkpt>
      <trkpt lat="45.86363" lon="6.1438">
        <ele>470.39999389648</ele>
        <time>2013-04-21T12:51:01.000Z</time>
      </trkpt>
      <trkpt lat="45.8636" lon="6.14379">
        <ele>470.60000610352</ele>
        <time>2013-04-21T12:51:02.000Z</time>
      </trkpt>
      <trkpt lat="45.86356" lon="6.14379">
        <ele>470.20001220703</ele>
        <time>2013-04-21T12:51:03.000Z</time>
      </trkpt>
      <trkpt lat="45.86352" lon="6.14379">
        <ele>469.79998779297</ele>
        <time>2013-04-21T12:51:04.000Z</time>
      </trkpt>
      <trkpt lat="45.86348" lon="6.14379">
        <ele>469.60000610352</ele>
        <time>2013-04-21T12:51:05.000Z</time>
      </trkpt>
      <trkpt lat="45.86345" lon="6.14378">
        <ele>469.20001220703</ele>
        <time>2013-04-21T12:51:06.000Z</time>
      </trkpt>
      <trkpt lat="45.8634" lon="6.14377">
        <ele>469</ele>
        <time>2013-04-21T12:51:07.000Z</time>
      </trkpt>
      <trkpt lat="45.86337" lon="6.14376">
        <ele>469.39999389648</ele>
        <time>2013-04-21T12:51:08.000Z</time>
      </trkpt>
      <trkpt lat="45.86333" lon="6.14375">
        <ele>469.79998779297</ele>
        <time>2013-04-21T12:51:09.000Z</time>
      </trkpt>
      <trkpt lat="45.8633" lon="6.14373">
        <ele>470.20001220703</ele>
        <time>2013-04-21T12:51:10.000Z</time>
      </trkpt>
      <trkpt lat="45.86328" lon="6.14374">
        <ele>470.39999389648</ele>
        <time>2013-04-21T12:51:11.000Z</time>
      </trkpt>
      <trkpt lat="45.86322" lon="6.14373">
        <ele>470.39999389648</ele>
        <time>2013-04-21T12:51:12.000Z</time>
      </trkpt>
      <trkpt lat="45.86318" lon="6.14372">
        <ele>470</ele>
        <time>2013-04-21T12:51:13.000Z</time>
      </trkpt>
      <trkpt lat="45.86315" lon="6.1437">
        <ele>469.79998779297</ele>
        <time>2013-04-21T12:51:14.000Z</time>
      </trkpt>
      <trkpt lat="45.86311" lon="6.1437">
        <ele>469.39999389648</ele>
        <time>2013-04-21T12:51:15.000Z</time>
      </trkpt>
      <trkpt lat="45.86307" lon="6.1437">
        <ele>469.20001220703</ele>
        <time>2013-04-21T12:51:16.000Z</time>
      </trkpt>
      <trkpt lat="45.86303" lon="6.14368">
        <ele>469</ele>
        <time>2013-04-21T12:51:17.000Z</time>
      </trkpt>
      <trkpt lat="45.86284" lon="6.14363">
        <ele>469</ele>
        <time>2013-04-21T12:51:22.000Z</time>
      </trkpt>
      <trkpt lat="45.86264" lon="6.14357">
        <ele>469</ele>
        <time>2013-04-21T12:51:27.000Z</time>
      </trkpt>
      <trkpt lat="45.8626" lon="6.14356">
        <ele>469</ele>
        <time>2013-04-21T12:51:28.000Z</time>
      </trkpt>
      <trkpt lat="45.86243" lon="6.14346">
        <ele>469</ele>
        <time>2013-04-21T12:51:33.000Z</time>
      </trkpt>
      <trkpt lat="45.86225" lon="6.14334">
        <ele>469</ele>
        <time>2013-04-21T12:51:38.000Z</time>
      </trkpt>
      <trkpt lat="45.86211" lon="6.14315">
        <ele>469</ele>
        <time>2013-04-21T12:51:43.000Z</time>
      </trkpt>
      <trkpt lat="45.86196" lon="6.14299">
        <ele>469</ele>
        <time>2013-04-21T12:51:48.000Z</time>
      </trkpt>
      <trkpt lat="45.86192" lon="6.14295">
        <ele>469</ele>
        <time>2013-04-21T12:51:49.000Z</time>
      </trkpt>
      <trkpt lat="45.86177" lon="6.1429">
        <ele>469</ele>
        <time>2013-04-21T12:51:53.000Z</time>
      </trkpt>
      <trkpt lat="45.86169" lon="6.14287">
        <ele>469</ele>
        <time>2013-04-21T12:51:55.000Z</time>
      </trkpt>
      <trkpt lat="45.86155" lon="6.1428">
        <ele>469</ele>
        <time>2013-04-21T12:51:59.000Z</time>
      </trkpt>
      <trkpt lat="45.86147" lon="6.1428">
        <ele>469</ele>
        <time>2013-04-21T12:52:01.000Z</time>
      </trkpt>
      <trkpt lat="45.86144" lon="6.14279">
        <ele>469</ele>
        <time>2013-04-21T12:52:02.000Z</time>
      </trkpt>
      <trkpt lat="45.86124" lon="6.14268">
        <ele>469</ele>
        <time>2013-04-21T12:52:08.000Z</time>
      </trkpt>
      <trkpt lat="45.86107" lon="6.14258">
        <ele>469</ele>
        <time>2013-04-21T12:52:13.000Z</time>
      </trkpt>
      <trkpt lat="45.86096" lon="6.14252">
        <ele>469</ele>
        <time>2013-04-21T12:52:16.000Z</time>
      </trkpt>
      <trkpt lat="45.86077" lon="6.14243">
        <ele>469</ele>
        <time>2013-04-21T12:52:21.000Z</time>
      </trkpt>
      <trkpt lat="45.86073" lon="6.14241">
        <ele>469</ele>
        <time>2013-04-21T12:52:22.000Z</time>
      </trkpt>
      <trkpt lat="45.86055" lon="6.14235">
        <ele>469</ele>
        <time>2013-04-21T12:52:27.000Z</time>
      </trkpt>
      <trkpt lat="45.86051" lon="6.14233">
        <ele>469</ele>
        <time>2013-04-21T12:52:28.000Z</time>
      </trkpt>
      <trkpt lat="45.86033" lon="6.14226">
        <ele>469</ele>
        <time>2013-04-21T12:52:33.000Z</time>
      </trkpt>
      <trkpt lat="45.86029" lon="6.14226">
        <ele>469</ele>
        <time>2013-04-21T12:52:34.000Z</time>
      </trkpt>
      <trkpt lat="45.86011" lon="6.14224">
        <ele>469</ele>
        <time>2013-04-21T12:52:39.000Z</time>
      </trkpt>
      <trkpt lat="45.85992" lon="6.14227">
        <ele>469</ele>
        <time>2013-04-21T12:52:44.000Z</time>
      </trkpt>
      <trkpt lat="45.85984" lon="6.14229">
        <ele>469</ele>
        <time>2013-04-21T12:52:46.000Z</time>
      </trkpt>
      <trkpt lat="45.85967" lon="6.1424">
        <ele>469</ele>
        <time>2013-04-21T12:52:51.000Z</time>
      </trkpt>
      <trkpt lat="45.85957" lon="6.14253">
        <ele>469</ele>
        <time>2013-04-21T12:52:55.000Z</time>
      </trkpt>
      <trkpt lat="45.85947" lon="6.14272">
        <ele>469</ele>
        <time>2013-04-21T12:53:00.000Z</time>
      </trkpt>
      <trkpt lat="45.85932" lon="6.14288">
        <ele>469</ele>
        <time>2013-04-21T12:53:05.000Z</time>
      </trkpt>
      <trkpt lat="45.85918" lon="6.14293">
        <ele>469</ele>
        <time>2013-04-21T12:53:09.000Z</time>
      </trkpt>
      <trkpt lat="45.85897" lon="6.14298">
        <ele>469</ele>
        <time>2013-04-21T12:53:15.000Z</time>
      </trkpt>
      <trkpt lat="45.85879" lon="6.14307">
        <ele>469</ele>
        <time>2013-04-21T12:53:20.000Z</time>
      </trkpt>
      <trkpt lat="45.85862" lon="6.14319">
        <ele>469</ele>
        <time>2013-04-21T12:53:25.000Z</time>
      </trkpt>
      <trkpt lat="45.85845" lon="6.14333">
        <ele>469</ele>
        <time>2013-04-21T12:53:30.000Z</time>
      </trkpt>
      <trkpt lat="45.85831" lon="6.14349">
        <ele>469</ele>
        <time>2013-04-21T12:53:35.000Z</time>
      </trkpt>
      <trkpt lat="45.85817" lon="6.14366">
        <ele>469</ele>
        <time>2013-04-21T12:53:40.000Z</time>
      </trkpt>
      <trkpt lat="45.85815" lon="6.14369">
        <ele>469</ele>
        <time>2013-04-21T12:53:41.000Z</time>
      </trkpt>
      <trkpt lat="45.858" lon="6.14391">
        <ele>469</ele>
        <time>2013-04-21T12:53:47.000Z</time>
      </trkpt>
      <trkpt lat="45.85788" lon="6.14411">
        <ele>469</ele>
        <time>2013-04-21T12:53:52.000Z</time>
      </trkpt>
      <trkpt lat="45.85785" lon="6.14415">
        <ele>469</ele>
        <time>2013-04-21T12:53:53.000Z</time>
      </trkpt>
      <trkpt lat="45.85773" lon="6.14437">
        <ele>469</ele>
        <time>2013-04-21T12:53:58.000Z</time>
      </trkpt>
      <trkpt lat="45.85764" lon="6.14454">
        <ele>469.20001220703</ele>
        <time>2013-04-21T12:54:02.000Z</time>
      </trkpt>
      <trkpt lat="45.85762" lon="6.14457">
        <ele>469.79998779297</ele>
        <time>2013-04-21T12:54:03.000Z</time>
      </trkpt>
      <trkpt lat="45.8576" lon="6.14462">
        <ele>470.20001220703</ele>
        <time>2013-04-21T12:54:04.000Z</time>
      </trkpt>
      <trkpt lat="45.85758" lon="6.14466">
        <ele>470.60000610352</ele>
        <time>2013-04-21T12:54:05.000Z</time>
      </trkpt>
      <trkpt lat="45.85756" lon="6.1447">
        <ele>471</ele>
        <time>2013-04-21T12:54:06.000Z</time>
      </trkpt>
      <trkpt lat="45.85753" lon="6.14475">
        <ele>471.20001220703</ele>
        <time>2013-04-21T12:54:07.000Z</time>
      </trkpt>
      <trkpt lat="45.85743" lon="6.14495">
        <ele>471.20001220703</ele>
        <time>2013-04-21T12:54:12.000Z</time>
      </trkpt>
      <trkpt lat="45.85731" lon="6.14514">
        <ele>471.20001220703</ele>
        <time>2013-04-21T12:54:17.000Z</time>
      </trkpt>
      <trkpt lat="45.85725" lon="6.14523">
        <ele>471.20001220703</ele>
        <time>2013-04-21T12:54:19.000Z</time>
      </trkpt>
      <trkpt lat="45.85715" lon="6.14537">
        <ele>471.20001220703</ele>
        <time>2013-04-21T12:54:23.000Z</time>
      </trkpt>
      <trkpt lat="45.857" lon="6.14553">
        <ele>471.20001220703</ele>
        <time>2013-04-21T12:54:28.000Z</time>
      </trkpt>
      <trkpt lat="45.85685" lon="6.14569">
        <ele>471.20001220703</ele>
        <time>2013-04-21T12:54:33.000Z</time>
      </trkpt>
      <trkpt lat="45.85667" lon="6.14583">
        <ele>471.20001220703</ele>
        <time>2013-04-21T12:54:38.000Z</time>
      </trkpt>
      <trkpt lat="45.85654" lon="6.14592">
        <ele>471.20001220703</ele>
        <time>2013-04-21T12:54:42.000Z</time>
      </trkpt>
      <trkpt lat="45.85642" lon="6.146">
        <ele>471.20001220703</ele>
        <time>2013-04-21T12:54:46.000Z</time>
      </trkpt>
      <trkpt lat="45.85623" lon="6.14608">
        <ele>471.20001220703</ele>
        <time>2013-04-21T12:54:51.000Z</time>
      </trkpt>
      <trkpt lat="45.85606" lon="6.14616">
        <ele>471.20001220703</ele>
        <time>2013-04-21T12:54:56.000Z</time>
      </trkpt>
      <trkpt lat="45.85602" lon="6.14617">
        <ele>471.20001220703</ele>
        <time>2013-04-21T12:54:57.000Z</time>
      </trkpt>
      <trkpt lat="45.85582" lon="6.14624">
        <ele>471.20001220703</ele>
        <time>2013-04-21T12:55:02.000Z</time>
      </trkpt>
      <trkpt lat="45.85561" lon="6.14628">
        <ele>471.20001220703</ele>
        <time>2013-04-21T12:55:07.000Z</time>
      </trkpt>
      <trkpt lat="45.85557" lon="6.14628">
        <ele>471.20001220703</ele>
        <time>2013-04-21T12:55:08.000Z</time>
      </trkpt>
      <trkpt lat="45.85553" lon="6.14629">
        <ele>471.20001220703</ele>
        <time>2013-04-21T12:55:09.000Z</time>
      </trkpt>
      <trkpt lat="45.85533" lon="6.14633">
        <ele>471.20001220703</ele>
        <time>2013-04-21T12:55:14.000Z</time>
      </trkpt>
      <trkpt lat="45.85522" lon="6.14633">
        <ele>471.20001220703</ele>
        <time>2013-04-21T12:55:17.000Z</time>
      </trkpt>
      <trkpt lat="45.85509" lon="6.14635">
        <ele>471.20001220703</ele>
        <time>2013-04-21T12:55:20.000Z</time>
      </trkpt>
      <trkpt lat="45.85505" lon="6.14636">
        <ele>471.20001220703</ele>
        <time>2013-04-21T12:55:21.000Z</time>
      </trkpt>
      <trkpt lat="45.85485" lon="6.14637">
        <ele>471.20001220703</ele>
        <time>2013-04-21T12:55:26.000Z</time>
      </trkpt>
      <trkpt lat="45.85481" lon="6.14637">
        <ele>470.79998779297</ele>
        <time>2013-04-21T12:55:27.000Z</time>
      </trkpt>
      <trkpt lat="45.85477" lon="6.14638">
        <ele>470.39999389648</ele>
        <time>2013-04-21T12:55:28.000Z</time>
      </trkpt>
      <trkpt lat="45.85473" lon="6.14638">
        <ele>470</ele>
        <time>2013-04-21T12:55:29.000Z</time>
      </trkpt>
      <trkpt lat="45.85468" lon="6.14639">
        <ele>469.60000610352</ele>
        <time>2013-04-21T12:55:30.000Z</time>
      </trkpt>
      <trkpt lat="45.85463" lon="6.14639">
        <ele>469.20001220703</ele>
        <time>2013-04-21T12:55:31.000Z</time>
      </trkpt>
      <trkpt lat="45.85459" lon="6.14639">
        <ele>469</ele>
        <time>2013-04-21T12:55:32.000Z</time>
      </trkpt>
      <trkpt lat="45.8545" lon="6.14641">
        <ele>469</ele>
        <time>2013-04-21T12:55:34.000Z</time>
      </trkpt>
      <trkpt lat="45.85435" lon="6.14644">
        <ele>469</ele>
        <time>2013-04-21T12:55:38.000Z</time>
      </trkpt>
      <trkpt lat="45.85431" lon="6.14645">
        <ele>469</ele>
        <time>2013-04-21T12:55:39.000Z</time>
      </trkpt>
      <trkpt lat="45.85412" lon="6.1465">
        <ele>469</ele>
        <time>2013-04-21T12:55:44.000Z</time>
      </trkpt>
      <trkpt lat="45.85408" lon="6.14653">
        <ele>469</ele>
        <time>2013-04-21T12:55:45.000Z</time>
      </trkpt>
      <trkpt lat="45.85397" lon="6.14656">
        <ele>469.20001220703</ele>
        <time>2013-04-21T12:55:48.000Z</time>
      </trkpt>
      <trkpt lat="45.85393" lon="6.14658">
        <ele>469.60000610352</ele>
        <time>2013-04-21T12:55:49.000Z</time>
      </trkpt>
      <trkpt lat="45.85389" lon="6.1466">
        <ele>470</ele>
        <time>2013-04-21T12:55:50.000Z</time>
      </trkpt>
      <trkpt lat="45.85386" lon="6.14661">
        <ele>470.39999389648</ele>
        <time>2013-04-21T12:55:51.000Z</time>
      </trkpt>
      <trkpt lat="45.85382" lon="6.14663">
        <ele>470.20001220703</ele>
        <time>2013-04-21T12:55:52.000Z</time>
      </trkpt>
      <trkpt lat="45.85379" lon="6.14664">
        <ele>470</ele>
        <time>2013-04-21T12:55:53.000Z</time>
      </trkpt>
      <trkpt lat="45.85375" lon="6.14667">
        <ele>469.79998779297</ele>
        <time>2013-04-21T12:55:54.000Z</time>
      </trkpt>
      <trkpt lat="45.85372" lon="6.14669">
        <ele>469.60000610352</ele>
        <time>2013-04-21T12:55:55.000Z</time>
      </trkpt>
      <trkpt lat="45.85368" lon="6.1467">
        <ele>470</ele>
        <time>2013-04-21T12:55:56.000Z</time>
      </trkpt>
      <trkpt lat="45.85365" lon="6.14673">
        <ele>470.20001220703</ele>
        <time>2013-04-21T12:55:57.000Z</time>
      </trkpt>
      <trkpt lat="45.85361" lon="6.14676">
        <ele>470.60000610352</ele>
        <time>2013-04-21T12:55:58.000Z</time>
      </trkpt>
      <trkpt lat="45.85358" lon="6.14678">
        <ele>470.79998779297</ele>
        <time>2013-04-21T12:55:59.000Z</time>
      </trkpt>
      <trkpt lat="45.85354" lon="6.14681">
        <ele>471</ele>
        <time>2013-04-21T12:56:00.000Z</time>
      </trkpt>
      <trkpt lat="45.8534" lon="6.14693">
        <ele>471</ele>
        <time>2013-04-21T12:56:04.000Z</time>
      </trkpt>
      <trkpt lat="45.85326" lon="6.14708">
        <ele>471</ele>
        <time>2013-04-21T12:56:09.000Z</time>
      </trkpt>
      <trkpt lat="45.8532" lon="6.14713">
        <ele>470.79998779297</ele>
        <time>2013-04-21T12:56:11.000Z</time>
      </trkpt>
      <trkpt lat="45.85318" lon="6.14717">
        <ele>470.39999389648</ele>
        <time>2013-04-21T12:56:12.000Z</time>
      </trkpt>
      <trkpt lat="45.85315" lon="6.14719">
        <ele>470</ele>
        <time>2013-04-21T12:56:13.000Z</time>
      </trkpt>
      <trkpt lat="45.85311" lon="6.14722">
        <ele>469.60000610352</ele>
        <time>2013-04-21T12:56:14.000Z</time>
      </trkpt>
      <trkpt lat="45.85309" lon="6.14724">
        <ele>469.20001220703</ele>
        <time>2013-04-21T12:56:15.000Z</time>
      </trkpt>
      <trkpt lat="45.85306" lon="6.14727">
        <ele>468.79998779297</ele>
        <time>2013-04-21T12:56:16.000Z</time>
      </trkpt>
      <trkpt lat="45.853" lon="6.14732">
        <ele>468.79998779297</ele>
        <time>2013-04-21T12:56:18.000Z</time>
      </trkpt>
      <trkpt lat="45.85291" lon="6.14741">
        <ele>469.20001220703</ele>
        <time>2013-04-21T12:56:21.000Z</time>
      </trkpt>
      <trkpt lat="45.85288" lon="6.14744">
        <ele>469.60000610352</ele>
        <time>2013-04-21T12:56:22.000Z</time>
      </trkpt>
      <trkpt lat="45.85285" lon="6.14747">
        <ele>470</ele>
        <time>2013-04-21T12:56:23.000Z</time>
      </trkpt>
      <trkpt lat="45.85281" lon="6.14751">
        <ele>470.39999389648</ele>
        <time>2013-04-21T12:56:24.000Z</time>
      </trkpt>
      <trkpt lat="45.85278" lon="6.14754">
        <ele>470.79998779297</ele>
        <time>2013-04-21T12:56:25.000Z</time>
      </trkpt>
      <trkpt lat="45.85274" lon="6.14757">
        <ele>470.79998779297</ele>
        <time>2013-04-21T12:56:26.000Z</time>
      </trkpt>
      <trkpt lat="45.85267" lon="6.14763">
        <ele>470.79998779297</ele>
        <time>2013-04-21T12:56:28.000Z</time>
      </trkpt>
      <trkpt lat="45.85251" lon="6.14778">
        <ele>470.79998779297</ele>
        <time>2013-04-21T12:56:33.000Z</time>
      </trkpt>
      <trkpt lat="45.85237" lon="6.14794">
        <ele>470.79998779297</ele>
        <time>2013-04-21T12:56:38.000Z</time>
      </trkpt>
      <trkpt lat="45.85219" lon="6.1481">
        <ele>470.79998779297</ele>
        <time>2013-04-21T12:56:44.000Z</time>
      </trkpt>
      <trkpt lat="45.85215" lon="6.14814">
        <ele>470.79998779297</ele>
        <time>2013-04-21T12:56:45.000Z</time>
      </trkpt>
      <trkpt lat="45.85197" lon="6.14831">
        <ele>470.79998779297</ele>
        <time>2013-04-21T12:56:51.000Z</time>
      </trkpt>
      <trkpt lat="45.85184" lon="6.14843">
        <ele>470.79998779297</ele>
        <time>2013-04-21T12:56:55.000Z</time>
      </trkpt>
      <trkpt lat="45.85169" lon="6.14857">
        <ele>470.79998779297</ele>
        <time>2013-04-21T12:57:00.000Z</time>
      </trkpt>
      <trkpt lat="45.85166" lon="6.1486">
        <ele>470.79998779297</ele>
        <time>2013-04-21T12:57:01.000Z</time>
      </trkpt>
      <trkpt lat="45.85153" lon="6.14872">
        <ele>470.79998779297</ele>
        <time>2013-04-21T12:57:05.000Z</time>
      </trkpt>
      <trkpt lat="45.85137" lon="6.14888">
        <ele>470.79998779297</ele>
        <time>2013-04-21T12:57:10.000Z</time>
      </trkpt>
      <trkpt lat="45.85121" lon="6.14903">
        <ele>470.79998779297</ele>
        <time>2013-04-21T12:57:15.000Z</time>
      </trkpt>
      <trkpt lat="45.85112" lon="6.1491">
        <ele>470.79998779297</ele>
        <time>2013-04-21T12:57:18.000Z</time>
      </trkpt>
      <trkpt lat="45.85094" lon="6.14923">
        <ele>470.79998779297</ele>
        <time>2013-04-21T12:57:23.000Z</time>
      </trkpt>
      <trkpt lat="45.85077" lon="6.14934">
        <ele>470.79998779297</ele>
        <time>2013-04-21T12:57:28.000Z</time>
      </trkpt>
      <trkpt lat="45.85061" lon="6.14946">
        <ele>470.79998779297</ele>
        <time>2013-04-21T12:57:33.000Z</time>
      </trkpt>
      <trkpt lat="45.85043" lon="6.14957">
        <ele>470.79998779297</ele>
        <time>2013-04-21T12:57:38.000Z</time>
      </trkpt>
      <trkpt lat="45.85025" lon="6.14968">
        <ele>470.79998779297</ele>
        <time>2013-04-21T12:57:43.000Z</time>
      </trkpt>
      <trkpt lat="45.85021" lon="6.14969">
        <ele>470.60000610352</ele>
        <time>2013-04-21T12:57:44.000Z</time>
      </trkpt>
      <trkpt lat="45.85004" lon="6.1498">
        <ele>470.60000610352</ele>
        <time>2013-04-21T12:57:49.000Z</time>
      </trkpt>
      <trkpt lat="45.84986" lon="6.14992">
        <ele>470.60000610352</ele>
        <time>2013-04-21T12:57:54.000Z</time>
      </trkpt>
      <trkpt lat="45.84967" lon="6.15004">
        <ele>470.60000610352</ele>
        <time>2013-04-21T12:57:59.000Z</time>
      </trkpt>
      <trkpt lat="45.84961" lon="6.15009">
        <ele>470.60000610352</ele>
        <time>2013-04-21T12:58:01.000Z</time>
      </trkpt>
      <trkpt lat="45.84957" lon="6.15011">
        <ele>470.60000610352</ele>
        <time>2013-04-21T12:58:02.000Z</time>
      </trkpt>
      <trkpt lat="45.84947" lon="6.15018">
        <ele>470.60000610352</ele>
        <time>2013-04-21T12:58:05.000Z</time>
      </trkpt>
      <trkpt lat="45.84928" lon="6.15028">
        <ele>470.60000610352</ele>
        <time>2013-04-21T12:58:10.000Z</time>
      </trkpt>
      <trkpt lat="45.84926" lon="6.1503">
        <ele>470.60000610352</ele>
        <time>2013-04-21T12:58:11.000Z</time>
      </trkpt>
      <trkpt lat="45.84912" lon="6.15039">
        <ele>470.60000610352</ele>
        <time>2013-04-21T12:58:15.000Z</time>
      </trkpt>
      <trkpt lat="45.84895" lon="6.15049">
        <ele>470.60000610352</ele>
        <time>2013-04-21T12:58:20.000Z</time>
      </trkpt>
      <trkpt lat="45.84892" lon="6.15052">
        <ele>470.60000610352</ele>
        <time>2013-04-21T12:58:21.000Z</time>
      </trkpt>
      <trkpt lat="45.84885" lon="6.15057">
        <ele>469</ele>
        <time>2013-04-21T12:58:23.000Z</time>
      </trkpt>
      <trkpt lat="45.84874" lon="6.15064">
        <ele>469</ele>
        <time>2013-04-21T12:58:26.000Z</time>
      </trkpt>
      <trkpt lat="45.84856" lon="6.15076">
        <ele>469</ele>
        <time>2013-04-21T12:58:31.000Z</time>
      </trkpt>
      <trkpt lat="45.84839" lon="6.15087">
        <ele>469.20001220703</ele>
        <time>2013-04-21T12:58:36.000Z</time>
      </trkpt>
      <trkpt lat="45.84835" lon="6.1509">
        <ele>469.60000610352</ele>
        <time>2013-04-21T12:58:37.000Z</time>
      </trkpt>
      <trkpt lat="45.84832" lon="6.15092">
        <ele>470</ele>
        <time>2013-04-21T12:58:38.000Z</time>
      </trkpt>
      <trkpt lat="45.84828" lon="6.15094">
        <ele>470.60000610352</ele>
        <time>2013-04-21T12:58:39.000Z</time>
      </trkpt>
      <trkpt lat="45.84823" lon="6.15097">
        <ele>471</ele>
        <time>2013-04-21T12:58:40.000Z</time>
      </trkpt>
      <trkpt lat="45.8481" lon="6.15105">
        <ele>471</ele>
        <time>2013-04-21T12:58:44.000Z</time>
      </trkpt>
      <trkpt lat="45.84793" lon="6.15117">
        <ele>471</ele>
        <time>2013-04-21T12:58:49.000Z</time>
      </trkpt>
      <trkpt lat="45.84778" lon="6.15128">
        <ele>471</ele>
        <time>2013-04-21T12:58:53.000Z</time>
      </trkpt>
      <trkpt lat="45.84763" lon="6.15137">
        <ele>471</ele>
        <time>2013-04-21T12:58:57.000Z</time>
      </trkpt>
      <trkpt lat="45.8475" lon="6.15147">
        <ele>471</ele>
        <time>2013-04-21T12:59:01.000Z</time>
      </trkpt>
      <trkpt lat="45.84732" lon="6.1516">
        <ele>471</ele>
        <time>2013-04-21T12:59:06.000Z</time>
      </trkpt>
      <trkpt lat="45.84728" lon="6.15162">
        <ele>471</ele>
        <time>2013-04-21T12:59:07.000Z</time>
      </trkpt>
      <trkpt lat="45.84711" lon="6.15174">
        <ele>471</ele>
        <time>2013-04-21T12:59:12.000Z</time>
      </trkpt>
      <trkpt lat="45.84697" lon="6.15183">
        <ele>471</ele>
        <time>2013-04-21T12:59:16.000Z</time>
      </trkpt>
      <trkpt lat="45.84681" lon="6.15191">
        <ele>471</ele>
        <time>2013-04-21T12:59:21.000Z</time>
      </trkpt>
      <trkpt lat="45.84668" lon="6.15196">
        <ele>471</ele>
        <time>2013-04-21T12:59:25.000Z</time>
      </trkpt>
      <trkpt lat="45.84655" lon="6.15206">
        <ele>471</ele>
        <time>2013-04-21T12:59:29.000Z</time>
      </trkpt>
      <trkpt lat="45.84641" lon="6.15214">
        <ele>471</ele>
        <time>2013-04-21T12:59:33.000Z</time>
      </trkpt>
      <trkpt lat="45.84624" lon="6.15227">
        <ele>471</ele>
        <time>2013-04-21T12:59:38.000Z</time>
      </trkpt>
      <trkpt lat="45.84616" lon="6.15232">
        <ele>471</ele>
        <time>2013-04-21T12:59:40.000Z</time>
      </trkpt>
      <trkpt lat="45.84599" lon="6.15246">
        <ele>471</ele>
        <time>2013-04-21T12:59:45.000Z</time>
      </trkpt>
      <trkpt lat="45.84592" lon="6.15252">
        <ele>471</ele>
        <time>2013-04-21T12:59:47.000Z</time>
      </trkpt>
      <trkpt lat="45.84589" lon="6.15254">
        <ele>471</ele>
        <time>2013-04-21T12:59:48.000Z</time>
      </trkpt>
      <trkpt lat="45.8457" lon="6.1527">
        <ele>471</ele>
        <time>2013-04-21T12:59:54.000Z</time>
      </trkpt>
      <trkpt lat="45.84552" lon="6.15285">
        <ele>471</ele>
        <time>2013-04-21T13:00:00.000Z</time>
      </trkpt>
      <trkpt lat="45.84548" lon="6.15288">
        <ele>471.39999389648</ele>
        <time>2013-04-21T13:00:01.000Z</time>
      </trkpt>
      <trkpt lat="45.84544" lon="6.15292">
        <ele>471.79998779297</ele>
        <time>2013-04-21T13:00:02.000Z</time>
      </trkpt>
      <trkpt lat="45.84541" lon="6.15295">
        <ele>472.20001220703</ele>
        <time>2013-04-21T13:00:03.000Z</time>
      </trkpt>
      <trkpt lat="45.84538" lon="6.15298">
        <ele>472.60000610352</ele>
        <time>2013-04-21T13:00:04.000Z</time>
      </trkpt>
      <trkpt lat="45.84535" lon="6.15301">
        <ele>472.79998779297</ele>
        <time>2013-04-21T13:00:05.000Z</time>
      </trkpt>
      <trkpt lat="45.84532" lon="6.15304">
        <ele>473.20001220703</ele>
        <time>2013-04-21T13:00:06.000Z</time>
      </trkpt>
      <trkpt lat="45.84513" lon="6.1532">
        <ele>473.20001220703</ele>
        <time>2013-04-21T13:00:12.000Z</time>
      </trkpt>
      <trkpt lat="45.84498" lon="6.15335">
        <ele>473.20001220703</ele>
        <time>2013-04-21T13:00:17.000Z</time>
      </trkpt>
      <trkpt lat="45.84495" lon="6.15338">
        <ele>473.20001220703</ele>
        <time>2013-04-21T13:00:18.000Z</time>
      </trkpt>
      <trkpt lat="45.84479" lon="6.15359">
        <ele>473.20001220703</ele>
        <time>2013-04-21T13:00:24.000Z</time>
      </trkpt>
      <trkpt lat="45.84466" lon="6.15376">
        <ele>473.20001220703</ele>
        <time>2013-04-21T13:00:29.000Z</time>
      </trkpt>
      <trkpt lat="45.84453" lon="6.15395">
        <ele>473.20001220703</ele>
        <time>2013-04-21T13:00:34.000Z</time>
      </trkpt>
      <trkpt lat="45.8445" lon="6.15399">
        <ele>473.20001220703</ele>
        <time>2013-04-21T13:00:35.000Z</time>
      </trkpt>
      <trkpt lat="45.84437" lon="6.15417">
        <ele>473.20001220703</ele>
        <time>2013-04-21T13:00:40.000Z</time>
      </trkpt>
      <trkpt lat="45.84429" lon="6.15421">
        <ele>473.20001220703</ele>
        <time>2013-04-21T13:00:42.000Z</time>
      </trkpt>
      <trkpt lat="45.84426" lon="6.15419">
        <ele>473.20001220703</ele>
        <time>2013-04-21T13:00:43.000Z</time>
      </trkpt>
      <trkpt lat="45.84419" lon="6.15404">
        <ele>473.20001220703</ele>
        <time>2013-04-21T13:00:46.000Z</time>
      </trkpt>
      <trkpt lat="45.84417" lon="6.15399">
        <ele>473.20001220703</ele>
        <time>2013-04-21T13:00:47.000Z</time>
      </trkpt>
      <trkpt lat="45.84415" lon="6.15379">
        <ele>473.20001220703</ele>
        <time>2013-04-21T13:00:51.000Z</time>
      </trkpt>
      <trkpt lat="45.84414" lon="6.1535">
        <ele>473.20001220703</ele>
        <time>2013-04-21T13:00:56.000Z</time>
      </trkpt>
      <trkpt lat="45.84414" lon="6.15339">
        <ele>473.20001220703</ele>
        <time>2013-04-21T13:00:58.000Z</time>
      </trkpt>
      <trkpt lat="45.84413" lon="6.15313">
        <ele>473.20001220703</ele>
        <time>2013-04-21T13:01:03.000Z</time>
      </trkpt>
      <trkpt lat="45.84412" lon="6.15308">
        <ele>473.20001220703</ele>
        <time>2013-04-21T13:01:04.000Z</time>
      </trkpt>
      <trkpt lat="45.8441" lon="6.15282">
        <ele>473.20001220703</ele>
        <time>2013-04-21T13:01:09.000Z</time>
      </trkpt>
      <trkpt lat="45.84409" lon="6.15278">
        <ele>473.20001220703</ele>
        <time>2013-04-21T13:01:10.000Z</time>
      </trkpt>
      <trkpt lat="45.84399" lon="6.15254">
        <ele>473.20001220703</ele>
        <time>2013-04-21T13:01:15.000Z</time>
      </trkpt>
      <trkpt lat="45.84388" lon="6.15233">
        <ele>473.20001220703</ele>
        <time>2013-04-21T13:01:20.000Z</time>
      </trkpt>
      <trkpt lat="45.84386" lon="6.15229">
        <ele>473.20001220703</ele>
        <time>2013-04-21T13:01:21.000Z</time>
      </trkpt>
      <trkpt lat="45.84382" lon="6.15221">
        <ele>473.39999389648</ele>
        <time>2013-04-21T13:01:23.000Z</time>
      </trkpt>
      <trkpt lat="45.8438" lon="6.15216">
        <ele>473.79998779297</ele>
        <time>2013-04-21T13:01:24.000Z</time>
      </trkpt>
      <trkpt lat="45.84377" lon="6.15213">
        <ele>474.20001220703</ele>
        <time>2013-04-21T13:01:25.000Z</time>
      </trkpt>
      <trkpt lat="45.84375" lon="6.15209">
        <ele>474.60000610352</ele>
        <time>2013-04-21T13:01:26.000Z</time>
      </trkpt>
      <trkpt lat="45.84373" lon="6.15204">
        <ele>475</ele>
        <time>2013-04-21T13:01:27.000Z</time>
      </trkpt>
      <trkpt lat="45.84371" lon="6.15199">
        <ele>475.20001220703</ele>
        <time>2013-04-21T13:01:28.000Z</time>
      </trkpt>
      <trkpt lat="45.8436" lon="6.15177">
        <ele>475.20001220703</ele>
        <time>2013-04-21T13:01:33.000Z</time>
      </trkpt>
      <trkpt lat="45.84348" lon="6.15157">
        <ele>475.39999389648</ele>
        <time>2013-04-21T13:01:38.000Z</time>
      </trkpt>
      <trkpt lat="45.84345" lon="6.15155">
        <ele>476</ele>
        <time>2013-04-21T13:01:39.000Z</time>
      </trkpt>
      <trkpt lat="45.84342" lon="6.15153">
        <ele>476.39999389648</ele>
        <time>2013-04-21T13:01:40.000Z</time>
      </trkpt>
      <trkpt lat="45.84339" lon="6.15153">
        <ele>476.79998779297</ele>
        <time>2013-04-21T13:01:41.000Z</time>
      </trkpt>
      <trkpt lat="45.84335" lon="6.15153">
        <ele>477.39999389648</ele>
        <time>2013-04-21T13:01:42.000Z</time>
      </trkpt>
      <trkpt lat="45.84331" lon="6.15155">
        <ele>477.39999389648</ele>
        <time>2013-04-21T13:01:43.000Z</time>
      </trkpt>
      <trkpt lat="45.8432" lon="6.15165">
        <ele>477.39999389648</ele>
        <time>2013-04-21T13:01:47.000Z</time>
      </trkpt>
      <trkpt lat="45.84308" lon="6.15178">
        <ele>477.39999389648</ele>
        <time>2013-04-21T13:01:51.000Z</time>
      </trkpt>
      <trkpt lat="45.84293" lon="6.15194">
        <ele>477.39999389648</ele>
        <time>2013-04-21T13:01:56.000Z</time>
      </trkpt>
      <trkpt lat="45.84279" lon="6.15209">
        <ele>477.39999389648</ele>
        <time>2013-04-21T13:02:01.000Z</time>
      </trkpt>
      <trkpt lat="45.84276" lon="6.15212">
        <ele>477.39999389648</ele>
        <time>2013-04-21T13:02:02.000Z</time>
      </trkpt>
      <trkpt lat="45.84265" lon="6.15225">
        <ele>477.60000610352</ele>
        <time>2013-04-21T13:02:06.000Z</time>
      </trkpt>
      <trkpt lat="45.84262" lon="6.15229">
        <ele>478</ele>
        <time>2013-04-21T13:02:07.000Z</time>
      </trkpt>
      <trkpt lat="45.8426" lon="6.15232">
        <ele>478.39999389648</ele>
        <time>2013-04-21T13:02:08.000Z</time>
      </trkpt>
      <trkpt lat="45.84257" lon="6.15235">
        <ele>479</ele>
        <time>2013-04-21T13:02:09.000Z</time>
      </trkpt>
      <trkpt lat="45.84255" lon="6.15239">
        <ele>479.39999389648</ele>
        <time>2013-04-21T13:02:10.000Z</time>
      </trkpt>
      <trkpt lat="45.84253" lon="6.15242">
        <ele>479.60000610352</ele>
        <time>2013-04-21T13:02:11.000Z</time>
      </trkpt>
      <trkpt lat="45.84242" lon="6.15257">
        <ele>479.60000610352</ele>
        <time>2013-04-21T13:02:15.000Z</time>
      </trkpt>
      <trkpt lat="45.84232" lon="6.15272">
        <ele>479.60000610352</ele>
        <time>2013-04-21T13:02:19.000Z</time>
      </trkpt>
      <trkpt lat="45.84217" lon="6.15292">
        <ele>479.60000610352</ele>
        <time>2013-04-21T13:02:25.000Z</time>
      </trkpt>
      <trkpt lat="45.84204" lon="6.1531">
        <ele>479.60000610352</ele>
        <time>2013-04-21T13:02:30.000Z</time>
      </trkpt>
      <trkpt lat="45.84189" lon="6.15331">
        <ele>479.60000610352</ele>
        <time>2013-04-21T13:02:36.000Z</time>
      </trkpt>
      <trkpt lat="45.84177" lon="6.15346">
        <ele>479.60000610352</ele>
        <time>2013-04-21T13:02:40.000Z</time>
      </trkpt>
      <trkpt lat="45.84163" lon="6.15364">
        <ele>479.60000610352</ele>
        <time>2013-04-21T13:02:45.000Z</time>
      </trkpt>
      <trkpt lat="45.84147" lon="6.15385">
        <ele>479.60000610352</ele>
        <time>2013-04-21T13:02:51.000Z</time>
      </trkpt>
      <trkpt lat="45.84133" lon="6.15403">
        <ele>479.60000610352</ele>
        <time>2013-04-21T13:02:56.000Z</time>
      </trkpt>
      <trkpt lat="45.8413" lon="6.15407">
        <ele>479.60000610352</ele>
        <time>2013-04-21T13:02:57.000Z</time>
      </trkpt>
      <trkpt lat="45.84117" lon="6.15425">
        <ele>479.60000610352</ele>
        <time>2013-04-21T13:03:02.000Z</time>
      </trkpt>
      <trkpt lat="45.84114" lon="6.15429">
        <ele>479.60000610352</ele>
        <time>2013-04-21T13:03:03.000Z</time>
      </trkpt>
      <trkpt lat="45.841" lon="6.15446">
        <ele>479.60000610352</ele>
        <time>2013-04-21T13:03:08.000Z</time>
      </trkpt>
      <trkpt lat="45.84093" lon="6.15455">
        <ele>479.60000610352</ele>
        <time>2013-04-21T13:03:11.000Z</time>
      </trkpt>
      <trkpt lat="45.84081" lon="6.1547">
        <ele>479.60000610352</ele>
        <time>2013-04-21T13:03:15.000Z</time>
      </trkpt>
      <trkpt lat="45.84069" lon="6.15484">
        <ele>479.39999389648</ele>
        <time>2013-04-21T13:03:19.000Z</time>
      </trkpt>
      <trkpt lat="45.84066" lon="6.15488">
        <ele>479</ele>
        <time>2013-04-21T13:03:20.000Z</time>
      </trkpt>
      <trkpt lat="45.84063" lon="6.15492">
        <ele>478.60000610352</ele>
        <time>2013-04-21T13:03:21.000Z</time>
      </trkpt>
      <trkpt lat="45.8406" lon="6.15496">
        <ele>478.60000610352</ele>
        <time>2013-04-21T13:03:22.000Z</time>
      </trkpt>
      <trkpt lat="45.84058" lon="6.15499">
        <ele>478.79998779297</ele>
        <time>2013-04-21T13:03:23.000Z</time>
      </trkpt>
      <trkpt lat="45.84055" lon="6.15503">
        <ele>479</ele>
        <time>2013-04-21T13:03:24.000Z</time>
      </trkpt>
      <trkpt lat="45.84052" lon="6.15507">
        <ele>479.39999389648</ele>
        <time>2013-04-21T13:03:25.000Z</time>
      </trkpt>
      <trkpt lat="45.84048" lon="6.15511">
        <ele>479.60000610352</ele>
        <time>2013-04-21T13:03:26.000Z</time>
      </trkpt>
      <trkpt lat="45.84046" lon="6.15515">
        <ele>479.79998779297</ele>
        <time>2013-04-21T13:03:27.000Z</time>
      </trkpt>
      <trkpt lat="45.84042" lon="6.15519">
        <ele>479.79998779297</ele>
        <time>2013-04-21T13:03:28.000Z</time>
      </trkpt>
      <trkpt lat="45.84027" lon="6.15536">
        <ele>479.79998779297</ele>
        <time>2013-04-21T13:03:33.000Z</time>
      </trkpt>
      <trkpt lat="45.84012" lon="6.15553">
        <ele>479.79998779297</ele>
        <time>2013-04-21T13:03:38.000Z</time>
      </trkpt>
      <trkpt lat="45.83999" lon="6.15571">
        <ele>479.79998779297</ele>
        <time>2013-04-21T13:03:43.000Z</time>
      </trkpt>
      <trkpt lat="45.83997" lon="6.15574">
        <ele>479.79998779297</ele>
        <time>2013-04-21T13:03:44.000Z</time>
      </trkpt>
      <trkpt lat="45.83986" lon="6.15589">
        <ele>479.79998779297</ele>
        <time>2013-04-21T13:03:48.000Z</time>
      </trkpt>
      <trkpt lat="45.83978" lon="6.15598">
        <ele>479.79998779297</ele>
        <time>2013-04-21T13:03:51.000Z</time>
      </trkpt>
      <trkpt lat="45.83972" lon="6.15605">
        <ele>479.79998779297</ele>
        <time>2013-04-21T13:03:53.000Z</time>
      </trkpt>
      <trkpt lat="45.83958" lon="6.15624">
        <ele>479.79998779297</ele>
        <time>2013-04-21T13:03:58.000Z</time>
      </trkpt>
      <trkpt lat="45.83944" lon="6.15643">
        <ele>479.79998779297</ele>
        <time>2013-04-21T13:04:03.000Z</time>
      </trkpt>
      <trkpt lat="45.83938" lon="6.1565">
        <ele>479.79998779297</ele>
        <time>2013-04-21T13:04:05.000Z</time>
      </trkpt>
      <trkpt lat="45.83924" lon="6.15668">
        <ele>479.79998779297</ele>
        <time>2013-04-21T13:04:10.000Z</time>
      </trkpt>
      <trkpt lat="45.83918" lon="6.15675">
        <ele>479.79998779297</ele>
        <time>2013-04-21T13:04:12.000Z</time>
      </trkpt>
      <trkpt lat="45.83904" lon="6.15693">
        <ele>479.79998779297</ele>
        <time>2013-04-21T13:04:17.000Z</time>
      </trkpt>
      <trkpt lat="45.8389" lon="6.15711">
        <ele>479.79998779297</ele>
        <time>2013-04-21T13:04:22.000Z</time>
      </trkpt>
      <trkpt lat="45.83886" lon="6.15714">
        <ele>479.79998779297</ele>
        <time>2013-04-21T13:04:23.000Z</time>
      </trkpt>
      <trkpt lat="45.83872" lon="6.15733">
        <ele>479.79998779297</ele>
        <time>2013-04-21T13:04:28.000Z</time>
      </trkpt>
      <trkpt lat="45.83869" lon="6.15736">
        <ele>479.79998779297</ele>
        <time>2013-04-21T13:04:29.000Z</time>
      </trkpt>
      <trkpt lat="45.83854" lon="6.15755">
        <ele>479.79998779297</ele>
        <time>2013-04-21T13:04:34.000Z</time>
      </trkpt>
      <trkpt lat="45.83852" lon="6.15758">
        <ele>479.79998779297</ele>
        <time>2013-04-21T13:04:35.000Z</time>
      </trkpt>
      <trkpt lat="45.83837" lon="6.15777">
        <ele>479.79998779297</ele>
        <time>2013-04-21T13:04:40.000Z</time>
      </trkpt>
      <trkpt lat="45.83822" lon="6.15795">
        <ele>479.79998779297</ele>
        <time>2013-04-21T13:04:45.000Z</time>
      </trkpt>
      <trkpt lat="45.8382" lon="6.15798">
        <ele>479.79998779297</ele>
        <time>2013-04-21T13:04:46.000Z</time>
      </trkpt>
      <trkpt lat="45.83804" lon="6.15816">
        <ele>479.79998779297</ele>
        <time>2013-04-21T13:04:51.000Z</time>
      </trkpt>
      <trkpt lat="45.8379" lon="6.15834">
        <ele>479.79998779297</ele>
        <time>2013-04-21T13:04:56.000Z</time>
      </trkpt>
      <trkpt lat="45.83787" lon="6.15837">
        <ele>479.79998779297</ele>
        <time>2013-04-21T13:04:57.000Z</time>
      </trkpt>
      <trkpt lat="45.83776" lon="6.15852">
        <ele>479.79998779297</ele>
        <time>2013-04-21T13:05:01.000Z</time>
      </trkpt>
      <trkpt lat="45.8377" lon="6.1586">
        <ele>479.79998779297</ele>
        <time>2013-04-21T13:05:03.000Z</time>
      </trkpt>
      <trkpt lat="45.83756" lon="6.15878">
        <ele>479.79998779297</ele>
        <time>2013-04-21T13:05:08.000Z</time>
      </trkpt>
      <trkpt lat="45.83754" lon="6.15881">
        <ele>479.79998779297</ele>
        <time>2013-04-21T13:05:09.000Z</time>
      </trkpt>
      <trkpt lat="45.83741" lon="6.15899">
        <ele>479.79998779297</ele>
        <time>2013-04-21T13:05:14.000Z</time>
      </trkpt>
      <trkpt lat="45.83738" lon="6.15903">
        <ele>479.79998779297</ele>
        <time>2013-04-21T13:05:15.000Z</time>
      </trkpt>
      <trkpt lat="45.83729" lon="6.15914">
        <ele>481.39999389648</ele>
        <time>2013-04-21T13:05:18.000Z</time>
      </trkpt>
      <trkpt lat="45.83723" lon="6.15922">
        <ele>481.39999389648</ele>
        <time>2013-04-21T13:05:20.000Z</time>
      </trkpt>
      <trkpt lat="45.83711" lon="6.15936">
        <ele>481.39999389648</ele>
        <time>2013-04-21T13:05:24.000Z</time>
      </trkpt>
      <trkpt lat="45.83697" lon="6.15954">
        <ele>481.39999389648</ele>
        <time>2013-04-21T13:05:29.000Z</time>
      </trkpt>
      <trkpt lat="45.83692" lon="6.15961">
        <ele>481.39999389648</ele>
        <time>2013-04-21T13:05:31.000Z</time>
      </trkpt>
      <trkpt lat="45.83678" lon="6.15978">
        <ele>481.39999389648</ele>
        <time>2013-04-21T13:05:36.000Z</time>
      </trkpt>
      <trkpt lat="45.83675" lon="6.15982">
        <ele>481.39999389648</ele>
        <time>2013-04-21T13:05:37.000Z</time>
      </trkpt>
      <trkpt lat="45.83661" lon="6.15999">
        <ele>481.39999389648</ele>
        <time>2013-04-21T13:05:42.000Z</time>
      </trkpt>
      <trkpt lat="45.83655" lon="6.16006">
        <ele>481.39999389648</ele>
        <time>2013-04-21T13:05:44.000Z</time>
      </trkpt>
      <trkpt lat="45.83641" lon="6.16025">
        <ele>481.39999389648</ele>
        <time>2013-04-21T13:05:49.000Z</time>
      </trkpt>
      <trkpt lat="45.83633" lon="6.16036">
        <ele>481.39999389648</ele>
        <time>2013-04-21T13:05:52.000Z</time>
      </trkpt>
      <trkpt lat="45.8363" lon="6.16039">
        <ele>481.60000610352</ele>
        <time>2013-04-21T13:05:53.000Z</time>
      </trkpt>
      <trkpt lat="45.83627" lon="6.16043">
        <ele>482.20001220703</ele>
        <time>2013-04-21T13:05:54.000Z</time>
      </trkpt>
      <trkpt lat="45.83625" lon="6.16046">
        <ele>482.60000610352</ele>
        <time>2013-04-21T13:05:55.000Z</time>
      </trkpt>
      <trkpt lat="45.83622" lon="6.1605">
        <ele>483</ele>
        <time>2013-04-21T13:05:56.000Z</time>
      </trkpt>
      <trkpt lat="45.8362" lon="6.16054">
        <ele>483.39999389648</ele>
        <time>2013-04-21T13:05:57.000Z</time>
      </trkpt>
      <trkpt lat="45.83618" lon="6.16057">
        <ele>483.39999389648</ele>
        <time>2013-04-21T13:05:58.000Z</time>
      </trkpt>
      <trkpt lat="45.83608" lon="6.1608">
        <ele>483.39999389648</ele>
        <time>2013-04-21T13:06:03.000Z</time>
      </trkpt>
      <trkpt lat="45.83595" lon="6.16091">
        <ele>483.39999389648</ele>
        <time>2013-04-21T13:06:07.000Z</time>
      </trkpt>
      <trkpt lat="45.83579" lon="6.16102">
        <ele>483.39999389648</ele>
        <time>2013-04-21T13:06:12.000Z</time>
      </trkpt>
      <trkpt lat="45.83565" lon="6.16121">
        <ele>483.39999389648</ele>
        <time>2013-04-21T13:06:17.000Z</time>
      </trkpt>
      <trkpt lat="45.83552" lon="6.16141">
        <ele>483.39999389648</ele>
        <time>2013-04-21T13:06:22.000Z</time>
      </trkpt>
      <trkpt lat="45.8355" lon="6.16145">
        <ele>483.39999389648</ele>
        <time>2013-04-21T13:06:23.000Z</time>
      </trkpt>
      <trkpt lat="45.83535" lon="6.16163">
        <ele>483.39999389648</ele>
        <time>2013-04-21T13:06:28.000Z</time>
      </trkpt>
      <trkpt lat="45.83532" lon="6.16166">
        <ele>483.39999389648</ele>
        <time>2013-04-21T13:06:29.000Z</time>
      </trkpt>
      <trkpt lat="45.83518" lon="6.16186">
        <ele>483.39999389648</ele>
        <time>2013-04-21T13:06:34.000Z</time>
      </trkpt>
      <trkpt lat="45.83504" lon="6.16204">
        <ele>483.39999389648</ele>
        <time>2013-04-21T13:06:39.000Z</time>
      </trkpt>
      <trkpt lat="45.83501" lon="6.16208">
        <ele>483.39999389648</ele>
        <time>2013-04-21T13:06:40.000Z</time>
      </trkpt>
      <trkpt lat="45.83496" lon="6.16216">
        <ele>483.60000610352</ele>
        <time>2013-04-21T13:06:42.000Z</time>
      </trkpt>
      <trkpt lat="45.83493" lon="6.1622">
        <ele>484</ele>
        <time>2013-04-21T13:06:43.000Z</time>
      </trkpt>
      <trkpt lat="45.8349" lon="6.16223">
        <ele>484.39999389648</ele>
        <time>2013-04-21T13:06:44.000Z</time>
      </trkpt>
      <trkpt lat="45.83488" lon="6.16227">
        <ele>485</ele>
        <time>2013-04-21T13:06:45.000Z</time>
      </trkpt>
      <trkpt lat="45.83485" lon="6.1623">
        <ele>485.39999389648</ele>
        <time>2013-04-21T13:06:46.000Z</time>
      </trkpt>
      <trkpt lat="45.83483" lon="6.16233">
        <ele>485.60000610352</ele>
        <time>2013-04-21T13:06:47.000Z</time>
      </trkpt>
      <trkpt lat="45.83477" lon="6.16245">
        <ele>485.60000610352</ele>
        <time>2013-04-21T13:06:50.000Z</time>
      </trkpt>
      <trkpt lat="45.83478" lon="6.16255">
        <ele>485.60000610352</ele>
        <time>2013-04-21T13:06:52.000Z</time>
      </trkpt>
      <trkpt lat="45.83483" lon="6.16265">
        <ele>485.60000610352</ele>
        <time>2013-04-21T13:06:54.000Z</time>
      </trkpt>
      <trkpt lat="45.83486" lon="6.16276">
        <ele>485.60000610352</ele>
        <time>2013-04-21T13:06:56.000Z</time>
      </trkpt>
      <trkpt lat="45.83491" lon="6.16292">
        <ele>485.39999389648</ele>
        <time>2013-04-21T13:06:59.000Z</time>
      </trkpt>
      <trkpt lat="45.83492" lon="6.16297">
        <ele>485</ele>
        <time>2013-04-21T13:07:00.000Z</time>
      </trkpt>
      <trkpt lat="45.83494" lon="6.16302">
        <ele>484.60000610352</ele>
        <time>2013-04-21T13:07:01.000Z</time>
      </trkpt>
      <trkpt lat="45.83495" lon="6.16307">
        <ele>484.20001220703</ele>
        <time>2013-04-21T13:07:02.000Z</time>
      </trkpt>
      <trkpt lat="45.83497" lon="6.16313">
        <ele>483.79998779297</ele>
        <time>2013-04-21T13:07:03.000Z</time>
      </trkpt>
      <trkpt lat="45.83499" lon="6.16318">
        <ele>483.60000610352</ele>
        <time>2013-04-21T13:07:04.000Z</time>
      </trkpt>
      <trkpt lat="45.83501" lon="6.16323">
        <ele>483.60000610352</ele>
        <time>2013-04-21T13:07:05.000Z</time>
      </trkpt>
      <trkpt lat="45.83511" lon="6.16341">
        <ele>483.60000610352</ele>
        <time>2013-04-21T13:07:09.000Z</time>
      </trkpt>
      <trkpt lat="45.83513" lon="6.16345">
        <ele>483.60000610352</ele>
        <time>2013-04-21T13:07:10.000Z</time>
      </trkpt>
      <trkpt lat="45.83523" lon="6.16364">
        <ele>483.60000610352</ele>
        <time>2013-04-21T13:07:14.000Z</time>
      </trkpt>
      <trkpt lat="45.83532" lon="6.16388">
        <ele>483.60000610352</ele>
        <time>2013-04-21T13:07:19.000Z</time>
      </trkpt>
      <trkpt lat="45.83534" lon="6.16393">
        <ele>483.60000610352</ele>
        <time>2013-04-21T13:07:20.000Z</time>
      </trkpt>
      <trkpt lat="45.83543" lon="6.16417">
        <ele>483.60000610352</ele>
        <time>2013-04-21T13:07:25.000Z</time>
      </trkpt>
      <trkpt lat="45.83545" lon="6.16422">
        <ele>483.60000610352</ele>
        <time>2013-04-21T13:07:26.000Z</time>
      </trkpt>
      <trkpt lat="45.83548" lon="6.16437">
        <ele>483.60000610352</ele>
        <time>2013-04-21T13:07:29.000Z</time>
      </trkpt>
      <trkpt lat="45.83552" lon="6.16446">
        <ele>483.60000610352</ele>
        <time>2013-04-21T13:07:31.000Z</time>
      </trkpt>
      <trkpt lat="45.83555" lon="6.16451">
        <ele>483.60000610352</ele>
        <time>2013-04-21T13:07:32.000Z</time>
      </trkpt>
      <trkpt lat="45.8356" lon="6.1646">
        <ele>483.60000610352</ele>
        <time>2013-04-21T13:07:34.000Z</time>
      </trkpt>
      <trkpt lat="45.83567" lon="6.16478">
        <ele>483.20001220703</ele>
        <time>2013-04-21T13:07:38.000Z</time>
      </trkpt>
      <trkpt lat="45.83569" lon="6.16483">
        <ele>482.79998779297</ele>
        <time>2013-04-21T13:07:39.000Z</time>
      </trkpt>
      <trkpt lat="45.8357" lon="6.16487">
        <ele>482.39999389648</ele>
        <time>2013-04-21T13:07:40.000Z</time>
      </trkpt>
      <trkpt lat="45.8357" lon="6.16492">
        <ele>482.20001220703</ele>
        <time>2013-04-21T13:07:41.000Z</time>
      </trkpt>
      <trkpt lat="45.83573" lon="6.16498">
        <ele>481.79998779297</ele>
        <time>2013-04-21T13:07:42.000Z</time>
      </trkpt>
      <trkpt lat="45.83574" lon="6.16503">
        <ele>481.60000610352</ele>
        <time>2013-04-21T13:07:43.000Z</time>
      </trkpt>
      <trkpt lat="45.83575" lon="6.16508">
        <ele>481.60000610352</ele>
        <time>2013-04-21T13:07:44.000Z</time>
      </trkpt>
      <trkpt lat="45.83577" lon="6.16523">
        <ele>481.60000610352</ele>
        <time>2013-04-21T13:07:47.000Z</time>
      </trkpt>
      <trkpt lat="45.83579" lon="6.16535">
        <ele>481.60000610352</ele>
        <time>2013-04-21T13:07:49.000Z</time>
      </trkpt>
      <trkpt lat="45.8358" lon="6.16563">
        <ele>481.60000610352</ele>
        <time>2013-04-21T13:07:54.000Z</time>
      </trkpt>
      <trkpt lat="45.83584" lon="6.16582">
        <ele>481</ele>
        <time>2013-04-21T13:07:58.000Z</time>
      </trkpt>
      <trkpt lat="45.83585" lon="6.16583">
        <ele>480.79998779297</ele>
        <time>2013-04-21T13:07:59.000Z</time>
      </trkpt>
      <trkpt lat="45.83588" lon="6.16591">
        <ele>480.20001220703</ele>
        <time>2013-04-21T13:08:00.000Z</time>
      </trkpt>
      <trkpt lat="45.8359" lon="6.16595">
        <ele>480.20001220703</ele>
        <time>2013-04-21T13:08:01.000Z</time>
      </trkpt>
      <trkpt lat="45.83594" lon="6.166">
        <ele>480.20001220703</ele>
        <time>2013-04-21T13:08:02.000Z</time>
      </trkpt>
      <trkpt lat="45.83596" lon="6.16605">
        <ele>480</ele>
        <time>2013-04-21T13:08:03.000Z</time>
      </trkpt>
      <trkpt lat="45.83598" lon="6.16609">
        <ele>480</ele>
        <time>2013-04-21T13:08:04.000Z</time>
      </trkpt>
      <trkpt lat="45.836" lon="6.16613">
        <ele>480</ele>
        <time>2013-04-21T13:08:05.000Z</time>
      </trkpt>
      <trkpt lat="45.83613" lon="6.16636">
        <ele>480</ele>
        <time>2013-04-21T13:08:10.000Z</time>
      </trkpt>
      <trkpt lat="45.83615" lon="6.1664">
        <ele>480</ele>
        <time>2013-04-21T13:08:11.000Z</time>
      </trkpt>
      <trkpt lat="45.83628" lon="6.1666">
        <ele>480</ele>
        <time>2013-04-21T13:08:16.000Z</time>
      </trkpt>
      <trkpt lat="45.83642" lon="6.1668">
        <ele>480</ele>
        <time>2013-04-21T13:08:21.000Z</time>
      </trkpt>
      <trkpt lat="45.83647" lon="6.16686">
        <ele>480</ele>
        <time>2013-04-21T13:08:23.000Z</time>
      </trkpt>
      <trkpt lat="45.83663" lon="6.16704">
        <ele>480</ele>
        <time>2013-04-21T13:08:28.000Z</time>
      </trkpt>
      <trkpt lat="45.83666" lon="6.16705">
        <ele>480</ele>
        <time>2013-04-21T13:08:29.000Z</time>
      </trkpt>
      <trkpt lat="45.83678" lon="6.16706">
        <ele>480</ele>
        <time>2013-04-21T13:08:32.000Z</time>
      </trkpt>
      <trkpt lat="45.83685" lon="6.16708">
        <ele>480</ele>
        <time>2013-04-21T13:08:34.000Z</time>
      </trkpt>
      <trkpt lat="45.83689" lon="6.16709">
        <ele>480</ele>
        <time>2013-04-21T13:08:35.000Z</time>
      </trkpt>
      <trkpt lat="45.83692" lon="6.1671">
        <ele>479.39999389648</ele>
        <time>2013-04-21T13:08:36.000Z</time>
      </trkpt>
      <trkpt lat="45.83697" lon="6.1671">
        <ele>479</ele>
        <time>2013-04-21T13:08:37.000Z</time>
      </trkpt>
      <trkpt lat="45.837" lon="6.16712">
        <ele>479.20001220703</ele>
        <time>2013-04-21T13:08:38.000Z</time>
      </trkpt>
      <trkpt lat="45.83704" lon="6.16712">
        <ele>479.39999389648</ele>
        <time>2013-04-21T13:08:39.000Z</time>
      </trkpt>
      <trkpt lat="45.83707" lon="6.16714">
        <ele>479.79998779297</ele>
        <time>2013-04-21T13:08:40.000Z</time>
      </trkpt>
      <trkpt lat="45.83709" lon="6.16715">
        <ele>479.79998779297</ele>
        <time>2013-04-21T13:08:41.000Z</time>
      </trkpt>
      <trkpt lat="45.83714" lon="6.16718">
        <ele>479.39999389648</ele>
        <time>2013-04-21T13:08:42.000Z</time>
      </trkpt>
      <trkpt lat="45.83717" lon="6.16722">
        <ele>479</ele>
        <time>2013-04-21T13:08:43.000Z</time>
      </trkpt>
      <trkpt lat="45.8372" lon="6.16724">
        <ele>478.60000610352</ele>
        <time>2013-04-21T13:08:44.000Z</time>
      </trkpt>
      <trkpt lat="45.83724" lon="6.16728">
        <ele>477.39999389648</ele>
        <time>2013-04-21T13:08:45.000Z</time>
      </trkpt>
      <trkpt lat="45.83733" lon="6.16742">
        <ele>477.39999389648</ele>
        <time>2013-04-21T13:08:49.000Z</time>
      </trkpt>
      <trkpt lat="45.83742" lon="6.16762">
        <ele>477.39999389648</ele>
        <time>2013-04-21T13:08:53.000Z</time>
      </trkpt>
      <trkpt lat="45.83745" lon="6.16782">
        <ele>477.39999389648</ele>
        <time>2013-04-21T13:08:57.000Z</time>
      </trkpt>
      <trkpt lat="45.83748" lon="6.16791">
        <ele>477.39999389648</ele>
        <time>2013-04-21T13:08:59.000Z</time>
      </trkpt>
      <trkpt lat="45.83754" lon="6.168">
        <ele>477.39999389648</ele>
        <time>2013-04-21T13:09:01.000Z</time>
      </trkpt>
      <trkpt lat="45.83763" lon="6.16809">
        <ele>477.39999389648</ele>
        <time>2013-04-21T13:09:04.000Z</time>
      </trkpt>
      <trkpt lat="45.83768" lon="6.16811">
        <ele>477.39999389648</ele>
        <time>2013-04-21T13:09:05.000Z</time>
      </trkpt>
      <trkpt lat="45.83776" lon="6.16812">
        <ele>477.20001220703</ele>
        <time>2013-04-21T13:09:07.000Z</time>
      </trkpt>
      <trkpt lat="45.8378" lon="6.16811">
        <ele>476.79998779297</ele>
        <time>2013-04-21T13:09:08.000Z</time>
      </trkpt>
      <trkpt lat="45.83783" lon="6.1681">
        <ele>476.39999389648</ele>
        <time>2013-04-21T13:09:09.000Z</time>
      </trkpt>
      <trkpt lat="45.83787" lon="6.16809">
        <ele>476</ele>
        <time>2013-04-21T13:09:10.000Z</time>
      </trkpt>
      <trkpt lat="45.83791" lon="6.16808">
        <ele>475.79998779297</ele>
        <time>2013-04-21T13:09:11.000Z</time>
      </trkpt>
      <trkpt lat="45.83794" lon="6.16807">
        <ele>475.39999389648</ele>
        <time>2013-04-21T13:09:12.000Z</time>
      </trkpt>
      <trkpt lat="45.83803" lon="6.16806">
        <ele>475.39999389648</ele>
        <time>2013-04-21T13:09:14.000Z</time>
      </trkpt>
      <trkpt lat="45.83823" lon="6.16808">
        <ele>475.39999389648</ele>
        <time>2013-04-21T13:09:19.000Z</time>
      </trkpt>
      <trkpt lat="45.83827" lon="6.16809">
        <ele>475.39999389648</ele>
        <time>2013-04-21T13:09:20.000Z</time>
      </trkpt>
      <trkpt lat="45.83838" lon="6.16814">
        <ele>475.39999389648</ele>
        <time>2013-04-21T13:09:23.000Z</time>
      </trkpt>
      <trkpt lat="45.83849" lon="6.16821">
        <ele>476.20001220703</ele>
        <time>2013-04-21T13:09:26.000Z</time>
      </trkpt>
      <trkpt lat="45.83867" lon="6.16831">
        <ele>476.20001220703</ele>
        <time>2013-04-21T13:09:31.000Z</time>
      </trkpt>
      <trkpt lat="45.83871" lon="6.16833">
        <ele>476.20001220703</ele>
        <time>2013-04-21T13:09:32.000Z</time>
      </trkpt>
      <trkpt lat="45.83888" lon="6.16847">
        <ele>476.20001220703</ele>
        <time>2013-04-21T13:09:37.000Z</time>
      </trkpt>
      <trkpt lat="45.83892" lon="6.16849">
        <ele>476.20001220703</ele>
        <time>2013-04-21T13:09:38.000Z</time>
      </trkpt>
      <trkpt lat="45.83906" lon="6.1686">
        <ele>476.20001220703</ele>
        <time>2013-04-21T13:09:42.000Z</time>
      </trkpt>
      <trkpt lat="45.8392" lon="6.16872">
        <ele>476.20001220703</ele>
        <time>2013-04-21T13:09:46.000Z</time>
      </trkpt>
      <trkpt lat="45.83931" lon="6.16882">
        <ele>476.20001220703</ele>
        <time>2013-04-21T13:09:49.000Z</time>
      </trkpt>
      <trkpt lat="45.83937" lon="6.1689">
        <ele>476.20001220703</ele>
        <time>2013-04-21T13:09:51.000Z</time>
      </trkpt>
      <trkpt lat="45.83947" lon="6.16907">
        <ele>476.20001220703</ele>
        <time>2013-04-21T13:09:55.000Z</time>
      </trkpt>
      <trkpt lat="45.83957" lon="6.16929">
        <ele>476.20001220703</ele>
        <time>2013-04-21T13:10:00.000Z</time>
      </trkpt>
      <trkpt lat="45.83959" lon="6.16934">
        <ele>476.20001220703</ele>
        <time>2013-04-21T13:10:01.000Z</time>
      </trkpt>
      <trkpt lat="45.83966" lon="6.16955">
        <ele>476.20001220703</ele>
        <time>2013-04-21T13:10:05.000Z</time>
      </trkpt>
      <trkpt lat="45.83978" lon="6.16976">
        <ele>475.79998779297</ele>
        <time>2013-04-21T13:10:10.000Z</time>
      </trkpt>
      <trkpt lat="45.83981" lon="6.16977">
        <ele>475.39999389648</ele>
        <time>2013-04-21T13:10:11.000Z</time>
      </trkpt>
      <trkpt lat="45.83986" lon="6.16978">
        <ele>475</ele>
        <time>2013-04-21T13:10:12.000Z</time>
      </trkpt>
      <trkpt lat="45.8399" lon="6.16978">
        <ele>474.60000610352</ele>
        <time>2013-04-21T13:10:13.000Z</time>
      </trkpt>
      <trkpt lat="45.83994" lon="6.16978">
        <ele>474.20001220703</ele>
        <time>2013-04-21T13:10:14.000Z</time>
      </trkpt>
      <trkpt lat="45.83998" lon="6.16978">
        <ele>474</ele>
        <time>2013-04-21T13:10:15.000Z</time>
      </trkpt>
      <trkpt lat="45.84006" lon="6.16979">
        <ele>474</ele>
        <time>2013-04-21T13:10:17.000Z</time>
      </trkpt>
      <trkpt lat="45.84018" lon="6.1699">
        <ele>474</ele>
        <time>2013-04-21T13:10:21.000Z</time>
      </trkpt>
      <trkpt lat="45.84025" lon="6.17011">
        <ele>474</ele>
        <time>2013-04-21T13:10:25.000Z</time>
      </trkpt>
      <trkpt lat="45.84033" lon="6.17035">
        <ele>474</ele>
        <time>2013-04-21T13:10:30.000Z</time>
      </trkpt>
      <trkpt lat="45.84036" lon="6.17037">
        <ele>474</ele>
        <time>2013-04-21T13:10:31.000Z</time>
      </trkpt>
      <trkpt lat="45.84053" lon="6.17053">
        <ele>474</ele>
        <time>2013-04-21T13:10:36.000Z</time>
      </trkpt>
      <trkpt lat="45.84068" lon="6.17067">
        <ele>474</ele>
        <time>2013-04-21T13:10:41.000Z</time>
      </trkpt>
      <trkpt lat="45.84073" lon="6.17071">
        <ele>474</ele>
        <time>2013-04-21T13:10:42.000Z</time>
      </trkpt>
      <trkpt lat="45.84089" lon="6.17088">
        <ele>474</ele>
        <time>2013-04-21T13:10:47.000Z</time>
      </trkpt>
      <trkpt lat="45.84092" lon="6.17092">
        <ele>474</ele>
        <time>2013-04-21T13:10:48.000Z</time>
      </trkpt>
      <trkpt lat="45.84109" lon="6.17109">
        <ele>474</ele>
        <time>2013-04-21T13:10:53.000Z</time>
      </trkpt>
      <trkpt lat="45.84115" lon="6.17116">
        <ele>474</ele>
        <time>2013-04-21T13:10:55.000Z</time>
      </trkpt>
      <trkpt lat="45.84123" lon="6.17128">
        <ele>474</ele>
        <time>2013-04-21T13:10:58.000Z</time>
      </trkpt>
      <trkpt lat="45.84132" lon="6.17138">
        <ele>474</ele>
        <time>2013-04-21T13:11:01.000Z</time>
      </trkpt>
      <trkpt lat="45.84138" lon="6.17144">
        <ele>473.60000610352</ele>
        <time>2013-04-21T13:11:03.000Z</time>
      </trkpt>
      <trkpt lat="45.84142" lon="6.17147">
        <ele>473</ele>
        <time>2013-04-21T13:11:04.000Z</time>
      </trkpt>
      <trkpt lat="45.84145" lon="6.17149">
        <ele>472.60000610352</ele>
        <time>2013-04-21T13:11:05.000Z</time>
      </trkpt>
      <trkpt lat="45.84149" lon="6.17151">
        <ele>472.20001220703</ele>
        <time>2013-04-21T13:11:06.000Z</time>
      </trkpt>
      <trkpt lat="45.84153" lon="6.17153">
        <ele>471.60000610352</ele>
        <time>2013-04-21T13:11:07.000Z</time>
      </trkpt>
      <trkpt lat="45.84173" lon="6.1716">
        <ele>471.60000610352</ele>
        <time>2013-04-21T13:11:13.000Z</time>
      </trkpt>
      <trkpt lat="45.84192" lon="6.17163">
        <ele>471.60000610352</ele>
        <time>2013-04-21T13:11:18.000Z</time>
      </trkpt>
      <trkpt lat="45.84196" lon="6.17164">
        <ele>471.60000610352</ele>
        <time>2013-04-21T13:11:19.000Z</time>
      </trkpt>
      <trkpt lat="45.84218" lon="6.17167">
        <ele>471.60000610352</ele>
        <time>2013-04-21T13:11:25.000Z</time>
      </trkpt>
      <trkpt lat="45.84222" lon="6.17168">
        <ele>471.60000610352</ele>
        <time>2013-04-21T13:11:26.000Z</time>
      </trkpt>
      <trkpt lat="45.84242" lon="6.17169">
        <ele>471.60000610352</ele>
        <time>2013-04-21T13:11:31.000Z</time>
      </trkpt>
      <trkpt lat="45.84262" lon="6.17171">
        <ele>471.60000610352</ele>
        <time>2013-04-21T13:11:36.000Z</time>
      </trkpt>
      <trkpt lat="45.84266" lon="6.17173">
        <ele>471.60000610352</ele>
        <time>2013-04-21T13:11:37.000Z</time>
      </trkpt>
      <trkpt lat="45.8427" lon="6.17174">
        <ele>471.60000610352</ele>
        <time>2013-04-21T13:11:38.000Z</time>
      </trkpt>
      <trkpt lat="45.84278" lon="6.1717">
        <ele>471.60000610352</ele>
        <time>2013-04-21T13:11:40.000Z</time>
      </trkpt>
      <trkpt lat="45.8428" lon="6.17167">
        <ele>471.60000610352</ele>
        <time>2013-04-21T13:11:41.000Z</time>
      </trkpt>
      <trkpt lat="45.84283" lon="6.17163">
        <ele>470.39999389648</ele>
        <time>2013-04-21T13:11:42.000Z</time>
      </trkpt>
      <trkpt lat="45.84288" lon="6.17154">
        <ele>470.39999389648</ele>
        <time>2013-04-21T13:11:44.000Z</time>
      </trkpt>
      <trkpt lat="45.8429" lon="6.17149">
        <ele>470.39999389648</ele>
        <time>2013-04-21T13:11:45.000Z</time>
      </trkpt>
      <trkpt lat="45.84297" lon="6.17129">
        <ele>470.39999389648</ele>
        <time>2013-04-21T13:11:49.000Z</time>
      </trkpt>
      <trkpt lat="45.84306" lon="6.17103">
        <ele>470.39999389648</ele>
        <time>2013-04-21T13:11:54.000Z</time>
      </trkpt>
      <trkpt lat="45.84316" lon="6.17078">
        <ele>470.39999389648</ele>
        <time>2013-04-21T13:11:59.000Z</time>
      </trkpt>
      <trkpt lat="45.84317" lon="6.17072">
        <ele>470.39999389648</ele>
        <time>2013-04-21T13:12:00.000Z</time>
      </trkpt>
      <trkpt lat="45.84319" lon="6.17068">
        <ele>470.39999389648</ele>
        <time>2013-04-21T13:12:01.000Z</time>
      </trkpt>
      <trkpt lat="45.84321" lon="6.17063">
        <ele>470.39999389648</ele>
        <time>2013-04-21T13:12:02.000Z</time>
      </trkpt>
      <trkpt lat="45.84327" lon="6.17047">
        <ele>470.79998779297</ele>
        <time>2013-04-21T13:12:05.000Z</time>
      </trkpt>
      <trkpt lat="45.84329" lon="6.17043">
        <ele>471.20001220703</ele>
        <time>2013-04-21T13:12:06.000Z</time>
      </trkpt>
      <trkpt lat="45.84333" lon="6.17038">
        <ele>471.60000610352</ele>
        <time>2013-04-21T13:12:07.000Z</time>
      </trkpt>
      <trkpt lat="45.84334" lon="6.17034">
        <ele>472</ele>
        <time>2013-04-21T13:12:08.000Z</time>
      </trkpt>
      <trkpt lat="45.84337" lon="6.1703">
        <ele>472.39999389648</ele>
        <time>2013-04-21T13:12:09.000Z</time>
      </trkpt>
      <trkpt lat="45.8434" lon="6.17027">
        <ele>472.39999389648</ele>
        <time>2013-04-21T13:12:10.000Z</time>
      </trkpt>
      <trkpt lat="45.84345" lon="6.1702">
        <ele>472.39999389648</ele>
        <time>2013-04-21T13:12:12.000Z</time>
      </trkpt>
      <trkpt lat="45.8435" lon="6.17014">
        <ele>473</ele>
        <time>2013-04-21T13:12:14.000Z</time>
      </trkpt>
      <trkpt lat="45.84353" lon="6.17012">
        <ele>473.39999389648</ele>
        <time>2013-04-21T13:12:15.000Z</time>
      </trkpt>
      <trkpt lat="45.84356" lon="6.1701">
        <ele>473.79998779297</ele>
        <time>2013-04-21T13:12:16.000Z</time>
      </trkpt>
      <trkpt lat="45.8436" lon="6.17008">
        <ele>474.20001220703</ele>
        <time>2013-04-21T13:12:17.000Z</time>
      </trkpt>
      <trkpt lat="45.84364" lon="6.17007">
        <ele>474.60000610352</ele>
        <time>2013-04-21T13:12:18.000Z</time>
      </trkpt>
      <trkpt lat="45.84372" lon="6.17002">
        <ele>474.60000610352</ele>
        <time>2013-04-21T13:12:20.000Z</time>
      </trkpt>
      <trkpt lat="45.84387" lon="6.16983">
        <ele>474.60000610352</ele>
        <time>2013-04-21T13:12:25.000Z</time>
      </trkpt>
      <trkpt lat="45.84389" lon="6.16959">
        <ele>474.60000610352</ele>
        <time>2013-04-21T13:12:30.000Z</time>
      </trkpt>
      <trkpt lat="45.84388" lon="6.16942">
        <ele>474.20001220703</ele>
        <time>2013-04-21T13:12:33.000Z</time>
      </trkpt>
      <trkpt lat="45.84388" lon="6.16936">
        <ele>473.79998779297</ele>
        <time>2013-04-21T13:12:34.000Z</time>
      </trkpt>
      <trkpt lat="45.84388" lon="6.16931">
        <ele>473.39999389648</ele>
        <time>2013-04-21T13:12:35.000Z</time>
      </trkpt>
      <trkpt lat="45.84387" lon="6.16926">
        <ele>473</ele>
        <time>2013-04-21T13:12:36.000Z</time>
      </trkpt>
      <trkpt lat="45.84385" lon="6.1692">
        <ele>472.60000610352</ele>
        <time>2013-04-21T13:12:37.000Z</time>
      </trkpt>
      <trkpt lat="45.84381" lon="6.16911">
        <ele>472.60000610352</ele>
        <time>2013-04-21T13:12:39.000Z</time>
      </trkpt>
      <trkpt lat="45.8437" lon="6.16887">
        <ele>472.60000610352</ele>
        <time>2013-04-21T13:12:45.000Z</time>
      </trkpt>
      <trkpt lat="45.84368" lon="6.16864">
        <ele>472.60000610352</ele>
        <time>2013-04-21T13:12:50.000Z</time>
      </trkpt>
      <trkpt lat="45.84366" lon="6.1685">
        <ele>472.60000610352</ele>
        <time>2013-04-21T13:12:53.000Z</time>
      </trkpt>
      <trkpt lat="45.84363" lon="6.16847">
        <ele>472.60000610352</ele>
        <time>2013-04-21T13:12:54.000Z</time>
      </trkpt>
      <trkpt lat="45.8435" lon="6.16834">
        <ele>472.60000610352</ele>
        <time>2013-04-21T13:12:59.000Z</time>
      </trkpt>
      <trkpt lat="45.84344" lon="6.1683">
        <ele>472.60000610352</ele>
        <time>2013-04-21T13:13:01.000Z</time>
      </trkpt>
      <trkpt lat="45.84334" lon="6.16822">
        <ele>472.60000610352</ele>
        <time>2013-04-21T13:13:04.000Z</time>
      </trkpt>
      <trkpt lat="45.84319" lon="6.16805">
        <ele>472.60000610352</ele>
        <time>2013-04-21T13:13:09.000Z</time>
      </trkpt>
      <trkpt lat="45.84306" lon="6.16795">
        <ele>472.60000610352</ele>
        <time>2013-04-21T13:13:13.000Z</time>
      </trkpt>
      <trkpt lat="45.84295" lon="6.16785">
        <ele>472.20001220703</ele>
        <time>2013-04-21T13:13:17.000Z</time>
      </trkpt>
      <trkpt lat="45.84292" lon="6.16783">
        <ele>471.79998779297</ele>
        <time>2013-04-21T13:13:18.000Z</time>
      </trkpt>
      <trkpt lat="45.84288" lon="6.16779">
        <ele>471.39999389648</ele>
        <time>2013-04-21T13:13:19.000Z</time>
      </trkpt>
      <trkpt lat="45.84285" lon="6.16776">
        <ele>470.79998779297</ele>
        <time>2013-04-21T13:13:20.000Z</time>
      </trkpt>
      <trkpt lat="45.84282" lon="6.16773">
        <ele>470.39999389648</ele>
        <time>2013-04-21T13:13:21.000Z</time>
      </trkpt>
      <trkpt lat="45.84271" lon="6.16765">
        <ele>470.39999389648</ele>
        <time>2013-04-21T13:13:25.000Z</time>
      </trkpt>
      <trkpt lat="45.84256" lon="6.16748">
        <ele>470.39999389648</ele>
        <time>2013-04-21T13:13:31.000Z</time>
      </trkpt>
      <trkpt lat="45.84244" lon="6.16735">
        <ele>470.79998779297</ele>
        <time>2013-04-21T13:13:35.000Z</time>
      </trkpt>
      <trkpt lat="45.84241" lon="6.16733">
        <ele>471.20001220703</ele>
        <time>2013-04-21T13:13:36.000Z</time>
      </trkpt>
      <trkpt lat="45.84238" lon="6.1673">
        <ele>471.60000610352</ele>
        <time>2013-04-21T13:13:37.000Z</time>
      </trkpt>
      <trkpt lat="45.84235" lon="6.16727">
        <ele>472</ele>
        <time>2013-04-21T13:13:38.000Z</time>
      </trkpt>
      <trkpt lat="45.84231" lon="6.16724">
        <ele>472.39999389648</ele>
        <time>2013-04-21T13:13:39.000Z</time>
      </trkpt>
      <trkpt lat="45.8422" lon="6.16716">
        <ele>472.39999389648</ele>
        <time>2013-04-21T13:13:43.000Z</time>
      </trkpt>
      <trkpt lat="45.84205" lon="6.16703">
        <ele>472.39999389648</ele>
        <time>2013-04-21T13:13:48.000Z</time>
      </trkpt>
      <trkpt lat="45.84186" lon="6.16687">
        <ele>472.39999389648</ele>
        <time>2013-04-21T13:13:53.000Z</time>
      </trkpt>
      <trkpt lat="45.84184" lon="6.16683">
        <ele>472.39999389648</ele>
        <time>2013-04-21T13:13:54.000Z</time>
      </trkpt>
      <trkpt lat="45.84177" lon="6.16676">
        <ele>472.39999389648</ele>
        <time>2013-04-21T13:13:56.000Z</time>
      </trkpt>
      <trkpt lat="45.84174" lon="6.16672">
        <ele>472.39999389648</ele>
        <time>2013-04-21T13:13:57.000Z</time>
      </trkpt>
      <trkpt lat="45.84163" lon="6.16663">
        <ele>472.39999389648</ele>
        <time>2013-04-21T13:14:00.000Z</time>
      </trkpt>
      <trkpt lat="45.8416" lon="6.16661">
        <ele>472.39999389648</ele>
        <time>2013-04-21T13:14:01.000Z</time>
      </trkpt>
      <trkpt lat="45.84153" lon="6.16656">
        <ele>472.39999389648</ele>
        <time>2013-04-21T13:14:03.000Z</time>
      </trkpt>
      <trkpt lat="45.84142" lon="6.16645">
        <ele>472.39999389648</ele>
        <time>2013-04-21T13:14:07.000Z</time>
      </trkpt>
      <trkpt lat="45.84129" lon="6.16637">
        <ele>472.79998779297</ele>
        <time>2013-04-21T13:14:11.000Z</time>
      </trkpt>
      <trkpt lat="45.84124" lon="6.16634">
        <ele>473.39999389648</ele>
        <time>2013-04-21T13:14:12.000Z</time>
      </trkpt>
      <trkpt lat="45.8412" lon="6.16631">
        <ele>473.79998779297</ele>
        <time>2013-04-21T13:14:13.000Z</time>
      </trkpt>
      <trkpt lat="45.84117" lon="6.1663">
        <ele>474.20001220703</ele>
        <time>2013-04-21T13:14:14.000Z</time>
      </trkpt>
      <trkpt lat="45.84113" lon="6.16628">
        <ele>474.60000610352</ele>
        <time>2013-04-21T13:14:15.000Z</time>
      </trkpt>
      <trkpt lat="45.8411" lon="6.16627">
        <ele>474.60000610352</ele>
        <time>2013-04-21T13:14:16.000Z</time>
      </trkpt>
      <trkpt lat="45.84094" lon="6.16621">
        <ele>474.60000610352</ele>
        <time>2013-04-21T13:14:20.000Z</time>
      </trkpt>
      <trkpt lat="45.84083" lon="6.16613">
        <ele>475</ele>
        <time>2013-04-21T13:14:23.000Z</time>
      </trkpt>
      <trkpt lat="45.84079" lon="6.1661">
        <ele>475.39999389648</ele>
        <time>2013-04-21T13:14:24.000Z</time>
      </trkpt>
      <trkpt lat="45.84076" lon="6.16607">
        <ele>476</ele>
        <time>2013-04-21T13:14:25.000Z</time>
      </trkpt>
      <trkpt lat="45.84073" lon="6.16604">
        <ele>475.79998779297</ele>
        <time>2013-04-21T13:14:26.000Z</time>
      </trkpt>
      <trkpt lat="45.8407" lon="6.166">
        <ele>475.60000610352</ele>
        <time>2013-04-21T13:14:27.000Z</time>
      </trkpt>
      <trkpt lat="45.84067" lon="6.16596">
        <ele>475.39999389648</ele>
        <time>2013-04-21T13:14:28.000Z</time>
      </trkpt>
      <trkpt lat="45.84065" lon="6.16591">
        <ele>475</ele>
        <time>2013-04-21T13:14:29.000Z</time>
      </trkpt>
      <trkpt lat="45.84065" lon="6.16585">
        <ele>474.79998779297</ele>
        <time>2013-04-21T13:14:30.000Z</time>
      </trkpt>
      <trkpt lat="45.84065" lon="6.1658">
        <ele>474.79998779297</ele>
        <time>2013-04-21T13:14:31.000Z</time>
      </trkpt>
      <trkpt lat="45.84063" lon="6.16558">
        <ele>474.79998779297</ele>
        <time>2013-04-21T13:14:35.000Z</time>
      </trkpt>
      <trkpt lat="45.84063" lon="6.16552">
        <ele>474.79998779297</ele>
        <time>2013-04-21T13:14:36.000Z</time>
      </trkpt>
      <trkpt lat="45.84063" lon="6.16523">
        <ele>474.79998779297</ele>
        <time>2013-04-21T13:14:41.000Z</time>
      </trkpt>
      <trkpt lat="45.84063" lon="6.16517">
        <ele>474.79998779297</ele>
        <time>2013-04-21T13:14:42.000Z</time>
      </trkpt>
      <trkpt lat="45.84061" lon="6.1649">
        <ele>474.79998779297</ele>
        <time>2013-04-21T13:14:47.000Z</time>
      </trkpt>
      <trkpt lat="45.84062" lon="6.16485">
        <ele>474.79998779297</ele>
        <time>2013-04-21T13:14:48.000Z</time>
      </trkpt>
      <trkpt lat="45.84061" lon="6.16457">
        <ele>474.79998779297</ele>
        <time>2013-04-21T13:14:53.000Z</time>
      </trkpt>
      <trkpt lat="45.84061" lon="6.16451">
        <ele>474.79998779297</ele>
        <time>2013-04-21T13:14:54.000Z</time>
      </trkpt>
      <trkpt lat="45.8406" lon="6.16427">
        <ele>474.79998779297</ele>
        <time>2013-04-21T13:14:58.000Z</time>
      </trkpt>
      <trkpt lat="45.84059" lon="6.1641">
        <ele>474.79998779297</ele>
        <time>2013-04-21T13:15:01.000Z</time>
      </trkpt>
      <trkpt lat="45.84059" lon="6.16393">
        <ele>474.79998779297</ele>
        <time>2013-04-21T13:15:04.000Z</time>
      </trkpt>
      <trkpt lat="45.84059" lon="6.16388">
        <ele>475.39999389648</ele>
        <time>2013-04-21T13:15:05.000Z</time>
      </trkpt>
      <trkpt lat="45.84059" lon="6.16382">
        <ele>475.79998779297</ele>
        <time>2013-04-21T13:15:06.000Z</time>
      </trkpt>
      <trkpt lat="45.84058" lon="6.16377">
        <ele>476.20001220703</ele>
        <time>2013-04-21T13:15:07.000Z</time>
      </trkpt>
      <trkpt lat="45.84058" lon="6.16371">
        <ele>476.60000610352</ele>
        <time>2013-04-21T13:15:08.000Z</time>
      </trkpt>
      <trkpt lat="45.84058" lon="6.16366">
        <ele>476.20001220703</ele>
        <time>2013-04-21T13:15:09.000Z</time>
      </trkpt>
      <trkpt lat="45.84057" lon="6.1636">
        <ele>476</ele>
        <time>2013-04-21T13:15:10.000Z</time>
      </trkpt>
      <trkpt lat="45.84057" lon="6.16355">
        <ele>475.79998779297</ele>
        <time>2013-04-21T13:15:11.000Z</time>
      </trkpt>
      <trkpt lat="45.84056" lon="6.16348">
        <ele>475.39999389648</ele>
        <time>2013-04-21T13:15:12.000Z</time>
      </trkpt>
      <trkpt lat="45.84056" lon="6.16343">
        <ele>475.20001220703</ele>
        <time>2013-04-21T13:15:13.000Z</time>
      </trkpt>
      <trkpt lat="45.84056" lon="6.16339">
        <ele>475</ele>
        <time>2013-04-21T13:15:14.000Z</time>
      </trkpt>
      <trkpt lat="45.84053" lon="6.16318">
        <ele>475</ele>
        <time>2013-04-21T13:15:18.000Z</time>
      </trkpt>
      <trkpt lat="45.84052" lon="6.16293">
        <ele>475</ele>
        <time>2013-04-21T13:15:23.000Z</time>
      </trkpt>
      <trkpt lat="45.84051" lon="6.16267">
        <ele>475</ele>
        <time>2013-04-21T13:15:28.000Z</time>
      </trkpt>
      <trkpt lat="45.84047" lon="6.16241">
        <ele>475</ele>
        <time>2013-04-21T13:15:33.000Z</time>
      </trkpt>
      <trkpt lat="45.84045" lon="6.16236">
        <ele>475</ele>
        <time>2013-04-21T13:15:34.000Z</time>
      </trkpt>
      <trkpt lat="45.84039" lon="6.16224">
        <ele>475</ele>
        <time>2013-04-21T13:15:37.000Z</time>
      </trkpt>
      <trkpt lat="45.84031" lon="6.16212">
        <ele>475</ele>
        <time>2013-04-21T13:15:40.000Z</time>
      </trkpt>
      <trkpt lat="45.84023" lon="6.16201">
        <ele>475.39999389648</ele>
        <time>2013-04-21T13:15:43.000Z</time>
      </trkpt>
      <trkpt lat="45.84021" lon="6.16197">
        <ele>475.79998779297</ele>
        <time>2013-04-21T13:15:44.000Z</time>
      </trkpt>
      <trkpt lat="45.84018" lon="6.16194">
        <ele>476.20001220703</ele>
        <time>2013-04-21T13:15:45.000Z</time>
      </trkpt>
      <trkpt lat="45.84015" lon="6.1619">
        <ele>476.39999389648</ele>
        <time>2013-04-21T13:15:46.000Z</time>
      </trkpt>
      <trkpt lat="45.84013" lon="6.16186">
        <ele>476.79998779297</ele>
        <time>2013-04-21T13:15:47.000Z</time>
      </trkpt>
      <trkpt lat="45.8401" lon="6.16182">
        <ele>477</ele>
        <time>2013-04-21T13:15:48.000Z</time>
      </trkpt>
      <trkpt lat="45.83997" lon="6.16162">
        <ele>477</ele>
        <time>2013-04-21T13:15:53.000Z</time>
      </trkpt>
      <trkpt lat="45.83984" lon="6.16141">
        <ele>477</ele>
        <time>2013-04-21T13:15:58.000Z</time>
      </trkpt>
      <trkpt lat="45.83976" lon="6.16131">
        <ele>477</ele>
        <time>2013-04-21T13:16:01.000Z</time>
      </trkpt>
      <trkpt lat="45.83973" lon="6.16127">
        <ele>477</ele>
        <time>2013-04-21T13:16:02.000Z</time>
      </trkpt>
      <trkpt lat="45.83968" lon="6.16115">
        <ele>477</ele>
        <time>2013-04-21T13:16:05.000Z</time>
      </trkpt>
      <trkpt lat="45.8397" lon="6.16111">
        <ele>477</ele>
        <time>2013-04-21T13:16:06.000Z</time>
      </trkpt>
      <trkpt lat="45.83982" lon="6.16104">
        <ele>477</ele>
        <time>2013-04-21T13:16:09.000Z</time>
      </trkpt>
      <trkpt lat="45.83997" lon="6.16094">
        <ele>477.39999389648</ele>
        <time>2013-04-21T13:16:13.000Z</time>
      </trkpt>
      <trkpt lat="45.84001" lon="6.16092">
        <ele>478</ele>
        <time>2013-04-21T13:16:14.000Z</time>
      </trkpt>
      <trkpt lat="45.84005" lon="6.16089">
        <ele>478</ele>
        <time>2013-04-21T13:16:15.000Z</time>
      </trkpt>
      <trkpt lat="45.84008" lon="6.16087">
        <ele>477.60000610352</ele>
        <time>2013-04-21T13:16:16.000Z</time>
      </trkpt>
      <trkpt lat="45.84012" lon="6.16085">
        <ele>477.39999389648</ele>
        <time>2013-04-21T13:16:17.000Z</time>
      </trkpt>
      <trkpt lat="45.84015" lon="6.16083">
        <ele>477.20001220703</ele>
        <time>2013-04-21T13:16:18.000Z</time>
      </trkpt>
      <trkpt lat="45.8402" lon="6.1608">
        <ele>477</ele>
        <time>2013-04-21T13:16:19.000Z</time>
      </trkpt>
      <trkpt lat="45.84023" lon="6.16078">
        <ele>477</ele>
        <time>2013-04-21T13:16:20.000Z</time>
      </trkpt>
      <trkpt lat="45.84026" lon="6.16076">
        <ele>477</ele>
        <time>2013-04-21T13:16:21.000Z</time>
      </trkpt>
      <trkpt lat="45.84034" lon="6.16071">
        <ele>477</ele>
        <time>2013-04-21T13:16:23.000Z</time>
      </trkpt>
      <trkpt lat="45.84045" lon="6.16064">
        <ele>477</ele>
        <time>2013-04-21T13:16:26.000Z</time>
      </trkpt>
      <trkpt lat="45.84052" lon="6.16059">
        <ele>477</ele>
        <time>2013-04-21T13:16:28.000Z</time>
      </trkpt>
      <trkpt lat="45.8407" lon="6.16047">
        <ele>477</ele>
        <time>2013-04-21T13:16:33.000Z</time>
      </trkpt>
      <trkpt lat="45.84085" lon="6.16034">
        <ele>477</ele>
        <time>2013-04-21T13:16:38.000Z</time>
      </trkpt>
      <trkpt lat="45.84102" lon="6.16019">
        <ele>477</ele>
        <time>2013-04-21T13:16:43.000Z</time>
      </trkpt>
      <trkpt lat="45.84109" lon="6.16013">
        <ele>477</ele>
        <time>2013-04-21T13:16:45.000Z</time>
      </trkpt>
      <trkpt lat="45.84112" lon="6.16011">
        <ele>476.79998779297</ele>
        <time>2013-04-21T13:16:46.000Z</time>
      </trkpt>
      <trkpt lat="45.84115" lon="6.16008">
        <ele>476.20001220703</ele>
        <time>2013-04-21T13:16:47.000Z</time>
      </trkpt>
      <trkpt lat="45.84118" lon="6.16005">
        <ele>475.79998779297</ele>
        <time>2013-04-21T13:16:48.000Z</time>
      </trkpt>
      <trkpt lat="45.84121" lon="6.16002">
        <ele>475.39999389648</ele>
        <time>2013-04-21T13:16:49.000Z</time>
      </trkpt>
      <trkpt lat="45.84124" lon="6.15999">
        <ele>475</ele>
        <time>2013-04-21T13:16:50.000Z</time>
      </trkpt>
      <trkpt lat="45.84127" lon="6.15996">
        <ele>475</ele>
        <time>2013-04-21T13:16:51.000Z</time>
      </trkpt>
      <trkpt lat="45.8413" lon="6.15993">
        <ele>475</ele>
        <time>2013-04-21T13:16:52.000Z</time>
      </trkpt>
      <trkpt lat="45.84144" lon="6.15975">
        <ele>475</ele>
        <time>2013-04-21T13:16:58.000Z</time>
      </trkpt>
      <trkpt lat="45.84157" lon="6.1596">
        <ele>475</ele>
        <time>2013-04-21T13:17:03.000Z</time>
      </trkpt>
      <trkpt lat="45.84172" lon="6.15939">
        <ele>475</ele>
        <time>2013-04-21T13:17:09.000Z</time>
      </trkpt>
      <trkpt lat="45.84187" lon="6.1592">
        <ele>475</ele>
        <time>2013-04-21T13:17:14.000Z</time>
      </trkpt>
      <trkpt lat="45.84196" lon="6.15906">
        <ele>475</ele>
        <time>2013-04-21T13:17:18.000Z</time>
      </trkpt>
      <trkpt lat="45.84205" lon="6.15891">
        <ele>475</ele>
        <time>2013-04-21T13:17:22.000Z</time>
      </trkpt>
      <trkpt lat="45.84216" lon="6.15867">
        <ele>475</ele>
        <time>2013-04-21T13:17:27.000Z</time>
      </trkpt>
      <trkpt lat="45.84224" lon="6.15847">
        <ele>475</ele>
        <time>2013-04-21T13:17:31.000Z</time>
      </trkpt>
      <trkpt lat="45.84232" lon="6.15828">
        <ele>475</ele>
        <time>2013-04-21T13:17:35.000Z</time>
      </trkpt>
      <trkpt lat="45.84235" lon="6.15823">
        <ele>475</ele>
        <time>2013-04-21T13:17:36.000Z</time>
      </trkpt>
      <trkpt lat="45.84237" lon="6.15818">
        <ele>475</ele>
        <time>2013-04-21T13:17:37.000Z</time>
      </trkpt>
      <trkpt lat="45.84244" lon="6.158">
        <ele>475</ele>
        <time>2013-04-21T13:17:41.000Z</time>
      </trkpt>
      <trkpt lat="45.84254" lon="6.15777">
        <ele>475</ele>
        <time>2013-04-21T13:17:46.000Z</time>
      </trkpt>
      <trkpt lat="45.84265" lon="6.15753">
        <ele>475</ele>
        <time>2013-04-21T13:17:51.000Z</time>
      </trkpt>
      <trkpt lat="45.84276" lon="6.15731">
        <ele>475</ele>
        <time>2013-04-21T13:17:56.000Z</time>
      </trkpt>
      <trkpt lat="45.84284" lon="6.15711">
        <ele>475</ele>
        <time>2013-04-21T13:18:00.000Z</time>
      </trkpt>
      <trkpt lat="45.84291" lon="6.15696">
        <ele>475</ele>
        <time>2013-04-21T13:18:04.000Z</time>
      </trkpt>
      <trkpt lat="45.843" lon="6.15673">
        <ele>475</ele>
        <time>2013-04-21T13:18:09.000Z</time>
      </trkpt>
      <trkpt lat="45.84308" lon="6.15654">
        <ele>475</ele>
        <time>2013-04-21T13:18:13.000Z</time>
      </trkpt>
      <trkpt lat="45.84317" lon="6.1563">
        <ele>475</ele>
        <time>2013-04-21T13:18:18.000Z</time>
      </trkpt>
      <trkpt lat="45.84319" lon="6.15625">
        <ele>475</ele>
        <time>2013-04-21T13:18:19.000Z</time>
      </trkpt>
      <trkpt lat="45.84329" lon="6.15603">
        <ele>475</ele>
        <time>2013-04-21T13:18:24.000Z</time>
      </trkpt>
      <trkpt lat="45.84339" lon="6.15582">
        <ele>475</ele>
        <time>2013-04-21T13:18:28.000Z</time>
      </trkpt>
      <trkpt lat="45.84349" lon="6.15565">
        <ele>475</ele>
        <time>2013-04-21T13:18:32.000Z</time>
      </trkpt>
      <trkpt lat="45.84356" lon="6.15548">
        <ele>475</ele>
        <time>2013-04-21T13:18:36.000Z</time>
      </trkpt>
      <trkpt lat="45.84367" lon="6.15525">
        <ele>475</ele>
        <time>2013-04-21T13:18:41.000Z</time>
      </trkpt>
      <trkpt lat="45.84378" lon="6.15504">
        <ele>475</ele>
        <time>2013-04-21T13:18:46.000Z</time>
      </trkpt>
      <trkpt lat="45.84384" lon="6.15497">
        <ele>475</ele>
        <time>2013-04-21T13:18:48.000Z</time>
      </trkpt>
      <trkpt lat="45.84396" lon="6.15474">
        <ele>475</ele>
        <time>2013-04-21T13:18:53.000Z</time>
      </trkpt>
      <trkpt lat="45.84408" lon="6.15455">
        <ele>475</ele>
        <time>2013-04-21T13:18:58.000Z</time>
      </trkpt>
      <trkpt lat="45.84411" lon="6.15451">
        <ele>475</ele>
        <time>2013-04-21T13:18:59.000Z</time>
      </trkpt>
      <trkpt lat="45.84424" lon="6.15433">
        <ele>475</ele>
        <time>2013-04-21T13:19:04.000Z</time>
      </trkpt>
      <trkpt lat="45.84427" lon="6.15432">
        <ele>475</ele>
        <time>2013-04-21T13:19:05.000Z</time>
      </trkpt>
      <trkpt lat="45.84434" lon="6.15431">
        <ele>475</ele>
        <time>2013-04-21T13:19:07.000Z</time>
      </trkpt>
      <trkpt lat="45.84447" lon="6.15416">
        <ele>475</ele>
        <time>2013-04-21T13:19:11.000Z</time>
      </trkpt>
      <trkpt lat="45.8446" lon="6.15401">
        <ele>474.39999389648</ele>
        <time>2013-04-21T13:19:15.000Z</time>
      </trkpt>
      <trkpt lat="45.84462" lon="6.15396">
        <ele>474</ele>
        <time>2013-04-21T13:19:16.000Z</time>
      </trkpt>
      <trkpt lat="45.84464" lon="6.15392">
        <ele>473.60000610352</ele>
        <time>2013-04-21T13:19:17.000Z</time>
      </trkpt>
      <trkpt lat="45.84468" lon="6.15388">
        <ele>473</ele>
        <time>2013-04-21T13:19:18.000Z</time>
      </trkpt>
      <trkpt lat="45.8447" lon="6.15385">
        <ele>472.60000610352</ele>
        <time>2013-04-21T13:19:19.000Z</time>
      </trkpt>
      <trkpt lat="45.84486" lon="6.15364">
        <ele>473.79998779297</ele>
        <time>2013-04-21T13:19:24.000Z</time>
      </trkpt>
      <trkpt lat="45.84499" lon="6.1535">
        <ele>473.79998779297</ele>
        <time>2013-04-21T13:19:28.000Z</time>
      </trkpt>
      <trkpt lat="45.84501" lon="6.15346">
        <ele>473.79998779297</ele>
        <time>2013-04-21T13:19:29.000Z</time>
      </trkpt>
      <trkpt lat="45.84509" lon="6.15339">
        <ele>474</ele>
        <time>2013-04-21T13:19:31.000Z</time>
      </trkpt>
      <trkpt lat="45.84512" lon="6.15336">
        <ele>474.39999389648</ele>
        <time>2013-04-21T13:19:32.000Z</time>
      </trkpt>
      <trkpt lat="45.84515" lon="6.15333">
        <ele>474.79998779297</ele>
        <time>2013-04-21T13:19:33.000Z</time>
      </trkpt>
      <trkpt lat="45.84517" lon="6.1533">
        <ele>475.20001220703</ele>
        <time>2013-04-21T13:19:34.000Z</time>
      </trkpt>
      <trkpt lat="45.8452" lon="6.15327">
        <ele>475.39999389648</ele>
        <time>2013-04-21T13:19:35.000Z</time>
      </trkpt>
      <trkpt lat="45.84523" lon="6.15323">
        <ele>475.60000610352</ele>
        <time>2013-04-21T13:19:36.000Z</time>
      </trkpt>
      <trkpt lat="45.84526" lon="6.1532">
        <ele>476</ele>
        <time>2013-04-21T13:19:37.000Z</time>
      </trkpt>
      <trkpt lat="45.84529" lon="6.15317">
        <ele>476</ele>
        <time>2013-04-21T13:19:38.000Z</time>
      </trkpt>
      <trkpt lat="45.84539" lon="6.15306">
        <ele>476.39999389648</ele>
        <time>2013-04-21T13:19:41.000Z</time>
      </trkpt>
      <trkpt lat="45.84542" lon="6.15302">
        <ele>476.79998779297</ele>
        <time>2013-04-21T13:19:42.000Z</time>
      </trkpt>
      <trkpt lat="45.84545" lon="6.15299">
        <ele>477.20001220703</ele>
        <time>2013-04-21T13:19:43.000Z</time>
      </trkpt>
      <trkpt lat="45.84549" lon="6.15296">
        <ele>477.39999389648</ele>
        <time>2013-04-21T13:19:44.000Z</time>
      </trkpt>
      <trkpt lat="45.84552" lon="6.15292">
        <ele>478</ele>
        <time>2013-04-21T13:19:45.000Z</time>
      </trkpt>
      <trkpt lat="45.84559" lon="6.15286">
        <ele>478.20001220703</ele>
        <time>2013-04-21T13:19:47.000Z</time>
      </trkpt>
      <trkpt lat="45.84562" lon="6.15283">
        <ele>478.60000610352</ele>
        <time>2013-04-21T13:19:48.000Z</time>
      </trkpt>
      <trkpt lat="45.84566" lon="6.1528">
        <ele>479</ele>
        <time>2013-04-21T13:19:49.000Z</time>
      </trkpt>
      <trkpt lat="45.84569" lon="6.15278">
        <ele>479.39999389648</ele>
        <time>2013-04-21T13:19:50.000Z</time>
      </trkpt>
      <trkpt lat="45.84572" lon="6.15275">
        <ele>479.79998779297</ele>
        <time>2013-04-21T13:19:51.000Z</time>
      </trkpt>
      <trkpt lat="45.84576" lon="6.15272">
        <ele>480</ele>
        <time>2013-04-21T13:19:52.000Z</time>
      </trkpt>
      <trkpt lat="45.84592" lon="6.1526">
        <ele>480</ele>
        <time>2013-04-21T13:19:57.000Z</time>
      </trkpt>
      <trkpt lat="45.8461" lon="6.15247">
        <ele>480</ele>
        <time>2013-04-21T13:20:02.000Z</time>
      </trkpt>
      <trkpt lat="45.84628" lon="6.15236">
        <ele>479.79998779297</ele>
        <time>2013-04-21T13:20:07.000Z</time>
      </trkpt>
      <trkpt lat="45.84631" lon="6.15234">
        <ele>479.39999389648</ele>
        <time>2013-04-21T13:20:08.000Z</time>
      </trkpt>
      <trkpt lat="45.84635" lon="6.15231">
        <ele>479</ele>
        <time>2013-04-21T13:20:09.000Z</time>
      </trkpt>
      <trkpt lat="45.84638" lon="6.1523">
        <ele>478.60000610352</ele>
        <time>2013-04-21T13:20:10.000Z</time>
      </trkpt>
      <trkpt lat="45.84641" lon="6.15228">
        <ele>478.20001220703</ele>
        <time>2013-04-21T13:20:11.000Z</time>
      </trkpt>
      <trkpt lat="45.84645" lon="6.15225">
        <ele>477.79998779297</ele>
        <time>2013-04-21T13:20:12.000Z</time>
      </trkpt>
      <trkpt lat="45.84656" lon="6.15219">
        <ele>477.79998779297</ele>
        <time>2013-04-21T13:20:15.000Z</time>
      </trkpt>
      <trkpt lat="45.84672" lon="6.15206">
        <ele>477.79998779297</ele>
        <time>2013-04-21T13:20:20.000Z</time>
      </trkpt>
      <trkpt lat="45.84683" lon="6.15199">
        <ele>477</ele>
        <time>2013-04-21T13:20:23.000Z</time>
      </trkpt>
      <trkpt lat="45.8469" lon="6.15194">
        <ele>477</ele>
        <time>2013-04-21T13:20:25.000Z</time>
      </trkpt>
      <trkpt lat="45.84708" lon="6.15184">
        <ele>477</ele>
        <time>2013-04-21T13:20:30.000Z</time>
      </trkpt>
      <trkpt lat="45.84725" lon="6.15174">
        <ele>477</ele>
        <time>2013-04-21T13:20:35.000Z</time>
      </trkpt>
      <trkpt lat="45.84728" lon="6.15172">
        <ele>476.60000610352</ele>
        <time>2013-04-21T13:20:36.000Z</time>
      </trkpt>
      <trkpt lat="45.84732" lon="6.15169">
        <ele>476.20001220703</ele>
        <time>2013-04-21T13:20:37.000Z</time>
      </trkpt>
      <trkpt lat="45.84736" lon="6.15167">
        <ele>475.79998779297</ele>
        <time>2013-04-21T13:20:38.000Z</time>
      </trkpt>
      <trkpt lat="45.84739" lon="6.15164">
        <ele>475.39999389648</ele>
        <time>2013-04-21T13:20:39.000Z</time>
      </trkpt>
      <trkpt lat="45.84742" lon="6.15162">
        <ele>475</ele>
        <time>2013-04-21T13:20:40.000Z</time>
      </trkpt>
      <trkpt lat="45.84757" lon="6.15153">
        <ele>475</ele>
        <time>2013-04-21T13:20:44.000Z</time>
      </trkpt>
      <trkpt lat="45.8477" lon="6.15144">
        <ele>474.79998779297</ele>
        <time>2013-04-21T13:20:48.000Z</time>
      </trkpt>
      <trkpt lat="45.84774" lon="6.15142">
        <ele>474.39999389648</ele>
        <time>2013-04-21T13:20:49.000Z</time>
      </trkpt>
      <trkpt lat="45.84778" lon="6.15139">
        <ele>474.20001220703</ele>
        <time>2013-04-21T13:20:50.000Z</time>
      </trkpt>
      <trkpt lat="45.84781" lon="6.15137">
        <ele>473.79998779297</ele>
        <time>2013-04-21T13:20:51.000Z</time>
      </trkpt>
      <trkpt lat="45.84784" lon="6.15135">
        <ele>473.39999389648</ele>
        <time>2013-04-21T13:20:52.000Z</time>
      </trkpt>
      <trkpt lat="45.84788" lon="6.15133">
        <ele>473</ele>
        <time>2013-04-21T13:20:53.000Z</time>
      </trkpt>
      <trkpt lat="45.84792" lon="6.15131">
        <ele>472.79998779297</ele>
        <time>2013-04-21T13:20:54.000Z</time>
      </trkpt>
      <trkpt lat="45.84799" lon="6.15127">
        <ele>472.79998779297</ele>
        <time>2013-04-21T13:20:56.000Z</time>
      </trkpt>
      <trkpt lat="45.84817" lon="6.15114">
        <ele>472.79998779297</ele>
        <time>2013-04-21T13:21:01.000Z</time>
      </trkpt>
      <trkpt lat="45.8482" lon="6.15111">
        <ele>472.79998779297</ele>
        <time>2013-04-21T13:21:02.000Z</time>
      </trkpt>
      <trkpt lat="45.84838" lon="6.15099">
        <ele>472.79998779297</ele>
        <time>2013-04-21T13:21:07.000Z</time>
      </trkpt>
      <trkpt lat="45.84845" lon="6.15094">
        <ele>472.79998779297</ele>
        <time>2013-04-21T13:21:09.000Z</time>
      </trkpt>
      <trkpt lat="45.84862" lon="6.15083">
        <ele>472.79998779297</ele>
        <time>2013-04-21T13:21:14.000Z</time>
      </trkpt>
      <trkpt lat="45.84865" lon="6.15081">
        <ele>472.79998779297</ele>
        <time>2013-04-21T13:21:15.000Z</time>
      </trkpt>
      <trkpt lat="45.84883" lon="6.15071">
        <ele>472.79998779297</ele>
        <time>2013-04-21T13:21:20.000Z</time>
      </trkpt>
      <trkpt lat="45.84887" lon="6.15068">
        <ele>472.79998779297</ele>
        <time>2013-04-21T13:21:21.000Z</time>
      </trkpt>
      <trkpt lat="45.84906" lon="6.15058">
        <ele>472.79998779297</ele>
        <time>2013-04-21T13:21:26.000Z</time>
      </trkpt>
      <trkpt lat="45.8491" lon="6.15056">
        <ele>472.79998779297</ele>
        <time>2013-04-21T13:21:27.000Z</time>
      </trkpt>
      <trkpt lat="45.84926" lon="6.15046">
        <ele>472.79998779297</ele>
        <time>2013-04-21T13:21:32.000Z</time>
      </trkpt>
      <trkpt lat="45.84943" lon="6.15036">
        <ele>472.79998779297</ele>
        <time>2013-04-21T13:21:37.000Z</time>
      </trkpt>
      <trkpt lat="45.84946" lon="6.15034">
        <ele>472.79998779297</ele>
        <time>2013-04-21T13:21:38.000Z</time>
      </trkpt>
      <trkpt lat="45.84962" lon="6.15019">
        <ele>472.79998779297</ele>
        <time>2013-04-21T13:21:43.000Z</time>
      </trkpt>
      <trkpt lat="45.84969" lon="6.15014">
        <ele>472.79998779297</ele>
        <time>2013-04-21T13:21:45.000Z</time>
      </trkpt>
      <trkpt lat="45.84986" lon="6.15001">
        <ele>472.79998779297</ele>
        <time>2013-04-21T13:21:50.000Z</time>
      </trkpt>
      <trkpt lat="45.85002" lon="6.14991">
        <ele>472.79998779297</ele>
        <time>2013-04-21T13:21:55.000Z</time>
      </trkpt>
      <trkpt lat="45.8502" lon="6.14978">
        <ele>472.79998779297</ele>
        <time>2013-04-21T13:22:00.000Z</time>
      </trkpt>
      <trkpt lat="45.85023" lon="6.14975">
        <ele>472.79998779297</ele>
        <time>2013-04-21T13:22:01.000Z</time>
      </trkpt>
      <trkpt lat="45.85041" lon="6.14965">
        <ele>472.79998779297</ele>
        <time>2013-04-21T13:22:06.000Z</time>
      </trkpt>
      <trkpt lat="45.85045" lon="6.14963">
        <ele>472.79998779297</ele>
        <time>2013-04-21T13:22:07.000Z</time>
      </trkpt>
      <trkpt lat="45.85065" lon="6.14956">
        <ele>472.79998779297</ele>
        <time>2013-04-21T13:22:12.000Z</time>
      </trkpt>
      <trkpt lat="45.85083" lon="6.14951">
        <ele>472.79998779297</ele>
        <time>2013-04-21T13:22:17.000Z</time>
      </trkpt>
      <trkpt lat="45.85087" lon="6.14949">
        <ele>472.79998779297</ele>
        <time>2013-04-21T13:22:18.000Z</time>
      </trkpt>
      <trkpt lat="45.85104" lon="6.14937">
        <ele>472.79998779297</ele>
        <time>2013-04-21T13:22:23.000Z</time>
      </trkpt>
      <trkpt lat="45.85107" lon="6.14934">
        <ele>472.79998779297</ele>
        <time>2013-04-21T13:22:24.000Z</time>
      </trkpt>
      <trkpt lat="45.85121" lon="6.14915">
        <ele>472.79998779297</ele>
        <time>2013-04-21T13:22:29.000Z</time>
      </trkpt>
      <trkpt lat="45.85136" lon="6.14897">
        <ele>472.79998779297</ele>
        <time>2013-04-21T13:22:34.000Z</time>
      </trkpt>
      <trkpt lat="45.85138" lon="6.14894">
        <ele>472.79998779297</ele>
        <time>2013-04-21T13:22:35.000Z</time>
      </trkpt>
      <trkpt lat="45.85155" lon="6.14878">
        <ele>472.79998779297</ele>
        <time>2013-04-21T13:22:40.000Z</time>
      </trkpt>
      <trkpt lat="45.85161" lon="6.14872">
        <ele>472.79998779297</ele>
        <time>2013-04-21T13:22:42.000Z</time>
      </trkpt>
      <trkpt lat="45.85178" lon="6.14858">
        <ele>472.79998779297</ele>
        <time>2013-04-21T13:22:47.000Z</time>
      </trkpt>
      <trkpt lat="45.85189" lon="6.14847">
        <ele>472.79998779297</ele>
        <time>2013-04-21T13:22:51.000Z</time>
      </trkpt>
      <trkpt lat="45.85207" lon="6.14831">
        <ele>472.79998779297</ele>
        <time>2013-04-21T13:22:57.000Z</time>
      </trkpt>
      <trkpt lat="45.8522" lon="6.1482">
        <ele>472.79998779297</ele>
        <time>2013-04-21T13:23:01.000Z</time>
      </trkpt>
      <trkpt lat="45.85236" lon="6.14804">
        <ele>472.79998779297</ele>
        <time>2013-04-21T13:23:06.000Z</time>
      </trkpt>
      <trkpt lat="45.8525" lon="6.14792">
        <ele>472.60000610352</ele>
        <time>2013-04-21T13:23:10.000Z</time>
      </trkpt>
      <trkpt lat="45.85253" lon="6.14789">
        <ele>472.39999389648</ele>
        <time>2013-04-21T13:23:11.000Z</time>
      </trkpt>
      <trkpt lat="45.85257" lon="6.14785">
        <ele>472</ele>
        <time>2013-04-21T13:23:12.000Z</time>
      </trkpt>
      <trkpt lat="45.8526" lon="6.14782">
        <ele>471.79998779297</ele>
        <time>2013-04-21T13:23:13.000Z</time>
      </trkpt>
      <trkpt lat="45.85263" lon="6.14779">
        <ele>471.39999389648</ele>
        <time>2013-04-21T13:23:14.000Z</time>
      </trkpt>
      <trkpt lat="45.85267" lon="6.14776">
        <ele>471</ele>
        <time>2013-04-21T13:23:15.000Z</time>
      </trkpt>
      <trkpt lat="45.8527" lon="6.14773">
        <ele>470.60000610352</ele>
        <time>2013-04-21T13:23:16.000Z</time>
      </trkpt>
      <trkpt lat="45.85277" lon="6.14766">
        <ele>470.60000610352</ele>
        <time>2013-04-21T13:23:18.000Z</time>
      </trkpt>
      <trkpt lat="45.85294" lon="6.14751">
        <ele>470.60000610352</ele>
        <time>2013-04-21T13:23:23.000Z</time>
      </trkpt>
      <trkpt lat="45.85301" lon="6.14745">
        <ele>470.60000610352</ele>
        <time>2013-04-21T13:23:25.000Z</time>
      </trkpt>
      <trkpt lat="45.85307" lon="6.14739">
        <ele>470.60000610352</ele>
        <time>2013-04-21T13:23:27.000Z</time>
      </trkpt>
      <trkpt lat="45.8532" lon="6.14727">
        <ele>470.60000610352</ele>
        <time>2013-04-21T13:23:31.000Z</time>
      </trkpt>
      <trkpt lat="45.85336" lon="6.14713">
        <ele>470.60000610352</ele>
        <time>2013-04-21T13:23:36.000Z</time>
      </trkpt>
      <trkpt lat="45.85339" lon="6.1471">
        <ele>470.60000610352</ele>
        <time>2013-04-21T13:23:37.000Z</time>
      </trkpt>
      <trkpt lat="45.85357" lon="6.14697">
        <ele>470.60000610352</ele>
        <time>2013-04-21T13:23:42.000Z</time>
      </trkpt>
      <trkpt lat="45.85364" lon="6.14692">
        <ele>470.60000610352</ele>
        <time>2013-04-21T13:23:44.000Z</time>
      </trkpt>
      <trkpt lat="45.85382" lon="6.14681">
        <ele>470.60000610352</ele>
        <time>2013-04-21T13:23:49.000Z</time>
      </trkpt>
      <trkpt lat="45.85389" lon="6.14676">
        <ele>470.60000610352</ele>
        <time>2013-04-21T13:23:51.000Z</time>
      </trkpt>
      <trkpt lat="45.85406" lon="6.14665">
        <ele>470.60000610352</ele>
        <time>2013-04-21T13:23:56.000Z</time>
      </trkpt>
      <trkpt lat="45.8541" lon="6.14663">
        <ele>470.60000610352</ele>
        <time>2013-04-21T13:23:57.000Z</time>
      </trkpt>
      <trkpt lat="45.85413" lon="6.14661">
        <ele>470.60000610352</ele>
        <time>2013-04-21T13:23:58.000Z</time>
      </trkpt>
      <trkpt lat="45.85416" lon="6.1466">
        <ele>470.20001220703</ele>
        <time>2013-04-21T13:23:59.000Z</time>
      </trkpt>
      <trkpt lat="45.8542" lon="6.14658">
        <ele>469.79998779297</ele>
        <time>2013-04-21T13:24:00.000Z</time>
      </trkpt>
      <trkpt lat="45.85423" lon="6.14657">
        <ele>469.39999389648</ele>
        <time>2013-04-21T13:24:01.000Z</time>
      </trkpt>
      <trkpt lat="45.85427" lon="6.14656">
        <ele>469</ele>
        <time>2013-04-21T13:24:02.000Z</time>
      </trkpt>
      <trkpt lat="45.85431" lon="6.14655">
        <ele>468.60000610352</ele>
        <time>2013-04-21T13:24:03.000Z</time>
      </trkpt>
      <trkpt lat="45.8545" lon="6.1465">
        <ele>468.60000610352</ele>
        <time>2013-04-21T13:24:08.000Z</time>
      </trkpt>
      <trkpt lat="45.85457" lon="6.14646">
        <ele>468.60000610352</ele>
        <time>2013-04-21T13:24:10.000Z</time>
      </trkpt>
      <trkpt lat="45.85474" lon="6.14635">
        <ele>468.60000610352</ele>
        <time>2013-04-21T13:24:15.000Z</time>
      </trkpt>
      <trkpt lat="45.85477" lon="6.14635">
        <ele>468.60000610352</ele>
        <time>2013-04-21T13:24:16.000Z</time>
      </trkpt>
      <trkpt lat="45.85488" lon="6.14635">
        <ele>468.79998779297</ele>
        <time>2013-04-21T13:24:19.000Z</time>
      </trkpt>
      <trkpt lat="45.85491" lon="6.14634">
        <ele>469.20001220703</ele>
        <time>2013-04-21T13:24:20.000Z</time>
      </trkpt>
      <trkpt lat="45.85494" lon="6.14634">
        <ele>469.60000610352</ele>
        <time>2013-04-21T13:24:21.000Z</time>
      </trkpt>
      <trkpt lat="45.85498" lon="6.14634">
        <ele>470</ele>
        <time>2013-04-21T13:24:22.000Z</time>
      </trkpt>
      <trkpt lat="45.85501" lon="6.14634">
        <ele>470.39999389648</ele>
        <time>2013-04-21T13:24:23.000Z</time>
      </trkpt>
      <trkpt lat="45.85505" lon="6.14634">
        <ele>470.79998779297</ele>
        <time>2013-04-21T13:24:24.000Z</time>
      </trkpt>
      <trkpt lat="45.85523" lon="6.14632">
        <ele>470.79998779297</ele>
        <time>2013-04-21T13:24:29.000Z</time>
      </trkpt>
      <trkpt lat="45.8553" lon="6.14631">
        <ele>471.20001220703</ele>
        <time>2013-04-21T13:24:31.000Z</time>
      </trkpt>
      <trkpt lat="45.85533" lon="6.14631">
        <ele>471.60000610352</ele>
        <time>2013-04-21T13:24:32.000Z</time>
      </trkpt>
      <trkpt lat="45.85537" lon="6.14631">
        <ele>472.20001220703</ele>
        <time>2013-04-21T13:24:33.000Z</time>
      </trkpt>
      <trkpt lat="45.8554" lon="6.14631">
        <ele>472.60000610352</ele>
        <time>2013-04-21T13:24:34.000Z</time>
      </trkpt>
      <trkpt lat="45.85544" lon="6.1463">
        <ele>473</ele>
        <time>2013-04-21T13:24:35.000Z</time>
      </trkpt>
      <trkpt lat="45.85548" lon="6.14629">
        <ele>473.20001220703</ele>
        <time>2013-04-21T13:24:36.000Z</time>
      </trkpt>
      <trkpt lat="45.85551" lon="6.14629">
        <ele>473.20001220703</ele>
        <time>2013-04-21T13:24:37.000Z</time>
      </trkpt>
      <trkpt lat="45.8557" lon="6.14627">
        <ele>473.20001220703</ele>
        <time>2013-04-21T13:24:42.000Z</time>
      </trkpt>
      <trkpt lat="45.85573" lon="6.14627">
        <ele>473.20001220703</ele>
        <time>2013-04-21T13:24:43.000Z</time>
      </trkpt>
      <trkpt lat="45.85592" lon="6.14621">
        <ele>473.20001220703</ele>
        <time>2013-04-21T13:24:49.000Z</time>
      </trkpt>
      <trkpt lat="45.85605" lon="6.14617">
        <ele>473.20001220703</ele>
        <time>2013-04-21T13:24:54.000Z</time>
      </trkpt>
      <trkpt lat="45.85624" lon="6.14605">
        <ele>473.20001220703</ele>
        <time>2013-04-21T13:25:00.000Z</time>
      </trkpt>
      <trkpt lat="45.85627" lon="6.14603">
        <ele>473.20001220703</ele>
        <time>2013-04-21T13:25:01.000Z</time>
      </trkpt>
      <trkpt lat="45.85646" lon="6.14592">
        <ele>473.20001220703</ele>
        <time>2013-04-21T13:25:06.000Z</time>
      </trkpt>
      <trkpt lat="45.85664" lon="6.14579">
        <ele>473.20001220703</ele>
        <time>2013-04-21T13:25:11.000Z</time>
      </trkpt>
      <trkpt lat="45.85668" lon="6.14576">
        <ele>473.20001220703</ele>
        <time>2013-04-21T13:25:12.000Z</time>
      </trkpt>
      <trkpt lat="45.85686" lon="6.14561">
        <ele>473.20001220703</ele>
        <time>2013-04-21T13:25:17.000Z</time>
      </trkpt>
      <trkpt lat="45.8569" lon="6.14557">
        <ele>473.20001220703</ele>
        <time>2013-04-21T13:25:18.000Z</time>
      </trkpt>
      <trkpt lat="45.85705" lon="6.1454">
        <ele>473.20001220703</ele>
        <time>2013-04-21T13:25:23.000Z</time>
      </trkpt>
      <trkpt lat="45.85708" lon="6.14536">
        <ele>473.20001220703</ele>
        <time>2013-04-21T13:25:24.000Z</time>
      </trkpt>
      <trkpt lat="45.85723" lon="6.14518">
        <ele>473.20001220703</ele>
        <time>2013-04-21T13:25:29.000Z</time>
      </trkpt>
      <trkpt lat="45.85731" lon="6.14507">
        <ele>473.20001220703</ele>
        <time>2013-04-21T13:25:32.000Z</time>
      </trkpt>
      <trkpt lat="45.85744" lon="6.14485">
        <ele>473.20001220703</ele>
        <time>2013-04-21T13:25:37.000Z</time>
      </trkpt>
      <trkpt lat="45.85757" lon="6.14463">
        <ele>473.20001220703</ele>
        <time>2013-04-21T13:25:42.000Z</time>
      </trkpt>
      <trkpt lat="45.85762" lon="6.14454">
        <ele>473.20001220703</ele>
        <time>2013-04-21T13:25:44.000Z</time>
      </trkpt>
      <trkpt lat="45.85776" lon="6.14432">
        <ele>473</ele>
        <time>2013-04-21T13:25:49.000Z</time>
      </trkpt>
      <trkpt lat="45.85778" lon="6.14428">
        <ele>472.60000610352</ele>
        <time>2013-04-21T13:25:50.000Z</time>
      </trkpt>
      <trkpt lat="45.85781" lon="6.14424">
        <ele>472.20001220703</ele>
        <time>2013-04-21T13:25:51.000Z</time>
      </trkpt>
      <trkpt lat="45.85784" lon="6.14419">
        <ele>471.79998779297</ele>
        <time>2013-04-21T13:25:52.000Z</time>
      </trkpt>
      <trkpt lat="45.85786" lon="6.14414">
        <ele>471.39999389648</ele>
        <time>2013-04-21T13:25:53.000Z</time>
      </trkpt>
      <trkpt lat="45.85789" lon="6.14409">
        <ele>471</ele>
        <time>2013-04-21T13:25:54.000Z</time>
      </trkpt>
      <trkpt lat="45.85794" lon="6.14401">
        <ele>471</ele>
        <time>2013-04-21T13:25:56.000Z</time>
      </trkpt>
      <trkpt lat="45.858" lon="6.14392">
        <ele>471</ele>
        <time>2013-04-21T13:25:58.000Z</time>
      </trkpt>
      <trkpt lat="45.85808" lon="6.14381">
        <ele>471</ele>
        <time>2013-04-21T13:26:01.000Z</time>
      </trkpt>
      <trkpt lat="45.85823" lon="6.14361">
        <ele>471</ele>
        <time>2013-04-21T13:26:06.000Z</time>
      </trkpt>
      <trkpt lat="45.85826" lon="6.14357">
        <ele>471</ele>
        <time>2013-04-21T13:26:07.000Z</time>
      </trkpt>
      <trkpt lat="45.85841" lon="6.14339">
        <ele>471</ele>
        <time>2013-04-21T13:26:12.000Z</time>
      </trkpt>
      <trkpt lat="45.85844" lon="6.14336">
        <ele>471</ele>
        <time>2013-04-21T13:26:13.000Z</time>
      </trkpt>
      <trkpt lat="45.8586" lon="6.14321">
        <ele>471</ele>
        <time>2013-04-21T13:26:18.000Z</time>
      </trkpt>
      <trkpt lat="45.85867" lon="6.14315">
        <ele>471</ele>
        <time>2013-04-21T13:26:20.000Z</time>
      </trkpt>
      <trkpt lat="45.85884" lon="6.14303">
        <ele>471</ele>
        <time>2013-04-21T13:26:25.000Z</time>
      </trkpt>
      <trkpt lat="45.85887" lon="6.14301">
        <ele>471</ele>
        <time>2013-04-21T13:26:26.000Z</time>
      </trkpt>
      <trkpt lat="45.85906" lon="6.1429">
        <ele>471</ele>
        <time>2013-04-21T13:26:31.000Z</time>
      </trkpt>
      <trkpt lat="45.8591" lon="6.14289">
        <ele>471</ele>
        <time>2013-04-21T13:26:32.000Z</time>
      </trkpt>
      <trkpt lat="45.85925" lon="6.14284">
        <ele>471</ele>
        <time>2013-04-21T13:26:36.000Z</time>
      </trkpt>
      <trkpt lat="45.85943" lon="6.14277">
        <ele>471</ele>
        <time>2013-04-21T13:26:41.000Z</time>
      </trkpt>
      <trkpt lat="45.85947" lon="6.14275">
        <ele>471</ele>
        <time>2013-04-21T13:26:42.000Z</time>
      </trkpt>
      <trkpt lat="45.85961" lon="6.14257">
        <ele>471</ele>
        <time>2013-04-21T13:26:47.000Z</time>
      </trkpt>
      <trkpt lat="45.85974" lon="6.14241">
        <ele>471</ele>
        <time>2013-04-21T13:26:52.000Z</time>
      </trkpt>
      <trkpt lat="45.85985" lon="6.14232">
        <ele>471</ele>
        <time>2013-04-21T13:26:56.000Z</time>
      </trkpt>
      <trkpt lat="45.86004" lon="6.14226">
        <ele>471</ele>
        <time>2013-04-21T13:27:01.000Z</time>
      </trkpt>
      <trkpt lat="45.86022" lon="6.14225">
        <ele>471</ele>
        <time>2013-04-21T13:27:06.000Z</time>
      </trkpt>
      <trkpt lat="45.86027" lon="6.14225">
        <ele>471</ele>
        <time>2013-04-21T13:27:07.000Z</time>
      </trkpt>
      <trkpt lat="45.86046" lon="6.1423">
        <ele>471</ele>
        <time>2013-04-21T13:27:12.000Z</time>
      </trkpt>
      <trkpt lat="45.8605" lon="6.14231">
        <ele>471</ele>
        <time>2013-04-21T13:27:13.000Z</time>
      </trkpt>
      <trkpt lat="45.86069" lon="6.14238">
        <ele>471</ele>
        <time>2013-04-21T13:27:18.000Z</time>
      </trkpt>
      <trkpt lat="45.86073" lon="6.1424">
        <ele>471</ele>
        <time>2013-04-21T13:27:19.000Z</time>
      </trkpt>
      <trkpt lat="45.86087" lon="6.14247">
        <ele>471</ele>
        <time>2013-04-21T13:27:23.000Z</time>
      </trkpt>
      <trkpt lat="45.86093" lon="6.1425">
        <ele>471</ele>
        <time>2013-04-21T13:27:25.000Z</time>
      </trkpt>
      <trkpt lat="45.86112" lon="6.14259">
        <ele>471</ele>
        <time>2013-04-21T13:27:30.000Z</time>
      </trkpt>
      <trkpt lat="45.8613" lon="6.14268">
        <ele>471</ele>
        <time>2013-04-21T13:27:35.000Z</time>
      </trkpt>
      <trkpt lat="45.86134" lon="6.14269">
        <ele>471</ele>
        <time>2013-04-21T13:27:36.000Z</time>
      </trkpt>
      <trkpt lat="45.86151" lon="6.14278">
        <ele>471</ele>
        <time>2013-04-21T13:27:41.000Z</time>
      </trkpt>
      <trkpt lat="45.86159" lon="6.14281">
        <ele>471</ele>
        <time>2013-04-21T13:27:43.000Z</time>
      </trkpt>
      <trkpt lat="45.86178" lon="6.14288">
        <ele>471</ele>
        <time>2013-04-21T13:27:48.000Z</time>
      </trkpt>
      <trkpt lat="45.86186" lon="6.14291">
        <ele>471</ele>
        <time>2013-04-21T13:27:50.000Z</time>
      </trkpt>
      <trkpt lat="45.86203" lon="6.14299">
        <ele>471</ele>
        <time>2013-04-21T13:27:55.000Z</time>
      </trkpt>
      <trkpt lat="45.86207" lon="6.14301">
        <ele>471</ele>
        <time>2013-04-21T13:27:56.000Z</time>
      </trkpt>
      <trkpt lat="45.86223" lon="6.14318">
        <ele>471</ele>
        <time>2013-04-21T13:28:01.000Z</time>
      </trkpt>
      <trkpt lat="45.86237" lon="6.14336">
        <ele>471</ele>
        <time>2013-04-21T13:28:06.000Z</time>
      </trkpt>
      <trkpt lat="45.86253" lon="6.14348">
        <ele>471</ele>
        <time>2013-04-21T13:28:11.000Z</time>
      </trkpt>
      <trkpt lat="45.86271" lon="6.14356">
        <ele>471</ele>
        <time>2013-04-21T13:28:16.000Z</time>
      </trkpt>
      <trkpt lat="45.86287" lon="6.14364">
        <ele>471</ele>
        <time>2013-04-21T13:28:21.000Z</time>
      </trkpt>
      <trkpt lat="45.86308" lon="6.14372">
        <ele>471</ele>
        <time>2013-04-21T13:28:27.000Z</time>
      </trkpt>
      <trkpt lat="45.86326" lon="6.14377">
        <ele>471</ele>
        <time>2013-04-21T13:28:32.000Z</time>
      </trkpt>
      <trkpt lat="45.86334" lon="6.14378">
        <ele>471</ele>
        <time>2013-04-21T13:28:34.000Z</time>
      </trkpt>
      <trkpt lat="45.86353" lon="6.1438">
        <ele>471</ele>
        <time>2013-04-21T13:28:39.000Z</time>
      </trkpt>
      <trkpt lat="45.86364" lon="6.1438">
        <ele>471</ele>
        <time>2013-04-21T13:28:42.000Z</time>
      </trkpt>
      <trkpt lat="45.86383" lon="6.14381">
        <ele>471</ele>
        <time>2013-04-21T13:28:47.000Z</time>
      </trkpt>
      <trkpt lat="45.86394" lon="6.14381">
        <ele>471</ele>
        <time>2013-04-21T13:28:50.000Z</time>
      </trkpt>
      <trkpt lat="45.86415" lon="6.14381">
        <ele>471</ele>
        <time>2013-04-21T13:28:56.000Z</time>
      </trkpt>
      <trkpt lat="45.86418" lon="6.14381">
        <ele>471</ele>
        <time>2013-04-21T13:28:57.000Z</time>
      </trkpt>
      <trkpt lat="45.86439" lon="6.14381">
        <ele>471</ele>
        <time>2013-04-21T13:29:03.000Z</time>
      </trkpt>
      <trkpt lat="45.86443" lon="6.1438">
        <ele>471</ele>
        <time>2013-04-21T13:29:04.000Z</time>
      </trkpt>
      <trkpt lat="45.86464" lon="6.14378">
        <ele>471</ele>
        <time>2013-04-21T13:29:10.000Z</time>
      </trkpt>
      <trkpt lat="45.86483" lon="6.14378">
        <ele>471</ele>
        <time>2013-04-21T13:29:15.000Z</time>
      </trkpt>
      <trkpt lat="45.8649" lon="6.14377">
        <ele>471</ele>
        <time>2013-04-21T13:29:17.000Z</time>
      </trkpt>
      <trkpt lat="45.86509" lon="6.14377">
        <ele>471</ele>
        <time>2013-04-21T13:29:22.000Z</time>
      </trkpt>
      <trkpt lat="45.86517" lon="6.14378">
        <ele>471</ele>
        <time>2013-04-21T13:29:24.000Z</time>
      </trkpt>
      <trkpt lat="45.86535" lon="6.14378">
        <ele>471</ele>
        <time>2013-04-21T13:29:29.000Z</time>
      </trkpt>
      <trkpt lat="45.86542" lon="6.14378">
        <ele>471</ele>
        <time>2013-04-21T13:29:31.000Z</time>
      </trkpt>
      <trkpt lat="45.86561" lon="6.14378">
        <ele>471</ele>
        <time>2013-04-21T13:29:36.000Z</time>
      </trkpt>
      <trkpt lat="45.86569" lon="6.14379">
        <ele>471</ele>
        <time>2013-04-21T13:29:38.000Z</time>
      </trkpt>
      <trkpt lat="45.86588" lon="6.14378">
        <ele>471</ele>
        <time>2013-04-21T13:29:43.000Z</time>
      </trkpt>
      <trkpt lat="45.86591" lon="6.14378">
        <ele>471</ele>
        <time>2013-04-21T13:29:44.000Z</time>
      </trkpt>
      <trkpt lat="45.86611" lon="6.14374">
        <ele>471</ele>
        <time>2013-04-21T13:29:49.000Z</time>
      </trkpt>
      <trkpt lat="45.86614" lon="6.14373">
        <ele>471</ele>
        <time>2013-04-21T13:29:50.000Z</time>
      </trkpt>
      <trkpt lat="45.86631" lon="6.14366">
        <ele>471</ele>
        <time>2013-04-21T13:29:55.000Z</time>
      </trkpt>
      <trkpt lat="45.86648" lon="6.14359">
        <ele>471</ele>
        <time>2013-04-21T13:30:00.000Z</time>
      </trkpt>
      <trkpt lat="45.86652" lon="6.14358">
        <ele>471</ele>
        <time>2013-04-21T13:30:01.000Z</time>
      </trkpt>
      <trkpt lat="45.86669" lon="6.14349">
        <ele>471</ele>
        <time>2013-04-21T13:30:06.000Z</time>
      </trkpt>
      <trkpt lat="45.86672" lon="6.14347">
        <ele>471</ele>
        <time>2013-04-21T13:30:07.000Z</time>
      </trkpt>
      <trkpt lat="45.8669" lon="6.14337">
        <ele>471</ele>
        <time>2013-04-21T13:30:12.000Z</time>
      </trkpt>
      <trkpt lat="45.86693" lon="6.14335">
        <ele>471</ele>
        <time>2013-04-21T13:30:13.000Z</time>
      </trkpt>
      <trkpt lat="45.8671" lon="6.14325">
        <ele>471</ele>
        <time>2013-04-21T13:30:18.000Z</time>
      </trkpt>
      <trkpt lat="45.86713" lon="6.14322">
        <ele>471</ele>
        <time>2013-04-21T13:30:19.000Z</time>
      </trkpt>
      <trkpt lat="45.8673" lon="6.14311">
        <ele>471</ele>
        <time>2013-04-21T13:30:24.000Z</time>
      </trkpt>
      <trkpt lat="45.8674" lon="6.14305">
        <ele>471</ele>
        <time>2013-04-21T13:30:27.000Z</time>
      </trkpt>
      <trkpt lat="45.86757" lon="6.14294">
        <ele>471</ele>
        <time>2013-04-21T13:30:32.000Z</time>
      </trkpt>
      <trkpt lat="45.86764" lon="6.1429">
        <ele>471</ele>
        <time>2013-04-21T13:30:34.000Z</time>
      </trkpt>
      <trkpt lat="45.86781" lon="6.14281">
        <ele>471</ele>
        <time>2013-04-21T13:30:39.000Z</time>
      </trkpt>
      <trkpt lat="45.86788" lon="6.14277">
        <ele>471</ele>
        <time>2013-04-21T13:30:41.000Z</time>
      </trkpt>
      <trkpt lat="45.86806" lon="6.1427">
        <ele>471</ele>
        <time>2013-04-21T13:30:46.000Z</time>
      </trkpt>
      <trkpt lat="45.86814" lon="6.14267">
        <ele>471</ele>
        <time>2013-04-21T13:30:48.000Z</time>
      </trkpt>
      <trkpt lat="45.86832" lon="6.14262">
        <ele>471</ele>
        <time>2013-04-21T13:30:53.000Z</time>
      </trkpt>
      <trkpt lat="45.86839" lon="6.1426">
        <ele>471</ele>
        <time>2013-04-21T13:30:55.000Z</time>
      </trkpt>
      <trkpt lat="45.86858" lon="6.14259">
        <ele>471</ele>
        <time>2013-04-21T13:31:00.000Z</time>
      </trkpt>
      <trkpt lat="45.86861" lon="6.14259">
        <ele>471</ele>
        <time>2013-04-21T13:31:01.000Z</time>
      </trkpt>
      <trkpt lat="45.86869" lon="6.14258">
        <ele>471</ele>
        <time>2013-04-21T13:31:03.000Z</time>
      </trkpt>
      <trkpt lat="45.8689" lon="6.1426">
        <ele>471</ele>
        <time>2013-04-21T13:31:09.000Z</time>
      </trkpt>
      <trkpt lat="45.86908" lon="6.14263">
        <ele>471.60000610352</ele>
        <time>2013-04-21T13:31:14.000Z</time>
      </trkpt>
      <trkpt lat="45.86912" lon="6.14265">
        <ele>472</ele>
        <time>2013-04-21T13:31:15.000Z</time>
      </trkpt>
      <trkpt lat="45.86915" lon="6.14266">
        <ele>472.39999389648</ele>
        <time>2013-04-21T13:31:16.000Z</time>
      </trkpt>
      <trkpt lat="45.86918" lon="6.14267">
        <ele>472.79998779297</ele>
        <time>2013-04-21T13:31:17.000Z</time>
      </trkpt>
      <trkpt lat="45.86922" lon="6.14268">
        <ele>473.20001220703</ele>
        <time>2013-04-21T13:31:18.000Z</time>
      </trkpt>
      <trkpt lat="45.86925" lon="6.14269">
        <ele>472.79998779297</ele>
        <time>2013-04-21T13:31:19.000Z</time>
      </trkpt>
      <trkpt lat="45.86928" lon="6.1427">
        <ele>472.20001220703</ele>
        <time>2013-04-21T13:31:20.000Z</time>
      </trkpt>
      <trkpt lat="45.86931" lon="6.14271">
        <ele>471.79998779297</ele>
        <time>2013-04-21T13:31:21.000Z</time>
      </trkpt>
      <trkpt lat="45.86934" lon="6.14272">
        <ele>471.39999389648</ele>
        <time>2013-04-21T13:31:22.000Z</time>
      </trkpt>
      <trkpt lat="45.86937" lon="6.14274">
        <ele>471</ele>
        <time>2013-04-21T13:31:23.000Z</time>
      </trkpt>
      <trkpt lat="45.86944" lon="6.14277">
        <ele>471</ele>
        <time>2013-04-21T13:31:25.000Z</time>
      </trkpt>
      <trkpt lat="45.86951" lon="6.1428">
        <ele>471</ele>
        <time>2013-04-21T13:31:27.000Z</time>
      </trkpt>
      <trkpt lat="45.8696" lon="6.14284">
        <ele>471</ele>
        <time>2013-04-21T13:31:30.000Z</time>
      </trkpt>
      <trkpt lat="45.86971" lon="6.1429">
        <ele>471</ele>
        <time>2013-04-21T13:31:34.000Z</time>
      </trkpt>
      <trkpt lat="45.86988" lon="6.14298">
        <ele>471.20001220703</ele>
        <time>2013-04-21T13:31:38.000Z</time>
      </trkpt>
      <trkpt lat="45.86991" lon="6.143">
        <ele>471.79998779297</ele>
        <time>2013-04-21T13:31:39.000Z</time>
      </trkpt>
      <trkpt lat="45.86995" lon="6.14301">
        <ele>472.20001220703</ele>
        <time>2013-04-21T13:31:40.000Z</time>
      </trkpt>
      <trkpt lat="45.86998" lon="6.14303">
        <ele>472.39999389648</ele>
        <time>2013-04-21T13:31:41.000Z</time>
      </trkpt>
      <trkpt lat="45.87002" lon="6.14306">
        <ele>472.79998779297</ele>
        <time>2013-04-21T13:31:42.000Z</time>
      </trkpt>
      <trkpt lat="45.87006" lon="6.14308">
        <ele>473.20001220703</ele>
        <time>2013-04-21T13:31:43.000Z</time>
      </trkpt>
      <trkpt lat="45.87016" lon="6.14314">
        <ele>473.20001220703</ele>
        <time>2013-04-21T13:31:46.000Z</time>
      </trkpt>
      <trkpt lat="45.87034" lon="6.14323">
        <ele>473.20001220703</ele>
        <time>2013-04-21T13:31:51.000Z</time>
      </trkpt>
      <trkpt lat="45.87042" lon="6.14328">
        <ele>473.20001220703</ele>
        <time>2013-04-21T13:31:53.000Z</time>
      </trkpt>
      <trkpt lat="45.87052" lon="6.14334">
        <ele>473.20001220703</ele>
        <time>2013-04-21T13:31:56.000Z</time>
      </trkpt>
      <trkpt lat="45.8707" lon="6.14343">
        <ele>473.20001220703</ele>
        <time>2013-04-21T13:32:01.000Z</time>
      </trkpt>
      <trkpt lat="45.87074" lon="6.14344">
        <ele>473.20001220703</ele>
        <time>2013-04-21T13:32:02.000Z</time>
      </trkpt>
      <trkpt lat="45.87089" lon="6.14351">
        <ele>473.20001220703</ele>
        <time>2013-04-21T13:32:06.000Z</time>
      </trkpt>
      <trkpt lat="45.87105" lon="6.14357">
        <ele>473.20001220703</ele>
        <time>2013-04-21T13:32:10.000Z</time>
      </trkpt>
      <trkpt lat="45.87121" lon="6.14365">
        <ele>473.20001220703</ele>
        <time>2013-04-21T13:32:15.000Z</time>
      </trkpt>
      <trkpt lat="45.8714" lon="6.14372">
        <ele>473.20001220703</ele>
        <time>2013-04-21T13:32:20.000Z</time>
      </trkpt>
      <trkpt lat="45.87158" lon="6.14376">
        <ele>473.20001220703</ele>
        <time>2013-04-21T13:32:25.000Z</time>
      </trkpt>
      <trkpt lat="45.87176" lon="6.14377">
        <ele>473.20001220703</ele>
        <time>2013-04-21T13:32:30.000Z</time>
      </trkpt>
      <trkpt lat="45.87186" lon="6.14379">
        <ele>473.20001220703</ele>
        <time>2013-04-21T13:32:32.000Z</time>
      </trkpt>
      <trkpt lat="45.87198" lon="6.1438">
        <ele>473.20001220703</ele>
        <time>2013-04-21T13:32:35.000Z</time>
      </trkpt>
      <trkpt lat="45.87212" lon="6.1438">
        <ele>473.20001220703</ele>
        <time>2013-04-21T13:32:39.000Z</time>
      </trkpt>
      <trkpt lat="45.87232" lon="6.14378">
        <ele>473.20001220703</ele>
        <time>2013-04-21T13:32:45.000Z</time>
      </trkpt>
      <trkpt lat="45.8725" lon="6.14375">
        <ele>473.20001220703</ele>
        <time>2013-04-21T13:32:50.000Z</time>
      </trkpt>
      <trkpt lat="45.87257" lon="6.14373">
        <ele>473.20001220703</ele>
        <time>2013-04-21T13:32:52.000Z</time>
      </trkpt>
      <trkpt lat="45.87273" lon="6.14369">
        <ele>473.20001220703</ele>
        <time>2013-04-21T13:32:56.000Z</time>
      </trkpt>
      <trkpt lat="45.87294" lon="6.1436">
        <ele>473.20001220703</ele>
        <time>2013-04-21T13:33:02.000Z</time>
      </trkpt>
      <trkpt lat="45.87297" lon="6.14359">
        <ele>473.20001220703</ele>
        <time>2013-04-21T13:33:03.000Z</time>
      </trkpt>
      <trkpt lat="45.87317" lon="6.1435">
        <ele>473.20001220703</ele>
        <time>2013-04-21T13:33:09.000Z</time>
      </trkpt>
      <trkpt lat="45.87333" lon="6.14344">
        <ele>473.20001220703</ele>
        <time>2013-04-21T13:33:13.000Z</time>
      </trkpt>
      <trkpt lat="45.87353" lon="6.14339">
        <ele>473.20001220703</ele>
        <time>2013-04-21T13:33:18.000Z</time>
      </trkpt>
      <trkpt lat="45.87371" lon="6.14332">
        <ele>473.20001220703</ele>
        <time>2013-04-21T13:33:23.000Z</time>
      </trkpt>
      <trkpt lat="45.87375" lon="6.14331">
        <ele>473.20001220703</ele>
        <time>2013-04-21T13:33:24.000Z</time>
      </trkpt>
      <trkpt lat="45.87393" lon="6.14325">
        <ele>473.20001220703</ele>
        <time>2013-04-21T13:33:29.000Z</time>
      </trkpt>
      <trkpt lat="45.87398" lon="6.14323">
        <ele>473.20001220703</ele>
        <time>2013-04-21T13:33:30.000Z</time>
      </trkpt>
      <trkpt lat="45.87412" lon="6.14317">
        <ele>473.20001220703</ele>
        <time>2013-04-21T13:33:34.000Z</time>
      </trkpt>
      <trkpt lat="45.87431" lon="6.14311">
        <ele>473.20001220703</ele>
        <time>2013-04-21T13:33:39.000Z</time>
      </trkpt>
      <trkpt lat="45.87433" lon="6.14309">
        <ele>473.20001220703</ele>
        <time>2013-04-21T13:33:40.000Z</time>
      </trkpt>
      <trkpt lat="45.87453" lon="6.14306">
        <ele>473.20001220703</ele>
        <time>2013-04-21T13:33:45.000Z</time>
      </trkpt>
      <trkpt lat="45.8747" lon="6.14303">
        <ele>473.20001220703</ele>
        <time>2013-04-21T13:33:50.000Z</time>
      </trkpt>
      <trkpt lat="45.87487" lon="6.143">
        <ele>473.20001220703</ele>
        <time>2013-04-21T13:33:55.000Z</time>
      </trkpt>
      <trkpt lat="45.87498" lon="6.14298">
        <ele>472.79998779297</ele>
        <time>2013-04-21T13:33:58.000Z</time>
      </trkpt>
      <trkpt lat="45.8751" lon="6.14297">
        <ele>472.79998779297</ele>
        <time>2013-04-21T13:34:01.000Z</time>
      </trkpt>
      <trkpt lat="45.87529" lon="6.14297">
        <ele>472.79998779297</ele>
        <time>2013-04-21T13:34:06.000Z</time>
      </trkpt>
      <trkpt lat="45.87537" lon="6.14297">
        <ele>472.79998779297</ele>
        <time>2013-04-21T13:34:08.000Z</time>
      </trkpt>
      <trkpt lat="45.87556" lon="6.14297">
        <ele>472.79998779297</ele>
        <time>2013-04-21T13:34:13.000Z</time>
      </trkpt>
      <trkpt lat="45.8756" lon="6.14297">
        <ele>472.79998779297</ele>
        <time>2013-04-21T13:34:14.000Z</time>
      </trkpt>
      <trkpt lat="45.87579" lon="6.14298">
        <ele>472.79998779297</ele>
        <time>2013-04-21T13:34:19.000Z</time>
      </trkpt>
      <trkpt lat="45.87583" lon="6.14297">
        <ele>472.79998779297</ele>
        <time>2013-04-21T13:34:20.000Z</time>
      </trkpt>
      <trkpt lat="45.87603" lon="6.14297">
        <ele>472.79998779297</ele>
        <time>2013-04-21T13:34:25.000Z</time>
      </trkpt>
      <trkpt lat="45.87611" lon="6.14297">
        <ele>472.79998779297</ele>
        <time>2013-04-21T13:34:27.000Z</time>
      </trkpt>
      <trkpt lat="45.87631" lon="6.14297">
        <ele>472.79998779297</ele>
        <time>2013-04-21T13:34:32.000Z</time>
      </trkpt>
      <trkpt lat="45.87639" lon="6.14297">
        <ele>472.79998779297</ele>
        <time>2013-04-21T13:34:34.000Z</time>
      </trkpt>
      <trkpt lat="45.87659" lon="6.14296">
        <ele>472.79998779297</ele>
        <time>2013-04-21T13:34:39.000Z</time>
      </trkpt>
      <trkpt lat="45.87662" lon="6.14295">
        <ele>472.79998779297</ele>
        <time>2013-04-21T13:34:40.000Z</time>
      </trkpt>
      <trkpt lat="45.87666" lon="6.14295">
        <ele>474</ele>
        <time>2013-04-21T13:34:41.000Z</time>
      </trkpt>
      <trkpt lat="45.87684" lon="6.1429">
        <ele>474.39999389648</ele>
        <time>2013-04-21T13:34:46.000Z</time>
      </trkpt>
      <trkpt lat="45.87688" lon="6.1429">
        <ele>474.60000610352</ele>
        <time>2013-04-21T13:34:47.000Z</time>
      </trkpt>
      <trkpt lat="45.87692" lon="6.14289">
        <ele>475</ele>
        <time>2013-04-21T13:34:48.000Z</time>
      </trkpt>
      <trkpt lat="45.87696" lon="6.14288">
        <ele>474.79998779297</ele>
        <time>2013-04-21T13:34:49.000Z</time>
      </trkpt>
      <trkpt lat="45.877" lon="6.14288">
        <ele>474.79998779297</ele>
        <time>2013-04-21T13:34:50.000Z</time>
      </trkpt>
      <trkpt lat="45.87703" lon="6.14287">
        <ele>474</ele>
        <time>2013-04-21T13:34:51.000Z</time>
      </trkpt>
      <trkpt lat="45.8771" lon="6.14286">
        <ele>474</ele>
        <time>2013-04-21T13:34:53.000Z</time>
      </trkpt>
      <trkpt lat="45.87731" lon="6.14282">
        <ele>474</ele>
        <time>2013-04-21T13:34:58.000Z</time>
      </trkpt>
      <trkpt lat="45.87738" lon="6.14279">
        <ele>474</ele>
        <time>2013-04-21T13:35:00.000Z</time>
      </trkpt>
      <trkpt lat="45.87742" lon="6.14278">
        <ele>474</ele>
        <time>2013-04-21T13:35:01.000Z</time>
      </trkpt>
      <trkpt lat="45.8776" lon="6.14272">
        <ele>474</ele>
        <time>2013-04-21T13:35:06.000Z</time>
      </trkpt>
      <trkpt lat="45.87764" lon="6.14271">
        <ele>474.20001220703</ele>
        <time>2013-04-21T13:35:07.000Z</time>
      </trkpt>
      <trkpt lat="45.87768" lon="6.1427">
        <ele>474.39999389648</ele>
        <time>2013-04-21T13:35:08.000Z</time>
      </trkpt>
      <trkpt lat="45.87772" lon="6.14269">
        <ele>475</ele>
        <time>2013-04-21T13:35:09.000Z</time>
      </trkpt>
      <trkpt lat="45.87775" lon="6.14268">
        <ele>475.39999389648</ele>
        <time>2013-04-21T13:35:10.000Z</time>
      </trkpt>
      <trkpt lat="45.87779" lon="6.14267">
        <ele>475.79998779297</ele>
        <time>2013-04-21T13:35:11.000Z</time>
      </trkpt>
      <trkpt lat="45.87783" lon="6.14266">
        <ele>476.20001220703</ele>
        <time>2013-04-21T13:35:12.000Z</time>
      </trkpt>
      <trkpt lat="45.87791" lon="6.14264">
        <ele>476.20001220703</ele>
        <time>2013-04-21T13:35:14.000Z</time>
      </trkpt>
      <trkpt lat="45.87809" lon="6.14259">
        <ele>476.20001220703</ele>
        <time>2013-04-21T13:35:19.000Z</time>
      </trkpt>
      <trkpt lat="45.87813" lon="6.14258">
        <ele>476.20001220703</ele>
        <time>2013-04-21T13:35:20.000Z</time>
      </trkpt>
      <trkpt lat="45.87831" lon="6.14255">
        <ele>476.20001220703</ele>
        <time>2013-04-21T13:35:25.000Z</time>
      </trkpt>
      <trkpt lat="45.87834" lon="6.14254">
        <ele>476.20001220703</ele>
        <time>2013-04-21T13:35:26.000Z</time>
      </trkpt>
      <trkpt lat="45.87853" lon="6.14252">
        <ele>476.20001220703</ele>
        <time>2013-04-21T13:35:31.000Z</time>
      </trkpt>
      <trkpt lat="45.87857" lon="6.14251">
        <ele>476.20001220703</ele>
        <time>2013-04-21T13:35:32.000Z</time>
      </trkpt>
      <trkpt lat="45.87873" lon="6.14251">
        <ele>476.20001220703</ele>
        <time>2013-04-21T13:35:37.000Z</time>
      </trkpt>
      <trkpt lat="45.8789" lon="6.14252">
        <ele>476.20001220703</ele>
        <time>2013-04-21T13:35:41.000Z</time>
      </trkpt>
      <trkpt lat="45.87906" lon="6.14252">
        <ele>476.20001220703</ele>
        <time>2013-04-21T13:35:45.000Z</time>
      </trkpt>
      <trkpt lat="45.87925" lon="6.14252">
        <ele>476.20001220703</ele>
        <time>2013-04-21T13:35:50.000Z</time>
      </trkpt>
      <trkpt lat="45.8794" lon="6.14253">
        <ele>476.39999389648</ele>
        <time>2013-04-21T13:35:54.000Z</time>
      </trkpt>
      <trkpt lat="45.87944" lon="6.14254">
        <ele>476.39999389648</ele>
        <time>2013-04-21T13:35:55.000Z</time>
      </trkpt>
      <trkpt lat="45.87963" lon="6.14254">
        <ele>476.39999389648</ele>
        <time>2013-04-21T13:36:00.000Z</time>
      </trkpt>
      <trkpt lat="45.87966" lon="6.14254">
        <ele>476.39999389648</ele>
        <time>2013-04-21T13:36:01.000Z</time>
      </trkpt>
      <trkpt lat="45.87974" lon="6.14255">
        <ele>475</ele>
        <time>2013-04-21T13:36:03.000Z</time>
      </trkpt>
      <trkpt lat="45.87985" lon="6.14255">
        <ele>475</ele>
        <time>2013-04-21T13:36:06.000Z</time>
      </trkpt>
      <trkpt lat="45.88003" lon="6.14255">
        <ele>475</ele>
        <time>2013-04-21T13:36:11.000Z</time>
      </trkpt>
      <trkpt lat="45.8802" lon="6.14253">
        <ele>475</ele>
        <time>2013-04-21T13:36:16.000Z</time>
      </trkpt>
      <trkpt lat="45.88036" lon="6.14249">
        <ele>475</ele>
        <time>2013-04-21T13:36:21.000Z</time>
      </trkpt>
      <trkpt lat="45.8805" lon="6.14243">
        <ele>475</ele>
        <time>2013-04-21T13:36:25.000Z</time>
      </trkpt>
      <trkpt lat="45.88069" lon="6.14236">
        <ele>475</ele>
        <time>2013-04-21T13:36:30.000Z</time>
      </trkpt>
      <trkpt lat="45.88082" lon="6.14228">
        <ele>475</ele>
        <time>2013-04-21T13:36:34.000Z</time>
      </trkpt>
      <trkpt lat="45.88094" lon="6.14223">
        <ele>475</ele>
        <time>2013-04-21T13:36:38.000Z</time>
      </trkpt>
      <trkpt lat="45.88107" lon="6.14214">
        <ele>475</ele>
        <time>2013-04-21T13:36:42.000Z</time>
      </trkpt>
      <trkpt lat="45.88124" lon="6.14202">
        <ele>474.79998779297</ele>
        <time>2013-04-21T13:36:47.000Z</time>
      </trkpt>
      <trkpt lat="45.88136" lon="6.14196">
        <ele>474.79998779297</ele>
        <time>2013-04-21T13:36:51.000Z</time>
      </trkpt>
      <trkpt lat="45.88148" lon="6.14195">
        <ele>475.20001220703</ele>
        <time>2013-04-21T13:36:54.000Z</time>
      </trkpt>
      <trkpt lat="45.88152" lon="6.14194">
        <ele>475.39999389648</ele>
        <time>2013-04-21T13:36:55.000Z</time>
      </trkpt>
      <trkpt lat="45.88155" lon="6.14194">
        <ele>475.60000610352</ele>
        <time>2013-04-21T13:36:56.000Z</time>
      </trkpt>
      <trkpt lat="45.88159" lon="6.14193">
        <ele>476.20001220703</ele>
        <time>2013-04-21T13:36:57.000Z</time>
      </trkpt>
      <trkpt lat="45.88162" lon="6.14193">
        <ele>476.60000610352</ele>
        <time>2013-04-21T13:36:58.000Z</time>
      </trkpt>
      <trkpt lat="45.88167" lon="6.14193">
        <ele>477</ele>
        <time>2013-04-21T13:36:59.000Z</time>
      </trkpt>
      <trkpt lat="45.88175" lon="6.14192">
        <ele>477</ele>
        <time>2013-04-21T13:37:01.000Z</time>
      </trkpt>
      <trkpt lat="45.88196" lon="6.14191">
        <ele>477</ele>
        <time>2013-04-21T13:37:06.000Z</time>
      </trkpt>
      <trkpt lat="45.88199" lon="6.14191">
        <ele>476.79998779297</ele>
        <time>2013-04-21T13:37:07.000Z</time>
      </trkpt>
      <trkpt lat="45.88203" lon="6.14191">
        <ele>476.39999389648</ele>
        <time>2013-04-21T13:37:08.000Z</time>
      </trkpt>
      <trkpt lat="45.88207" lon="6.14191">
        <ele>476</ele>
        <time>2013-04-21T13:37:09.000Z</time>
      </trkpt>
      <trkpt lat="45.88212" lon="6.14191">
        <ele>475.79998779297</ele>
        <time>2013-04-21T13:37:10.000Z</time>
      </trkpt>
      <trkpt lat="45.88216" lon="6.14191">
        <ele>475.39999389648</ele>
        <time>2013-04-21T13:37:11.000Z</time>
      </trkpt>
      <trkpt lat="45.88221" lon="6.14191">
        <ele>475.20001220703</ele>
        <time>2013-04-21T13:37:12.000Z</time>
      </trkpt>
      <trkpt lat="45.88225" lon="6.1419">
        <ele>474.79998779297</ele>
        <time>2013-04-21T13:37:13.000Z</time>
      </trkpt>
      <trkpt lat="45.88229" lon="6.14189">
        <ele>474.79998779297</ele>
        <time>2013-04-21T13:37:14.000Z</time>
      </trkpt>
      <trkpt lat="45.88233" lon="6.14189">
        <ele>474.79998779297</ele>
        <time>2013-04-21T13:37:15.000Z</time>
      </trkpt>
      <trkpt lat="45.88245" lon="6.14185">
        <ele>474.79998779297</ele>
        <time>2013-04-21T13:37:18.000Z</time>
      </trkpt>
      <trkpt lat="45.88249" lon="6.14186">
        <ele>474.60000610352</ele>
        <time>2013-04-21T13:37:20.000Z</time>
      </trkpt>
      <trkpt lat="45.88253" lon="6.14186">
        <ele>474.20001220703</ele>
        <time>2013-04-21T13:37:21.000Z</time>
      </trkpt>
      <trkpt lat="45.88258" lon="6.14187">
        <ele>473.79998779297</ele>
        <time>2013-04-21T13:37:22.000Z</time>
      </trkpt>
      <trkpt lat="45.88262" lon="6.14186">
        <ele>473.39999389648</ele>
        <time>2013-04-21T13:37:23.000Z</time>
      </trkpt>
      <trkpt lat="45.88267" lon="6.14187">
        <ele>473</ele>
        <time>2013-04-21T13:37:24.000Z</time>
      </trkpt>
      <trkpt lat="45.8827" lon="6.14188">
        <ele>472.79998779297</ele>
        <time>2013-04-21T13:37:25.000Z</time>
      </trkpt>
      <trkpt lat="45.88286" lon="6.1419">
        <ele>472.79998779297</ele>
        <time>2013-04-21T13:37:29.000Z</time>
      </trkpt>
      <trkpt lat="45.88302" lon="6.14193">
        <ele>472.79998779297</ele>
        <time>2013-04-21T13:37:34.000Z</time>
      </trkpt>
      <trkpt lat="45.88306" lon="6.14193">
        <ele>472.60000610352</ele>
        <time>2013-04-21T13:37:35.000Z</time>
      </trkpt>
      <trkpt lat="45.8831" lon="6.14194">
        <ele>472.20001220703</ele>
        <time>2013-04-21T13:37:36.000Z</time>
      </trkpt>
      <trkpt lat="45.88314" lon="6.14195">
        <ele>471.79998779297</ele>
        <time>2013-04-21T13:37:37.000Z</time>
      </trkpt>
      <trkpt lat="45.88317" lon="6.14195">
        <ele>471.39999389648</ele>
        <time>2013-04-21T13:37:38.000Z</time>
      </trkpt>
      <trkpt lat="45.88321" lon="6.14196">
        <ele>471</ele>
        <time>2013-04-21T13:37:39.000Z</time>
      </trkpt>
      <trkpt lat="45.88326" lon="6.14196">
        <ele>470.79998779297</ele>
        <time>2013-04-21T13:37:40.000Z</time>
      </trkpt>
      <trkpt lat="45.88344" lon="6.14201">
        <ele>470.79998779297</ele>
        <time>2013-04-21T13:37:45.000Z</time>
      </trkpt>
      <trkpt lat="45.88363" lon="6.14205">
        <ele>470.79998779297</ele>
        <time>2013-04-21T13:37:50.000Z</time>
      </trkpt>
      <trkpt lat="45.88368" lon="6.14206">
        <ele>470.79998779297</ele>
        <time>2013-04-21T13:37:51.000Z</time>
      </trkpt>
      <trkpt lat="45.88387" lon="6.1421">
        <ele>470.79998779297</ele>
        <time>2013-04-21T13:37:56.000Z</time>
      </trkpt>
      <trkpt lat="45.88405" lon="6.14216">
        <ele>470.79998779297</ele>
        <time>2013-04-21T13:38:01.000Z</time>
      </trkpt>
      <trkpt lat="45.88425" lon="6.14218">
        <ele>470.79998779297</ele>
        <time>2013-04-21T13:38:06.000Z</time>
      </trkpt>
      <trkpt lat="45.88441" lon="6.14223">
        <ele>470.79998779297</ele>
        <time>2013-04-21T13:38:10.000Z</time>
      </trkpt>
      <trkpt lat="45.88459" lon="6.14227">
        <ele>470.79998779297</ele>
        <time>2013-04-21T13:38:15.000Z</time>
      </trkpt>
      <trkpt lat="45.88473" lon="6.14231">
        <ele>470.79998779297</ele>
        <time>2013-04-21T13:38:19.000Z</time>
      </trkpt>
      <trkpt lat="45.88484" lon="6.14233">
        <ele>470.79998779297</ele>
        <time>2013-04-21T13:38:23.000Z</time>
      </trkpt>
      <trkpt lat="45.88487" lon="6.14233">
        <ele>470.39999389648</ele>
        <time>2013-04-21T13:38:24.000Z</time>
      </trkpt>
      <trkpt lat="45.88497" lon="6.14238">
        <ele>470.39999389648</ele>
        <time>2013-04-21T13:38:27.000Z</time>
      </trkpt>
      <trkpt lat="45.88516" lon="6.14242">
        <ele>470.39999389648</ele>
        <time>2013-04-21T13:38:32.000Z</time>
      </trkpt>
      <trkpt lat="45.88523" lon="6.14244">
        <ele>470.39999389648</ele>
        <time>2013-04-21T13:38:34.000Z</time>
      </trkpt>
      <trkpt lat="45.88536" lon="6.14249">
        <ele>470.79998779297</ele>
        <time>2013-04-21T13:38:38.000Z</time>
      </trkpt>
      <trkpt lat="45.8854" lon="6.1425">
        <ele>471.20001220703</ele>
        <time>2013-04-21T13:38:39.000Z</time>
      </trkpt>
      <trkpt lat="45.88543" lon="6.14251">
        <ele>471.60000610352</ele>
        <time>2013-04-21T13:38:40.000Z</time>
      </trkpt>
      <trkpt lat="45.88547" lon="6.14253">
        <ele>472</ele>
        <time>2013-04-21T13:38:41.000Z</time>
      </trkpt>
      <trkpt lat="45.8855" lon="6.14255">
        <ele>472.39999389648</ele>
        <time>2013-04-21T13:38:42.000Z</time>
      </trkpt>
      <trkpt lat="45.88554" lon="6.14256">
        <ele>472.39999389648</ele>
        <time>2013-04-21T13:38:43.000Z</time>
      </trkpt>
      <trkpt lat="45.88558" lon="6.14258">
        <ele>472.39999389648</ele>
        <time>2013-04-21T13:38:44.000Z</time>
      </trkpt>
      <trkpt lat="45.88577" lon="6.14266">
        <ele>472.39999389648</ele>
        <time>2013-04-21T13:38:49.000Z</time>
      </trkpt>
      <trkpt lat="45.88591" lon="6.14274">
        <ele>472.39999389648</ele>
        <time>2013-04-21T13:38:53.000Z</time>
      </trkpt>
      <trkpt lat="45.88595" lon="6.14275">
        <ele>471.79998779297</ele>
        <time>2013-04-21T13:38:54.000Z</time>
      </trkpt>
      <trkpt lat="45.88599" lon="6.14277">
        <ele>471.39999389648</ele>
        <time>2013-04-21T13:38:55.000Z</time>
      </trkpt>
      <trkpt lat="45.88602" lon="6.1428">
        <ele>471</ele>
        <time>2013-04-21T13:38:56.000Z</time>
      </trkpt>
      <trkpt lat="45.88606" lon="6.14281">
        <ele>470.60000610352</ele>
        <time>2013-04-21T13:38:57.000Z</time>
      </trkpt>
      <trkpt lat="45.88609" lon="6.14284">
        <ele>470.20001220703</ele>
        <time>2013-04-21T13:38:58.000Z</time>
      </trkpt>
      <trkpt lat="45.88616" lon="6.14288">
        <ele>470.20001220703</ele>
        <time>2013-04-21T13:39:00.000Z</time>
      </trkpt>
      <trkpt lat="45.88624" lon="6.14291">
        <ele>469.79998779297</ele>
        <time>2013-04-21T13:39:02.000Z</time>
      </trkpt>
      <trkpt lat="45.88628" lon="6.14293">
        <ele>469.39999389648</ele>
        <time>2013-04-21T13:39:03.000Z</time>
      </trkpt>
      <trkpt lat="45.88631" lon="6.14294">
        <ele>469</ele>
        <time>2013-04-21T13:39:04.000Z</time>
      </trkpt>
      <trkpt lat="45.88635" lon="6.14296">
        <ele>468.60000610352</ele>
        <time>2013-04-21T13:39:05.000Z</time>
      </trkpt>
      <trkpt lat="45.88638" lon="6.14297">
        <ele>468.20001220703</ele>
        <time>2013-04-21T13:39:06.000Z</time>
      </trkpt>
      <trkpt lat="45.88642" lon="6.14298">
        <ele>466.60000610352</ele>
        <time>2013-04-21T13:39:07.000Z</time>
      </trkpt>
      <trkpt lat="45.8865" lon="6.14301">
        <ele>466.60000610352</ele>
        <time>2013-04-21T13:39:09.000Z</time>
      </trkpt>
      <trkpt lat="45.88656" lon="6.14306">
        <ele>466.79998779297</ele>
        <time>2013-04-21T13:39:11.000Z</time>
      </trkpt>
      <trkpt lat="45.88659" lon="6.14308">
        <ele>467.39999389648</ele>
        <time>2013-04-21T13:39:12.000Z</time>
      </trkpt>
      <trkpt lat="45.88662" lon="6.1431">
        <ele>467.79998779297</ele>
        <time>2013-04-21T13:39:13.000Z</time>
      </trkpt>
      <trkpt lat="45.88666" lon="6.14312">
        <ele>468.20001220703</ele>
        <time>2013-04-21T13:39:14.000Z</time>
      </trkpt>
      <trkpt lat="45.8867" lon="6.14314">
        <ele>468.60000610352</ele>
        <time>2013-04-21T13:39:15.000Z</time>
      </trkpt>
      <trkpt lat="45.88673" lon="6.14315">
        <ele>468.79998779297</ele>
        <time>2013-04-21T13:39:16.000Z</time>
      </trkpt>
      <trkpt lat="45.8868" lon="6.14319">
        <ele>468.79998779297</ele>
        <time>2013-04-21T13:39:18.000Z</time>
      </trkpt>
      <trkpt lat="45.88695" lon="6.14326">
        <ele>469</ele>
        <time>2013-04-21T13:39:22.000Z</time>
      </trkpt>
      <trkpt lat="45.88697" lon="6.14326">
        <ele>469.39999389648</ele>
        <time>2013-04-21T13:39:23.000Z</time>
      </trkpt>
      <trkpt lat="45.887" lon="6.14328">
        <ele>469.79998779297</ele>
        <time>2013-04-21T13:39:24.000Z</time>
      </trkpt>
      <trkpt lat="45.88706" lon="6.1433">
        <ele>470.20001220703</ele>
        <time>2013-04-21T13:39:25.000Z</time>
      </trkpt>
      <trkpt lat="45.88709" lon="6.14331">
        <ele>470.60000610352</ele>
        <time>2013-04-21T13:39:26.000Z</time>
      </trkpt>
      <trkpt lat="45.88713" lon="6.14333">
        <ele>470.79998779297</ele>
        <time>2013-04-21T13:39:27.000Z</time>
      </trkpt>
      <trkpt lat="45.88716" lon="6.14334">
        <ele>470.79998779297</ele>
        <time>2013-04-21T13:39:28.000Z</time>
      </trkpt>
      <trkpt lat="45.8872" lon="6.14335">
        <ele>470.79998779297</ele>
        <time>2013-04-21T13:39:29.000Z</time>
      </trkpt>
      <trkpt lat="45.88739" lon="6.14341">
        <ele>470.79998779297</ele>
        <time>2013-04-21T13:39:34.000Z</time>
      </trkpt>
      <trkpt lat="45.88754" lon="6.14345">
        <ele>470.79998779297</ele>
        <time>2013-04-21T13:39:38.000Z</time>
      </trkpt>
      <trkpt lat="45.88774" lon="6.14351">
        <ele>470.79998779297</ele>
        <time>2013-04-21T13:39:44.000Z</time>
      </trkpt>
      <trkpt lat="45.8879" lon="6.14355">
        <ele>470.79998779297</ele>
        <time>2013-04-21T13:39:48.000Z</time>
      </trkpt>
      <trkpt lat="45.88804" lon="6.14358">
        <ele>470.79998779297</ele>
        <time>2013-04-21T13:39:52.000Z</time>
      </trkpt>
      <trkpt lat="45.88824" lon="6.14362">
        <ele>470.79998779297</ele>
        <time>2013-04-21T13:39:57.000Z</time>
      </trkpt>
      <trkpt lat="45.88826" lon="6.14363">
        <ele>470.79998779297</ele>
        <time>2013-04-21T13:39:58.000Z</time>
      </trkpt>
      <trkpt lat="45.88837" lon="6.14363">
        <ele>470.79998779297</ele>
        <time>2013-04-21T13:40:01.000Z</time>
      </trkpt>
      <trkpt lat="45.88841" lon="6.14364">
        <ele>471.20001220703</ele>
        <time>2013-04-21T13:40:02.000Z</time>
      </trkpt>
      <trkpt lat="45.88845" lon="6.14364">
        <ele>471.60000610352</ele>
        <time>2013-04-21T13:40:03.000Z</time>
      </trkpt>
      <trkpt lat="45.88848" lon="6.14365">
        <ele>472</ele>
        <time>2013-04-21T13:40:04.000Z</time>
      </trkpt>
      <trkpt lat="45.88852" lon="6.14365">
        <ele>472</ele>
        <time>2013-04-21T13:40:05.000Z</time>
      </trkpt>
      <trkpt lat="45.88855" lon="6.14365">
        <ele>471.79998779297</ele>
        <time>2013-04-21T13:40:06.000Z</time>
      </trkpt>
      <trkpt lat="45.88858" lon="6.14365">
        <ele>471.60000610352</ele>
        <time>2013-04-21T13:40:07.000Z</time>
      </trkpt>
      <trkpt lat="45.88862" lon="6.14365">
        <ele>471.20001220703</ele>
        <time>2013-04-21T13:40:08.000Z</time>
      </trkpt>
      <trkpt lat="45.88865" lon="6.14365">
        <ele>471.39999389648</ele>
        <time>2013-04-21T13:40:09.000Z</time>
      </trkpt>
      <trkpt lat="45.88868" lon="6.14365">
        <ele>471.79998779297</ele>
        <time>2013-04-21T13:40:10.000Z</time>
      </trkpt>
      <trkpt lat="45.88871" lon="6.14364">
        <ele>472.20001220703</ele>
        <time>2013-04-21T13:40:11.000Z</time>
      </trkpt>
      <trkpt lat="45.88875" lon="6.14364">
        <ele>472.60000610352</ele>
        <time>2013-04-21T13:40:12.000Z</time>
      </trkpt>
      <trkpt lat="45.88879" lon="6.14364">
        <ele>472.60000610352</ele>
        <time>2013-04-21T13:40:13.000Z</time>
      </trkpt>
      <trkpt lat="45.88883" lon="6.14363">
        <ele>472.20001220703</ele>
        <time>2013-04-21T13:40:14.000Z</time>
      </trkpt>
      <trkpt lat="45.88887" lon="6.14363">
        <ele>471.79998779297</ele>
        <time>2013-04-21T13:40:15.000Z</time>
      </trkpt>
      <trkpt lat="45.88891" lon="6.14362">
        <ele>471.60000610352</ele>
        <time>2013-04-21T13:40:16.000Z</time>
      </trkpt>
      <trkpt lat="45.88895" lon="6.14362">
        <ele>471.79998779297</ele>
        <time>2013-04-21T13:40:17.000Z</time>
      </trkpt>
      <trkpt lat="45.88898" lon="6.14361">
        <ele>472.39999389648</ele>
        <time>2013-04-21T13:40:18.000Z</time>
      </trkpt>
      <trkpt lat="45.88903" lon="6.14361">
        <ele>472.79998779297</ele>
        <time>2013-04-21T13:40:19.000Z</time>
      </trkpt>
      <trkpt lat="45.88907" lon="6.14361">
        <ele>473.39999389648</ele>
        <time>2013-04-21T13:40:20.000Z</time>
      </trkpt>
      <trkpt lat="45.8891" lon="6.1436">
        <ele>473</ele>
        <time>2013-04-21T13:40:21.000Z</time>
      </trkpt>
      <trkpt lat="45.88914" lon="6.1436">
        <ele>472.79998779297</ele>
        <time>2013-04-21T13:40:22.000Z</time>
      </trkpt>
      <trkpt lat="45.88918" lon="6.1436">
        <ele>472.60000610352</ele>
        <time>2013-04-21T13:40:23.000Z</time>
      </trkpt>
      <trkpt lat="45.88922" lon="6.14359">
        <ele>472.20001220703</ele>
        <time>2013-04-21T13:40:24.000Z</time>
      </trkpt>
      <trkpt lat="45.88925" lon="6.14359">
        <ele>472</ele>
        <time>2013-04-21T13:40:25.000Z</time>
      </trkpt>
      <trkpt lat="45.88932" lon="6.14358">
        <ele>472.20001220703</ele>
        <time>2013-04-21T13:40:27.000Z</time>
      </trkpt>
      <trkpt lat="45.88935" lon="6.14357">
        <ele>472.60000610352</ele>
        <time>2013-04-21T13:40:28.000Z</time>
      </trkpt>
      <trkpt lat="45.88939" lon="6.14357">
        <ele>473</ele>
        <time>2013-04-21T13:40:29.000Z</time>
      </trkpt>
      <trkpt lat="45.88942" lon="6.14356">
        <ele>473.20001220703</ele>
        <time>2013-04-21T13:40:30.000Z</time>
      </trkpt>
      <trkpt lat="45.88946" lon="6.14356">
        <ele>473</ele>
        <time>2013-04-21T13:40:31.000Z</time>
      </trkpt>
      <trkpt lat="45.88949" lon="6.14354">
        <ele>472.60000610352</ele>
        <time>2013-04-21T13:40:32.000Z</time>
      </trkpt>
      <trkpt lat="45.88953" lon="6.14354">
        <ele>472.39999389648</ele>
        <time>2013-04-21T13:40:33.000Z</time>
      </trkpt>
      <trkpt lat="45.88957" lon="6.14354">
        <ele>472</ele>
        <time>2013-04-21T13:40:34.000Z</time>
      </trkpt>
      <trkpt lat="45.8896" lon="6.14353">
        <ele>472</ele>
        <time>2013-04-21T13:40:35.000Z</time>
      </trkpt>
      <trkpt lat="45.88976" lon="6.14348">
        <ele>472</ele>
        <time>2013-04-21T13:40:39.000Z</time>
      </trkpt>
      <trkpt lat="45.88993" lon="6.14338">
        <ele>472</ele>
        <time>2013-04-21T13:40:44.000Z</time>
      </trkpt>
      <trkpt lat="45.8901" lon="6.14325">
        <ele>472</ele>
        <time>2013-04-21T13:40:49.000Z</time>
      </trkpt>
      <trkpt lat="45.89013" lon="6.14322">
        <ele>472</ele>
        <time>2013-04-21T13:40:50.000Z</time>
      </trkpt>
      <trkpt lat="45.89027" lon="6.14306">
        <ele>472</ele>
        <time>2013-04-21T13:40:55.000Z</time>
      </trkpt>
      <trkpt lat="45.89033" lon="6.14298">
        <ele>472</ele>
        <time>2013-04-21T13:40:57.000Z</time>
      </trkpt>
      <trkpt lat="45.89044" lon="6.14278">
        <ele>472</ele>
        <time>2013-04-21T13:41:02.000Z</time>
      </trkpt>
      <trkpt lat="45.89052" lon="6.1425">
        <ele>472</ele>
        <time>2013-04-21T13:41:08.000Z</time>
      </trkpt>
      <trkpt lat="45.89055" lon="6.14228">
        <ele>472</ele>
        <time>2013-04-21T13:41:12.000Z</time>
      </trkpt>
      <trkpt lat="45.89056" lon="6.142">
        <ele>472</ele>
        <time>2013-04-21T13:41:17.000Z</time>
      </trkpt>
      <trkpt lat="45.89056" lon="6.14194">
        <ele>472</ele>
        <time>2013-04-21T13:41:18.000Z</time>
      </trkpt>
      <trkpt lat="45.89059" lon="6.14166">
        <ele>472</ele>
        <time>2013-04-21T13:41:23.000Z</time>
      </trkpt>
      <trkpt lat="45.89059" lon="6.1416">
        <ele>472</ele>
        <time>2013-04-21T13:41:24.000Z</time>
      </trkpt>
      <trkpt lat="45.89061" lon="6.14131">
        <ele>472</ele>
        <time>2013-04-21T13:41:29.000Z</time>
      </trkpt>
      <trkpt lat="45.89064" lon="6.14101">
        <ele>472</ele>
        <time>2013-04-21T13:41:34.000Z</time>
      </trkpt>
      <trkpt lat="45.89064" lon="6.14095">
        <ele>472</ele>
        <time>2013-04-21T13:41:35.000Z</time>
      </trkpt>
      <trkpt lat="45.89065" lon="6.1409">
        <ele>472</ele>
        <time>2013-04-21T13:41:36.000Z</time>
      </trkpt>
      <trkpt lat="45.89069" lon="6.14073">
        <ele>471.79998779297</ele>
        <time>2013-04-21T13:41:39.000Z</time>
      </trkpt>
      <trkpt lat="45.8907" lon="6.14068">
        <ele>471.60000610352</ele>
        <time>2013-04-21T13:41:40.000Z</time>
      </trkpt>
      <trkpt lat="45.89072" lon="6.14064">
        <ele>471.20001220703</ele>
        <time>2013-04-21T13:41:41.000Z</time>
      </trkpt>
      <trkpt lat="45.89074" lon="6.14058">
        <ele>471</ele>
        <time>2013-04-21T13:41:42.000Z</time>
      </trkpt>
      <trkpt lat="45.89076" lon="6.14053">
        <ele>471.39999389648</ele>
        <time>2013-04-21T13:41:43.000Z</time>
      </trkpt>
      <trkpt lat="45.89078" lon="6.14048">
        <ele>471.60000610352</ele>
        <time>2013-04-21T13:41:44.000Z</time>
      </trkpt>
      <trkpt lat="45.8908" lon="6.14043">
        <ele>471.79998779297</ele>
        <time>2013-04-21T13:41:45.000Z</time>
      </trkpt>
      <trkpt lat="45.89082" lon="6.14038">
        <ele>472.20001220703</ele>
        <time>2013-04-21T13:41:46.000Z</time>
      </trkpt>
      <trkpt lat="45.89083" lon="6.14033">
        <ele>472.20001220703</ele>
        <time>2013-04-21T13:41:47.000Z</time>
      </trkpt>
      <trkpt lat="45.89085" lon="6.14027">
        <ele>471.79998779297</ele>
        <time>2013-04-21T13:41:48.000Z</time>
      </trkpt>
      <trkpt lat="45.89086" lon="6.14022">
        <ele>471.39999389648</ele>
        <time>2013-04-21T13:41:49.000Z</time>
      </trkpt>
      <trkpt lat="45.89088" lon="6.14017">
        <ele>471</ele>
        <time>2013-04-21T13:41:50.000Z</time>
      </trkpt>
      <trkpt lat="45.89089" lon="6.14012">
        <ele>470.60000610352</ele>
        <time>2013-04-21T13:41:51.000Z</time>
      </trkpt>
      <trkpt lat="45.89091" lon="6.14008">
        <ele>470.20001220703</ele>
        <time>2013-04-21T13:41:52.000Z</time>
      </trkpt>
      <trkpt lat="45.89094" lon="6.13994">
        <ele>470.20001220703</ele>
        <time>2013-04-21T13:41:55.000Z</time>
      </trkpt>
      <trkpt lat="45.89103" lon="6.13975">
        <ele>471.79998779297</ele>
        <time>2013-04-21T13:42:00.000Z</time>
      </trkpt>
      <trkpt lat="45.89107" lon="6.13972">
        <ele>471.79998779297</ele>
        <time>2013-04-21T13:42:01.000Z</time>
      </trkpt>
      <trkpt lat="45.89115" lon="6.13961">
        <ele>471.79998779297</ele>
        <time>2013-04-21T13:42:04.000Z</time>
      </trkpt>
      <trkpt lat="45.8913" lon="6.13942">
        <ele>471.79998779297</ele>
        <time>2013-04-21T13:42:09.000Z</time>
      </trkpt>
      <trkpt lat="45.89144" lon="6.13922">
        <ele>471.79998779297</ele>
        <time>2013-04-21T13:42:14.000Z</time>
      </trkpt>
      <trkpt lat="45.89157" lon="6.13901">
        <ele>471.79998779297</ele>
        <time>2013-04-21T13:42:19.000Z</time>
      </trkpt>
      <trkpt lat="45.89162" lon="6.13892">
        <ele>471.79998779297</ele>
        <time>2013-04-21T13:42:21.000Z</time>
      </trkpt>
      <trkpt lat="45.89167" lon="6.13885">
        <ele>472</ele>
        <time>2013-04-21T13:42:23.000Z</time>
      </trkpt>
      <trkpt lat="45.8917" lon="6.1388">
        <ele>472.39999389648</ele>
        <time>2013-04-21T13:42:24.000Z</time>
      </trkpt>
      <trkpt lat="45.89172" lon="6.13876">
        <ele>472.79998779297</ele>
        <time>2013-04-21T13:42:25.000Z</time>
      </trkpt>
      <trkpt lat="45.89175" lon="6.13872">
        <ele>473.20001220703</ele>
        <time>2013-04-21T13:42:26.000Z</time>
      </trkpt>
      <trkpt lat="45.89178" lon="6.13867">
        <ele>473.60000610352</ele>
        <time>2013-04-21T13:42:27.000Z</time>
      </trkpt>
      <trkpt lat="45.89181" lon="6.13863">
        <ele>473.79998779297</ele>
        <time>2013-04-21T13:42:28.000Z</time>
      </trkpt>
      <trkpt lat="45.89185" lon="6.13855">
        <ele>473.79998779297</ele>
        <time>2013-04-21T13:42:30.000Z</time>
      </trkpt>
      <trkpt lat="45.89196" lon="6.13834">
        <ele>473.79998779297</ele>
        <time>2013-04-21T13:42:35.000Z</time>
      </trkpt>
      <trkpt lat="45.89209" lon="6.13814">
        <ele>473.79998779297</ele>
        <time>2013-04-21T13:42:40.000Z</time>
      </trkpt>
      <trkpt lat="45.89221" lon="6.13795">
        <ele>473.79998779297</ele>
        <time>2013-04-21T13:42:45.000Z</time>
      </trkpt>
      <trkpt lat="45.89234" lon="6.13776">
        <ele>473.79998779297</ele>
        <time>2013-04-21T13:42:50.000Z</time>
      </trkpt>
      <trkpt lat="45.89246" lon="6.13756">
        <ele>473.79998779297</ele>
        <time>2013-04-21T13:42:55.000Z</time>
      </trkpt>
      <trkpt lat="45.89255" lon="6.13741">
        <ele>473.79998779297</ele>
        <time>2013-04-21T13:42:59.000Z</time>
      </trkpt>
      <trkpt lat="45.89266" lon="6.13724">
        <ele>473.60000610352</ele>
        <time>2013-04-21T13:43:03.000Z</time>
      </trkpt>
      <trkpt lat="45.89268" lon="6.1372">
        <ele>473.20001220703</ele>
        <time>2013-04-21T13:43:04.000Z</time>
      </trkpt>
      <trkpt lat="45.8927" lon="6.13716">
        <ele>472.79998779297</ele>
        <time>2013-04-21T13:43:05.000Z</time>
      </trkpt>
      <trkpt lat="45.89272" lon="6.13713">
        <ele>472.60000610352</ele>
        <time>2013-04-21T13:43:06.000Z</time>
      </trkpt>
      <trkpt lat="45.89275" lon="6.13709">
        <ele>472.20001220703</ele>
        <time>2013-04-21T13:43:07.000Z</time>
      </trkpt>
      <trkpt lat="45.89277" lon="6.13705">
        <ele>471.79998779297</ele>
        <time>2013-04-21T13:43:08.000Z</time>
      </trkpt>
      <trkpt lat="45.89279" lon="6.13701">
        <ele>471.79998779297</ele>
        <time>2013-04-21T13:43:09.000Z</time>
      </trkpt>
      <trkpt lat="45.89292" lon="6.13681">
        <ele>471.79998779297</ele>
        <time>2013-04-21T13:43:14.000Z</time>
      </trkpt>
      <trkpt lat="45.89294" lon="6.13677">
        <ele>471.79998779297</ele>
        <time>2013-04-21T13:43:15.000Z</time>
      </trkpt>
      <trkpt lat="45.89305" lon="6.13662">
        <ele>470</ele>
        <time>2013-04-21T13:43:19.000Z</time>
      </trkpt>
      <trkpt lat="45.8931" lon="6.13655">
        <ele>470.39999389648</ele>
        <time>2013-04-21T13:43:21.000Z</time>
      </trkpt>
      <trkpt lat="45.89313" lon="6.13652">
        <ele>471</ele>
        <time>2013-04-21T13:43:22.000Z</time>
      </trkpt>
      <trkpt lat="45.89316" lon="6.13649">
        <ele>471.39999389648</ele>
        <time>2013-04-21T13:43:23.000Z</time>
      </trkpt>
      <trkpt lat="45.89319" lon="6.13646">
        <ele>471.79998779297</ele>
        <time>2013-04-21T13:43:24.000Z</time>
      </trkpt>
      <trkpt lat="45.89321" lon="6.13642">
        <ele>471.60000610352</ele>
        <time>2013-04-21T13:43:25.000Z</time>
      </trkpt>
      <trkpt lat="45.89324" lon="6.13639">
        <ele>471.39999389648</ele>
        <time>2013-04-21T13:43:26.000Z</time>
      </trkpt>
      <trkpt lat="45.89327" lon="6.13635">
        <ele>471</ele>
        <time>2013-04-21T13:43:27.000Z</time>
      </trkpt>
      <trkpt lat="45.8933" lon="6.13631">
        <ele>470.60000610352</ele>
        <time>2013-04-21T13:43:28.000Z</time>
      </trkpt>
      <trkpt lat="45.89333" lon="6.13628">
        <ele>470.39999389648</ele>
        <time>2013-04-21T13:43:29.000Z</time>
      </trkpt>
      <trkpt lat="45.89336" lon="6.13624">
        <ele>470.20001220703</ele>
        <time>2013-04-21T13:43:30.000Z</time>
      </trkpt>
      <trkpt lat="45.89343" lon="6.13614">
        <ele>470.20001220703</ele>
        <time>2013-04-21T13:43:33.000Z</time>
      </trkpt>
      <trkpt lat="45.89355" lon="6.13595">
        <ele>470.20001220703</ele>
        <time>2013-04-21T13:43:38.000Z</time>
      </trkpt>
      <trkpt lat="45.89369" lon="6.13573">
        <ele>470.20001220703</ele>
        <time>2013-04-21T13:43:44.000Z</time>
      </trkpt>
      <trkpt lat="45.89383" lon="6.13554">
        <ele>470.20001220703</ele>
        <time>2013-04-21T13:43:49.000Z</time>
      </trkpt>
      <trkpt lat="45.89386" lon="6.13551">
        <ele>470.20001220703</ele>
        <time>2013-04-21T13:43:50.000Z</time>
      </trkpt>
      <trkpt lat="45.89395" lon="6.13537">
        <ele>470.20001220703</ele>
        <time>2013-04-21T13:43:54.000Z</time>
      </trkpt>
      <trkpt lat="45.89411" lon="6.13517">
        <ele>470.20001220703</ele>
        <time>2013-04-21T13:44:00.000Z</time>
      </trkpt>
      <trkpt lat="45.89413" lon="6.13513">
        <ele>470.20001220703</ele>
        <time>2013-04-21T13:44:01.000Z</time>
      </trkpt>
      <trkpt lat="45.89425" lon="6.13492">
        <ele>470.20001220703</ele>
        <time>2013-04-21T13:44:06.000Z</time>
      </trkpt>
      <trkpt lat="45.89427" lon="6.13488">
        <ele>470.60000610352</ele>
        <time>2013-04-21T13:44:07.000Z</time>
      </trkpt>
      <trkpt lat="45.8943" lon="6.13485">
        <ele>471</ele>
        <time>2013-04-21T13:44:08.000Z</time>
      </trkpt>
      <trkpt lat="45.89432" lon="6.13481">
        <ele>471.39999389648</ele>
        <time>2013-04-21T13:44:09.000Z</time>
      </trkpt>
      <trkpt lat="45.89435" lon="6.13477">
        <ele>471.79998779297</ele>
        <time>2013-04-21T13:44:10.000Z</time>
      </trkpt>
      <trkpt lat="45.89438" lon="6.13473">
        <ele>471.60000610352</ele>
        <time>2013-04-21T13:44:11.000Z</time>
      </trkpt>
      <trkpt lat="45.89441" lon="6.1347">
        <ele>471.20001220703</ele>
        <time>2013-04-21T13:44:12.000Z</time>
      </trkpt>
      <trkpt lat="45.89443" lon="6.13467">
        <ele>470.79998779297</ele>
        <time>2013-04-21T13:44:13.000Z</time>
      </trkpt>
      <trkpt lat="45.89446" lon="6.13464">
        <ele>470.60000610352</ele>
        <time>2013-04-21T13:44:14.000Z</time>
      </trkpt>
      <trkpt lat="45.89449" lon="6.13461">
        <ele>470.79998779297</ele>
        <time>2013-04-21T13:44:15.000Z</time>
      </trkpt>
      <trkpt lat="45.89453" lon="6.13458">
        <ele>471.20001220703</ele>
        <time>2013-04-21T13:44:16.000Z</time>
      </trkpt>
      <trkpt lat="45.89455" lon="6.13455">
        <ele>471.39999389648</ele>
        <time>2013-04-21T13:44:17.000Z</time>
      </trkpt>
      <trkpt lat="45.89458" lon="6.13452">
        <ele>471.39999389648</ele>
        <time>2013-04-21T13:44:18.000Z</time>
      </trkpt>
      <trkpt lat="45.89462" lon="6.13448">
        <ele>471</ele>
        <time>2013-04-21T13:44:19.000Z</time>
      </trkpt>
      <trkpt lat="45.89463" lon="6.13446">
        <ele>470.79998779297</ele>
        <time>2013-04-21T13:44:20.000Z</time>
      </trkpt>
      <trkpt lat="45.89464" lon="6.13443">
        <ele>470.60000610352</ele>
        <time>2013-04-21T13:44:21.000Z</time>
      </trkpt>
      <trkpt lat="45.89465" lon="6.1344">
        <ele>471</ele>
        <time>2013-04-21T13:44:22.000Z</time>
      </trkpt>
      <trkpt lat="45.89469" lon="6.13437">
        <ele>471.20001220703</ele>
        <time>2013-04-21T13:44:23.000Z</time>
      </trkpt>
      <trkpt lat="45.89471" lon="6.13434">
        <ele>471.60000610352</ele>
        <time>2013-04-21T13:44:24.000Z</time>
      </trkpt>
      <trkpt lat="45.89474" lon="6.13431">
        <ele>471.20001220703</ele>
        <time>2013-04-21T13:44:25.000Z</time>
      </trkpt>
      <trkpt lat="45.89475" lon="6.13428">
        <ele>471</ele>
        <time>2013-04-21T13:44:26.000Z</time>
      </trkpt>
      <trkpt lat="45.89478" lon="6.13425">
        <ele>470.60000610352</ele>
        <time>2013-04-21T13:44:27.000Z</time>
      </trkpt>
      <trkpt lat="45.89482" lon="6.13422">
        <ele>471</ele>
        <time>2013-04-21T13:44:28.000Z</time>
      </trkpt>
      <trkpt lat="45.89484" lon="6.13419">
        <ele>471.20001220703</ele>
        <time>2013-04-21T13:44:29.000Z</time>
      </trkpt>
      <trkpt lat="45.89486" lon="6.13417">
        <ele>471.39999389648</ele>
        <time>2013-04-21T13:44:30.000Z</time>
      </trkpt>
      <trkpt lat="45.8949" lon="6.13412">
        <ele>471</ele>
        <time>2013-04-21T13:44:31.000Z</time>
      </trkpt>
      <trkpt lat="45.89493" lon="6.1341">
        <ele>470.79998779297</ele>
        <time>2013-04-21T13:44:32.000Z</time>
      </trkpt>
      <trkpt lat="45.89496" lon="6.13407">
        <ele>471</ele>
        <time>2013-04-21T13:44:33.000Z</time>
      </trkpt>
      <trkpt lat="45.89498" lon="6.13404">
        <ele>471.20001220703</ele>
        <time>2013-04-21T13:44:34.000Z</time>
      </trkpt>
      <trkpt lat="45.89501" lon="6.13401">
        <ele>471.60000610352</ele>
        <time>2013-04-21T13:44:35.000Z</time>
      </trkpt>
      <trkpt lat="45.89505" lon="6.13398">
        <ele>471.79998779297</ele>
        <time>2013-04-21T13:44:36.000Z</time>
      </trkpt>
      <trkpt lat="45.89509" lon="6.13397">
        <ele>472.20001220703</ele>
        <time>2013-04-21T13:44:37.000Z</time>
      </trkpt>
      <trkpt lat="45.89513" lon="6.13398">
        <ele>472.20001220703</ele>
        <time>2013-04-21T13:44:38.000Z</time>
      </trkpt>
      <trkpt lat="45.89523" lon="6.13399">
        <ele>472</ele>
        <time>2013-04-21T13:44:41.000Z</time>
      </trkpt>
      <trkpt lat="45.89527" lon="6.13396">
        <ele>471.39999389648</ele>
        <time>2013-04-21T13:44:42.000Z</time>
      </trkpt>
      <trkpt lat="45.8953" lon="6.13393">
        <ele>471</ele>
        <time>2013-04-21T13:44:43.000Z</time>
      </trkpt>
      <trkpt lat="45.89533" lon="6.13389">
        <ele>471</ele>
        <time>2013-04-21T13:44:44.000Z</time>
      </trkpt>
      <trkpt lat="45.89537" lon="6.13386">
        <ele>471.20001220703</ele>
        <time>2013-04-21T13:44:45.000Z</time>
      </trkpt>
      <trkpt lat="45.89539" lon="6.13383">
        <ele>471.60000610352</ele>
        <time>2013-04-21T13:44:46.000Z</time>
      </trkpt>
      <trkpt lat="45.89542" lon="6.13379">
        <ele>472</ele>
        <time>2013-04-21T13:44:47.000Z</time>
      </trkpt>
      <trkpt lat="45.89545" lon="6.13376">
        <ele>472.39999389648</ele>
        <time>2013-04-21T13:44:48.000Z</time>
      </trkpt>
      <trkpt lat="45.89548" lon="6.13373">
        <ele>472.39999389648</ele>
        <time>2013-04-21T13:44:49.000Z</time>
      </trkpt>
      <trkpt lat="45.89551" lon="6.1337">
        <ele>472.39999389648</ele>
        <time>2013-04-21T13:44:50.000Z</time>
      </trkpt>
      <trkpt lat="45.89554" lon="6.13368">
        <ele>472</ele>
        <time>2013-04-21T13:44:51.000Z</time>
      </trkpt>
      <trkpt lat="45.89558" lon="6.13365">
        <ele>471.39999389648</ele>
        <time>2013-04-21T13:44:52.000Z</time>
      </trkpt>
      <trkpt lat="45.89562" lon="6.13364">
        <ele>471</ele>
        <time>2013-04-21T13:44:53.000Z</time>
      </trkpt>
      <trkpt lat="45.89565" lon="6.13364">
        <ele>470.39999389648</ele>
        <time>2013-04-21T13:44:54.000Z</time>
      </trkpt>
      <trkpt lat="45.89568" lon="6.13368">
        <ele>470.39999389648</ele>
        <time>2013-04-21T13:44:55.000Z</time>
      </trkpt>
      <trkpt lat="45.89574" lon="6.13376">
        <ele>470.39999389648</ele>
        <time>2013-04-21T13:44:57.000Z</time>
      </trkpt>
      <trkpt lat="45.89585" lon="6.13397">
        <ele>470.39999389648</ele>
        <time>2013-04-21T13:45:02.000Z</time>
      </trkpt>
      <trkpt lat="45.89598" lon="6.13416">
        <ele>470.39999389648</ele>
        <time>2013-04-21T13:45:07.000Z</time>
      </trkpt>
      <trkpt lat="45.89611" lon="6.13436">
        <ele>470.39999389648</ele>
        <time>2013-04-21T13:45:12.000Z</time>
      </trkpt>
      <trkpt lat="45.89612" lon="6.1344">
        <ele>470.39999389648</ele>
        <time>2013-04-21T13:45:13.000Z</time>
      </trkpt>
      <trkpt lat="45.89625" lon="6.13461">
        <ele>470.39999389648</ele>
        <time>2013-04-21T13:45:18.000Z</time>
      </trkpt>
      <trkpt lat="45.89639" lon="6.13482">
        <ele>470.39999389648</ele>
        <time>2013-04-21T13:45:23.000Z</time>
      </trkpt>
      <trkpt lat="45.89641" lon="6.13481">
        <ele>470.39999389648</ele>
        <time>2013-04-21T13:45:24.000Z</time>
      </trkpt>
      <trkpt lat="45.8965" lon="6.13469">
        <ele>470.39999389648</ele>
        <time>2013-04-21T13:45:27.000Z</time>
      </trkpt>
      <trkpt lat="45.89653" lon="6.13466">
        <ele>470.39999389648</ele>
        <time>2013-04-21T13:45:28.000Z</time>
      </trkpt>
      <trkpt lat="45.89664" lon="6.13451">
        <ele>470.39999389648</ele>
        <time>2013-04-21T13:45:32.000Z</time>
      </trkpt>
      <trkpt lat="45.89676" lon="6.13434">
        <ele>470.39999389648</ele>
        <time>2013-04-21T13:45:37.000Z</time>
      </trkpt>
      <trkpt lat="45.89691" lon="6.13413">
        <ele>470.60000610352</ele>
        <time>2013-04-21T13:45:43.000Z</time>
      </trkpt>
      <trkpt lat="45.89694" lon="6.1341">
        <ele>471</ele>
        <time>2013-04-21T13:45:44.000Z</time>
      </trkpt>
      <trkpt lat="45.89696" lon="6.13407">
        <ele>471.39999389648</ele>
        <time>2013-04-21T13:45:45.000Z</time>
      </trkpt>
      <trkpt lat="45.897" lon="6.13404">
        <ele>471.20001220703</ele>
        <time>2013-04-21T13:45:46.000Z</time>
      </trkpt>
      <trkpt lat="45.89703" lon="6.13401">
        <ele>471</ele>
        <time>2013-04-21T13:45:47.000Z</time>
      </trkpt>
      <trkpt lat="45.89705" lon="6.13397">
        <ele>470.79998779297</ele>
        <time>2013-04-21T13:45:48.000Z</time>
      </trkpt>
      <trkpt lat="45.89708" lon="6.13394">
        <ele>470.60000610352</ele>
        <time>2013-04-21T13:45:49.000Z</time>
      </trkpt>
      <trkpt lat="45.89711" lon="6.13391">
        <ele>470.39999389648</ele>
        <time>2013-04-21T13:45:50.000Z</time>
      </trkpt>
      <trkpt lat="45.89714" lon="6.13388">
        <ele>470.39999389648</ele>
        <time>2013-04-21T13:45:51.000Z</time>
      </trkpt>
      <trkpt lat="45.89725" lon="6.13374">
        <ele>470.39999389648</ele>
        <time>2013-04-21T13:45:55.000Z</time>
      </trkpt>
      <trkpt lat="45.89736" lon="6.1336">
        <ele>470.39999389648</ele>
        <time>2013-04-21T13:45:59.000Z</time>
      </trkpt>
      <trkpt lat="45.89751" lon="6.13344">
        <ele>470.39999389648</ele>
        <time>2013-04-21T13:46:04.000Z</time>
      </trkpt>
      <trkpt lat="45.89756" lon="6.13336">
        <ele>470.39999389648</ele>
        <time>2013-04-21T13:46:06.000Z</time>
      </trkpt>
      <trkpt lat="45.8977" lon="6.13314">
        <ele>470.39999389648</ele>
        <time>2013-04-21T13:46:12.000Z</time>
      </trkpt>
      <trkpt lat="45.89778" lon="6.13302">
        <ele>470.60000610352</ele>
        <time>2013-04-21T13:46:15.000Z</time>
      </trkpt>
      <trkpt lat="45.8978" lon="6.13298">
        <ele>471</ele>
        <time>2013-04-21T13:46:16.000Z</time>
      </trkpt>
      <trkpt lat="45.89781" lon="6.13293">
        <ele>471.20001220703</ele>
        <time>2013-04-21T13:46:17.000Z</time>
      </trkpt>
      <trkpt lat="45.89784" lon="6.13288">
        <ele>471</ele>
        <time>2013-04-21T13:46:18.000Z</time>
      </trkpt>
      <trkpt lat="45.89785" lon="6.13284">
        <ele>470.79998779297</ele>
        <time>2013-04-21T13:46:19.000Z</time>
      </trkpt>
      <trkpt lat="45.89787" lon="6.13279">
        <ele>470.60000610352</ele>
        <time>2013-04-21T13:46:20.000Z</time>
      </trkpt>
      <trkpt lat="45.89788" lon="6.13275">
        <ele>470.60000610352</ele>
        <time>2013-04-21T13:46:21.000Z</time>
      </trkpt>
      <trkpt lat="45.89791" lon="6.13271">
        <ele>470.60000610352</ele>
        <time>2013-04-21T13:46:22.000Z</time>
      </trkpt>
      <trkpt lat="45.89794" lon="6.13262">
        <ele>470.60000610352</ele>
        <time>2013-04-21T13:46:24.000Z</time>
      </trkpt>
      <trkpt lat="45.89801" lon="6.13238">
        <ele>470.60000610352</ele>
        <time>2013-04-21T13:46:29.000Z</time>
      </trkpt>
      <trkpt lat="45.89807" lon="6.13213">
        <ele>470.60000610352</ele>
        <time>2013-04-21T13:46:34.000Z</time>
      </trkpt>
      <trkpt lat="45.89808" lon="6.13208">
        <ele>470.60000610352</ele>
        <time>2013-04-21T13:46:35.000Z</time>
      </trkpt>
      <trkpt lat="45.89811" lon="6.13184">
        <ele>470.60000610352</ele>
        <time>2013-04-21T13:46:40.000Z</time>
      </trkpt>
      <trkpt lat="45.89813" lon="6.13158">
        <ele>470.60000610352</ele>
        <time>2013-04-21T13:46:45.000Z</time>
      </trkpt>
      <trkpt lat="45.89813" lon="6.13153">
        <ele>470.60000610352</ele>
        <time>2013-04-21T13:46:46.000Z</time>
      </trkpt>
      <trkpt lat="45.89813" lon="6.13127">
        <ele>470.60000610352</ele>
        <time>2013-04-21T13:46:51.000Z</time>
      </trkpt>
      <trkpt lat="45.89813" lon="6.13122">
        <ele>470.60000610352</ele>
        <time>2013-04-21T13:46:52.000Z</time>
      </trkpt>
      <trkpt lat="45.89813" lon="6.13095">
        <ele>470.60000610352</ele>
        <time>2013-04-21T13:46:57.000Z</time>
      </trkpt>
      <trkpt lat="45.89813" lon="6.1308">
        <ele>470.60000610352</ele>
        <time>2013-04-21T13:47:00.000Z</time>
      </trkpt>
      <trkpt lat="45.89811" lon="6.13048">
        <ele>470.60000610352</ele>
        <time>2013-04-21T13:47:06.000Z</time>
      </trkpt>
      <trkpt lat="45.89812" lon="6.13021">
        <ele>470.60000610352</ele>
        <time>2013-04-21T13:47:11.000Z</time>
      </trkpt>
      <trkpt lat="45.8981" lon="6.12993">
        <ele>470.60000610352</ele>
        <time>2013-04-21T13:47:16.000Z</time>
      </trkpt>
      <trkpt lat="45.89811" lon="6.12988">
        <ele>470.60000610352</ele>
        <time>2013-04-21T13:47:17.000Z</time>
      </trkpt>
      <trkpt lat="45.89811" lon="6.12957">
        <ele>470.60000610352</ele>
        <time>2013-04-21T13:47:23.000Z</time>
      </trkpt>
      <trkpt lat="45.89811" lon="6.12952">
        <ele>470.60000610352</ele>
        <time>2013-04-21T13:47:24.000Z</time>
      </trkpt>
      <trkpt lat="45.89808" lon="6.12924">
        <ele>470.60000610352</ele>
        <time>2013-04-21T13:47:29.000Z</time>
      </trkpt>
      <trkpt lat="45.89808" lon="6.12917">
        <ele>470.60000610352</ele>
        <time>2013-04-21T13:47:30.000Z</time>
      </trkpt>
      <trkpt lat="45.89809" lon="6.12912">
        <ele>470.60000610352</ele>
        <time>2013-04-21T13:47:31.000Z</time>
      </trkpt>
      <trkpt lat="45.89814" lon="6.12905">
        <ele>470.60000610352</ele>
        <time>2013-04-21T13:47:33.000Z</time>
      </trkpt>
      <trkpt lat="45.89817" lon="6.12905">
        <ele>470.60000610352</ele>
        <time>2013-04-21T13:47:34.000Z</time>
      </trkpt>
      <trkpt lat="45.89829" lon="6.12906">
        <ele>470.60000610352</ele>
        <time>2013-04-21T13:47:37.000Z</time>
      </trkpt>
      <trkpt lat="45.89833" lon="6.12907">
        <ele>471</ele>
        <time>2013-04-21T13:47:38.000Z</time>
      </trkpt>
      <trkpt lat="45.89836" lon="6.12906">
        <ele>471.39999389648</ele>
        <time>2013-04-21T13:47:39.000Z</time>
      </trkpt>
      <trkpt lat="45.89841" lon="6.12907">
        <ele>471.79998779297</ele>
        <time>2013-04-21T13:47:40.000Z</time>
      </trkpt>
      <trkpt lat="45.89843" lon="6.12911">
        <ele>472.20001220703</ele>
        <time>2013-04-21T13:47:41.000Z</time>
      </trkpt>
      <trkpt lat="45.89847" lon="6.12916">
        <ele>472.60000610352</ele>
        <time>2013-04-21T13:47:42.000Z</time>
      </trkpt>
      <trkpt lat="45.89848" lon="6.12928">
        <ele>472.60000610352</ele>
        <time>2013-04-21T13:47:44.000Z</time>
      </trkpt>
      <trkpt lat="45.89847" lon="6.12934">
        <ele>472.20001220703</ele>
        <time>2013-04-21T13:47:45.000Z</time>
      </trkpt>
      <trkpt lat="45.89847" lon="6.12939">
        <ele>472</ele>
        <time>2013-04-21T13:47:46.000Z</time>
      </trkpt>
      <trkpt lat="45.89846" lon="6.12944">
        <ele>471.79998779297</ele>
        <time>2013-04-21T13:47:47.000Z</time>
      </trkpt>
      <trkpt lat="45.89847" lon="6.1295">
        <ele>471.39999389648</ele>
        <time>2013-04-21T13:47:48.000Z</time>
      </trkpt>
      <trkpt lat="45.89847" lon="6.12957">
        <ele>471</ele>
        <time>2013-04-21T13:47:49.000Z</time>
      </trkpt>
      <trkpt lat="45.89847" lon="6.12962">
        <ele>470.60000610352</ele>
        <time>2013-04-21T13:47:50.000Z</time>
      </trkpt>
      <trkpt lat="45.89847" lon="6.12967">
        <ele>470.60000610352</ele>
        <time>2013-04-21T13:47:51.000Z</time>
      </trkpt>
      <trkpt lat="45.89847" lon="6.12974">
        <ele>470.60000610352</ele>
        <time>2013-04-21T13:47:52.000Z</time>
      </trkpt>
      <trkpt lat="45.89847" lon="6.12979">
        <ele>470.60000610352</ele>
        <time>2013-04-21T13:47:53.000Z</time>
      </trkpt>
      <trkpt lat="45.89847" lon="6.13005">
        <ele>470.60000610352</ele>
        <time>2013-04-21T13:47:58.000Z</time>
      </trkpt>
      <trkpt lat="45.89847" lon="6.13022">
        <ele>470.60000610352</ele>
        <time>2013-04-21T13:48:01.000Z</time>
      </trkpt>
      <trkpt lat="45.89848" lon="6.13033">
        <ele>470.60000610352</ele>
        <time>2013-04-21T13:48:03.000Z</time>
      </trkpt>
      <trkpt lat="45.89848" lon="6.13061">
        <ele>470.60000610352</ele>
        <time>2013-04-21T13:48:08.000Z</time>
      </trkpt>
      <trkpt lat="45.89847" lon="6.13072">
        <ele>470.60000610352</ele>
        <time>2013-04-21T13:48:10.000Z</time>
      </trkpt>
      <trkpt lat="45.89847" lon="6.13099">
        <ele>470.60000610352</ele>
        <time>2013-04-21T13:48:15.000Z</time>
      </trkpt>
      <trkpt lat="45.89846" lon="6.13126">
        <ele>470.60000610352</ele>
        <time>2013-04-21T13:48:20.000Z</time>
      </trkpt>
      <trkpt lat="45.89847" lon="6.13137">
        <ele>470.60000610352</ele>
        <time>2013-04-21T13:48:22.000Z</time>
      </trkpt>
      <trkpt lat="45.89851" lon="6.13163">
        <ele>470.60000610352</ele>
        <time>2013-04-21T13:48:27.000Z</time>
      </trkpt>
      <trkpt lat="45.89858" lon="6.13188">
        <ele>470.60000610352</ele>
        <time>2013-04-21T13:48:32.000Z</time>
      </trkpt>
      <trkpt lat="45.89871" lon="6.13211">
        <ele>470.60000610352</ele>
        <time>2013-04-21T13:48:37.000Z</time>
      </trkpt>
      <trkpt lat="45.89886" lon="6.13227">
        <ele>470.60000610352</ele>
        <time>2013-04-21T13:48:42.000Z</time>
      </trkpt>
      <trkpt lat="45.899" lon="6.13239">
        <ele>470.60000610352</ele>
        <time>2013-04-21T13:48:47.000Z</time>
      </trkpt>
      <trkpt lat="45.89915" lon="6.13243">
        <ele>470.60000610352</ele>
        <time>2013-04-21T13:48:51.000Z</time>
      </trkpt>
      <trkpt lat="45.89932" lon="6.13243">
        <ele>470.60000610352</ele>
        <time>2013-04-21T13:48:56.000Z</time>
      </trkpt>
      <trkpt lat="45.89937" lon="6.13242">
        <ele>471</ele>
        <time>2013-04-21T13:48:57.000Z</time>
      </trkpt>
      <trkpt lat="45.89939" lon="6.13242">
        <ele>471.39999389648</ele>
        <time>2013-04-21T13:48:58.000Z</time>
      </trkpt>
      <trkpt lat="45.89943" lon="6.1324">
        <ele>471.60000610352</ele>
        <time>2013-04-21T13:48:59.000Z</time>
      </trkpt>
      <trkpt lat="45.89947" lon="6.1324">
        <ele>471.79998779297</ele>
        <time>2013-04-21T13:49:00.000Z</time>
      </trkpt>
      <trkpt lat="45.89948" lon="6.13238">
        <ele>472.20001220703</ele>
        <time>2013-04-21T13:49:01.000Z</time>
      </trkpt>
      <trkpt lat="45.89951" lon="6.13237">
        <ele>472.20001220703</ele>
        <time>2013-04-21T13:49:02.000Z</time>
      </trkpt>
      <trkpt lat="45.89953" lon="6.13235">
        <ele>471.79998779297</ele>
        <time>2013-04-21T13:49:03.000Z</time>
      </trkpt>
      <trkpt lat="45.89956" lon="6.13234">
        <ele>471.20001220703</ele>
        <time>2013-04-21T13:49:04.000Z</time>
      </trkpt>
      <trkpt lat="45.89958" lon="6.13233">
        <ele>470.79998779297</ele>
        <time>2013-04-21T13:49:05.000Z</time>
      </trkpt>
      <trkpt lat="45.89961" lon="6.13231">
        <ele>471.20001220703</ele>
        <time>2013-04-21T13:49:06.000Z</time>
      </trkpt>
      <trkpt lat="45.89963" lon="6.13229">
        <ele>471.39999389648</ele>
        <time>2013-04-21T13:49:07.000Z</time>
      </trkpt>
      <trkpt lat="45.89965" lon="6.13227">
        <ele>471.79998779297</ele>
        <time>2013-04-21T13:49:08.000Z</time>
      </trkpt>
      <trkpt lat="45.89968" lon="6.13224">
        <ele>471.60000610352</ele>
        <time>2013-04-21T13:49:09.000Z</time>
      </trkpt>
      <trkpt lat="45.89971" lon="6.13222">
        <ele>471.20001220703</ele>
        <time>2013-04-21T13:49:10.000Z</time>
      </trkpt>
      <trkpt lat="45.89974" lon="6.13218">
        <ele>471</ele>
        <time>2013-04-21T13:49:11.000Z</time>
      </trkpt>
      <trkpt lat="45.89976" lon="6.13216">
        <ele>470.60000610352</ele>
        <time>2013-04-21T13:49:12.000Z</time>
      </trkpt>
      <trkpt lat="45.89979" lon="6.13212">
        <ele>470.79998779297</ele>
        <time>2013-04-21T13:49:13.000Z</time>
      </trkpt>
      <trkpt lat="45.89982" lon="6.13208">
        <ele>471.20001220703</ele>
        <time>2013-04-21T13:49:14.000Z</time>
      </trkpt>
      <trkpt lat="45.89984" lon="6.13204">
        <ele>471.39999389648</ele>
        <time>2013-04-21T13:49:15.000Z</time>
      </trkpt>
      <trkpt lat="45.89986" lon="6.132">
        <ele>471.20001220703</ele>
        <time>2013-04-21T13:49:16.000Z</time>
      </trkpt>
      <trkpt lat="45.8999" lon="6.13196">
        <ele>471.20001220703</ele>
        <time>2013-04-21T13:49:17.000Z</time>
      </trkpt>
      <trkpt lat="45.89993" lon="6.13191">
        <ele>471</ele>
        <time>2013-04-21T13:49:18.000Z</time>
      </trkpt>
      <trkpt lat="45.89994" lon="6.13185">
        <ele>470.79998779297</ele>
        <time>2013-04-21T13:49:19.000Z</time>
      </trkpt>
      <trkpt lat="45.89997" lon="6.13181">
        <ele>470.79998779297</ele>
        <time>2013-04-21T13:49:20.000Z</time>
      </trkpt>
      <trkpt lat="45.89997" lon="6.13176">
        <ele>470.60000610352</ele>
        <time>2013-04-21T13:49:21.000Z</time>
      </trkpt>
      <trkpt lat="45.89999" lon="6.13171">
        <ele>471</ele>
        <time>2013-04-21T13:49:22.000Z</time>
      </trkpt>
      <trkpt lat="45.9" lon="6.13166">
        <ele>471.39999389648</ele>
        <time>2013-04-21T13:49:23.000Z</time>
      </trkpt>
      <trkpt lat="45.90001" lon="6.13161">
        <ele>471.20001220703</ele>
        <time>2013-04-21T13:49:24.000Z</time>
      </trkpt>
      <trkpt lat="45.90002" lon="6.13156">
        <ele>471</ele>
        <time>2013-04-21T13:49:25.000Z</time>
      </trkpt>
      <trkpt lat="45.90002" lon="6.1315">
        <ele>470.79998779297</ele>
        <time>2013-04-21T13:49:26.000Z</time>
      </trkpt>
      <trkpt lat="45.90002" lon="6.13145">
        <ele>470.60000610352</ele>
        <time>2013-04-21T13:49:27.000Z</time>
      </trkpt>
      <trkpt lat="45.90001" lon="6.1314">
        <ele>470.60000610352</ele>
        <time>2013-04-21T13:49:28.000Z</time>
      </trkpt>
      <trkpt lat="45.90002" lon="6.13134">
        <ele>470.79998779297</ele>
        <time>2013-04-21T13:49:29.000Z</time>
      </trkpt>
      <trkpt lat="45.90002" lon="6.13129">
        <ele>471.20001220703</ele>
        <time>2013-04-21T13:49:30.000Z</time>
      </trkpt>
      <trkpt lat="45.90002" lon="6.13124">
        <ele>471.60000610352</ele>
        <time>2013-04-21T13:49:31.000Z</time>
      </trkpt>
      <trkpt lat="45.90003" lon="6.1312">
        <ele>471.60000610352</ele>
        <time>2013-04-21T13:49:32.000Z</time>
      </trkpt>
      <trkpt lat="45.90003" lon="6.13115">
        <ele>471.20001220703</ele>
        <time>2013-04-21T13:49:33.000Z</time>
      </trkpt>
      <trkpt lat="45.90003" lon="6.13111">
        <ele>471.20001220703</ele>
        <time>2013-04-21T13:49:34.000Z</time>
      </trkpt>
      <trkpt lat="45.90004" lon="6.13107">
        <ele>471</ele>
        <time>2013-04-21T13:49:35.000Z</time>
      </trkpt>
      <trkpt lat="45.90004" lon="6.13102">
        <ele>470.79998779297</ele>
        <time>2013-04-21T13:49:36.000Z</time>
      </trkpt>
      <trkpt lat="45.90004" lon="6.13096">
        <ele>470.60000610352</ele>
        <time>2013-04-21T13:49:37.000Z</time>
      </trkpt>
      <trkpt lat="45.90005" lon="6.13092">
        <ele>470.79998779297</ele>
        <time>2013-04-21T13:49:38.000Z</time>
      </trkpt>
      <trkpt lat="45.90005" lon="6.13087">
        <ele>471.20001220703</ele>
        <time>2013-04-21T13:49:39.000Z</time>
      </trkpt>
      <trkpt lat="45.90006" lon="6.13081">
        <ele>471.60000610352</ele>
        <time>2013-04-21T13:49:40.000Z</time>
      </trkpt>
      <trkpt lat="45.90007" lon="6.13078">
        <ele>471.20001220703</ele>
        <time>2013-04-21T13:49:41.000Z</time>
      </trkpt>
      <trkpt lat="45.90008" lon="6.13072">
        <ele>471</ele>
        <time>2013-04-21T13:49:42.000Z</time>
      </trkpt>
      <trkpt lat="45.90008" lon="6.13067">
        <ele>471.20001220703</ele>
        <time>2013-04-21T13:49:43.000Z</time>
      </trkpt>
      <trkpt lat="45.9001" lon="6.1306">
        <ele>471.39999389648</ele>
        <time>2013-04-21T13:49:44.000Z</time>
      </trkpt>
      <trkpt lat="45.9001" lon="6.13055">
        <ele>471.79998779297</ele>
        <time>2013-04-21T13:49:45.000Z</time>
      </trkpt>
      <trkpt lat="45.9001" lon="6.13049">
        <ele>471.60000610352</ele>
        <time>2013-04-21T13:49:46.000Z</time>
      </trkpt>
      <trkpt lat="45.90011" lon="6.13044">
        <ele>471.39999389648</ele>
        <time>2013-04-21T13:49:47.000Z</time>
      </trkpt>
      <trkpt lat="45.90012" lon="6.13039">
        <ele>471</ele>
        <time>2013-04-21T13:49:48.000Z</time>
      </trkpt>
      <trkpt lat="45.90012" lon="6.13034">
        <ele>470.60000610352</ele>
        <time>2013-04-21T13:49:49.000Z</time>
      </trkpt>
      <trkpt lat="45.90012" lon="6.13029">
        <ele>470.39999389648</ele>
        <time>2013-04-21T13:49:50.000Z</time>
      </trkpt>
      <trkpt lat="45.90013" lon="6.13023">
        <ele>470.20001220703</ele>
        <time>2013-04-21T13:49:51.000Z</time>
      </trkpt>
      <trkpt lat="45.90013" lon="6.12994">
        <ele>470.20001220703</ele>
        <time>2013-04-21T13:49:56.000Z</time>
      </trkpt>
      <trkpt lat="45.90013" lon="6.12986">
        <ele>470.39999389648</ele>
        <time>2013-04-21T13:49:58.000Z</time>
      </trkpt>
      <trkpt lat="45.90012" lon="6.12981">
        <ele>470.79998779297</ele>
        <time>2013-04-21T13:49:59.000Z</time>
      </trkpt>
      <trkpt lat="45.90012" lon="6.12975">
        <ele>471.20001220703</ele>
        <time>2013-04-21T13:50:00.000Z</time>
      </trkpt>
      <trkpt lat="45.90013" lon="6.1297">
        <ele>471.39999389648</ele>
        <time>2013-04-21T13:50:01.000Z</time>
      </trkpt>
      <trkpt lat="45.90014" lon="6.12965">
        <ele>471.20001220703</ele>
        <time>2013-04-21T13:50:02.000Z</time>
      </trkpt>
      <trkpt lat="45.90015" lon="6.12959">
        <ele>471</ele>
        <time>2013-04-21T13:50:03.000Z</time>
      </trkpt>
      <trkpt lat="45.90014" lon="6.12953">
        <ele>470.60000610352</ele>
        <time>2013-04-21T13:50:04.000Z</time>
      </trkpt>
      <trkpt lat="45.90013" lon="6.12948">
        <ele>470.39999389648</ele>
        <time>2013-04-21T13:50:05.000Z</time>
      </trkpt>
      <trkpt lat="45.90013" lon="6.12943">
        <ele>470.20001220703</ele>
        <time>2013-04-21T13:50:06.000Z</time>
      </trkpt>
      <trkpt lat="45.9001" lon="6.12924">
        <ele>470.20001220703</ele>
        <time>2013-04-21T13:50:09.000Z</time>
      </trkpt>
      <trkpt lat="45.90009" lon="6.12894">
        <ele>470.20001220703</ele>
        <time>2013-04-21T13:50:14.000Z</time>
      </trkpt>
      <trkpt lat="45.9001" lon="6.12883">
        <ele>470.39999389648</ele>
        <time>2013-04-21T13:50:16.000Z</time>
      </trkpt>
      <trkpt lat="45.9001" lon="6.12877">
        <ele>470.79998779297</ele>
        <time>2013-04-21T13:50:17.000Z</time>
      </trkpt>
      <trkpt lat="45.90011" lon="6.12871">
        <ele>471.20001220703</ele>
        <time>2013-04-21T13:50:18.000Z</time>
      </trkpt>
      <trkpt lat="45.90011" lon="6.12866">
        <ele>471.60000610352</ele>
        <time>2013-04-21T13:50:19.000Z</time>
      </trkpt>
      <trkpt lat="45.90011" lon="6.1286">
        <ele>472</ele>
        <time>2013-04-21T13:50:20.000Z</time>
      </trkpt>
      <trkpt lat="45.90011" lon="6.12855">
        <ele>472.39999389648</ele>
        <time>2013-04-21T13:50:21.000Z</time>
      </trkpt>
      <trkpt lat="45.90013" lon="6.12836">
        <ele>472</ele>
        <time>2013-04-21T13:50:25.000Z</time>
      </trkpt>
      <trkpt lat="45.90015" lon="6.12832">
        <ele>471.79998779297</ele>
        <time>2013-04-21T13:50:26.000Z</time>
      </trkpt>
      <trkpt lat="45.90017" lon="6.12827">
        <ele>471.39999389648</ele>
        <time>2013-04-21T13:50:27.000Z</time>
      </trkpt>
      <trkpt lat="45.90017" lon="6.12824">
        <ele>471.39999389648</ele>
        <time>2013-04-21T13:50:28.000Z</time>
      </trkpt>
      <trkpt lat="45.90019" lon="6.1282">
        <ele>471.60000610352</ele>
        <time>2013-04-21T13:50:29.000Z</time>
      </trkpt>
      <trkpt lat="45.90021" lon="6.12815">
        <ele>471.79998779297</ele>
        <time>2013-04-21T13:50:30.000Z</time>
      </trkpt>
      <trkpt lat="45.90024" lon="6.12812">
        <ele>472</ele>
        <time>2013-04-21T13:50:31.000Z</time>
      </trkpt>
      <trkpt lat="45.90027" lon="6.12809">
        <ele>472</ele>
        <time>2013-04-21T13:50:32.000Z</time>
      </trkpt>
      <trkpt lat="45.9003" lon="6.12806">
        <ele>472.20001220703</ele>
        <time>2013-04-21T13:50:33.000Z</time>
      </trkpt>
      <trkpt lat="45.90031" lon="6.12804">
        <ele>472.39999389648</ele>
        <time>2013-04-21T13:50:34.000Z</time>
      </trkpt>
      <trkpt lat="45.90037" lon="6.12798">
        <ele>472.39999389648</ele>
        <time>2013-04-21T13:50:37.000Z</time>
      </trkpt>
      <trkpt lat="45.90039" lon="6.12797">
        <ele>472.20001220703</ele>
        <time>2013-04-21T13:50:38.000Z</time>
      </trkpt>
      <trkpt lat="45.9004" lon="6.12795">
        <ele>471.79998779297</ele>
        <time>2013-04-21T13:50:39.000Z</time>
      </trkpt>
      <trkpt lat="45.90041" lon="6.12793">
        <ele>471.39999389648</ele>
        <time>2013-04-21T13:50:40.000Z</time>
      </trkpt>
      <trkpt lat="45.90043" lon="6.12791">
        <ele>471.20001220703</ele>
        <time>2013-04-21T13:50:41.000Z</time>
      </trkpt>
      <trkpt lat="45.90045" lon="6.12788">
        <ele>470.79998779297</ele>
        <time>2013-04-21T13:50:42.000Z</time>
      </trkpt>
      <trkpt lat="45.90048" lon="6.12787">
        <ele>470.39999389648</ele>
        <time>2013-04-21T13:50:43.000Z</time>
      </trkpt>
      <trkpt lat="45.90051" lon="6.12785">
        <ele>470.79998779297</ele>
        <time>2013-04-21T13:50:44.000Z</time>
      </trkpt>
      <trkpt lat="45.90054" lon="6.12783">
        <ele>471.20001220703</ele>
        <time>2013-04-21T13:50:45.000Z</time>
      </trkpt>
      <trkpt lat="45.90059" lon="6.12781">
        <ele>471.60000610352</ele>
        <time>2013-04-21T13:50:46.000Z</time>
      </trkpt>
      <trkpt lat="45.90062" lon="6.12778">
        <ele>471.79998779297</ele>
        <time>2013-04-21T13:50:47.000Z</time>
      </trkpt>
      <trkpt lat="45.90066" lon="6.12775">
        <ele>471.60000610352</ele>
        <time>2013-04-21T13:50:48.000Z</time>
      </trkpt>
      <trkpt lat="45.9007" lon="6.12772">
        <ele>471.39999389648</ele>
        <time>2013-04-21T13:50:49.000Z</time>
      </trkpt>
      <trkpt lat="45.90074" lon="6.12771">
        <ele>471.20001220703</ele>
        <time>2013-04-21T13:50:50.000Z</time>
      </trkpt>
      <trkpt lat="45.90078" lon="6.12769">
        <ele>471.39999389648</ele>
        <time>2013-04-21T13:50:51.000Z</time>
      </trkpt>
      <trkpt lat="45.90082" lon="6.12766">
        <ele>471.60000610352</ele>
        <time>2013-04-21T13:50:52.000Z</time>
      </trkpt>
      <trkpt lat="45.90085" lon="6.12764">
        <ele>472</ele>
        <time>2013-04-21T13:50:53.000Z</time>
      </trkpt>
      <trkpt lat="45.90089" lon="6.12763">
        <ele>471.60000610352</ele>
        <time>2013-04-21T13:50:54.000Z</time>
      </trkpt>
      <trkpt lat="45.90093" lon="6.12766">
        <ele>471.39999389648</ele>
        <time>2013-04-21T13:50:55.000Z</time>
      </trkpt>
      <trkpt lat="45.90096" lon="6.1277">
        <ele>471.60000610352</ele>
        <time>2013-04-21T13:50:56.000Z</time>
      </trkpt>
      <trkpt lat="45.90099" lon="6.12775">
        <ele>471.79998779297</ele>
        <time>2013-04-21T13:50:57.000Z</time>
      </trkpt>
      <trkpt lat="45.90102" lon="6.12781">
        <ele>472.20001220703</ele>
        <time>2013-04-21T13:50:58.000Z</time>
      </trkpt>
      <trkpt lat="45.90104" lon="6.12786">
        <ele>471.79998779297</ele>
        <time>2013-04-21T13:50:59.000Z</time>
      </trkpt>
      <trkpt lat="45.90107" lon="6.12791">
        <ele>471.60000610352</ele>
        <time>2013-04-21T13:51:00.000Z</time>
      </trkpt>
      <trkpt lat="45.9011" lon="6.12796">
        <ele>471.39999389648</ele>
        <time>2013-04-21T13:51:01.000Z</time>
      </trkpt>
      <trkpt lat="45.90113" lon="6.12802">
        <ele>471.20001220703</ele>
        <time>2013-04-21T13:51:02.000Z</time>
      </trkpt>
      <trkpt lat="45.90116" lon="6.12807">
        <ele>471.20001220703</ele>
        <time>2013-04-21T13:51:03.000Z</time>
      </trkpt>
      <trkpt lat="45.90118" lon="6.12812">
        <ele>471.39999389648</ele>
        <time>2013-04-21T13:51:04.000Z</time>
      </trkpt>
      <trkpt lat="45.90119" lon="6.12815">
        <ele>471.79998779297</ele>
        <time>2013-04-21T13:51:05.000Z</time>
      </trkpt>
      <trkpt lat="45.90121" lon="6.12823">
        <ele>471.79998779297</ele>
        <time>2013-04-21T13:51:06.000Z</time>
      </trkpt>
      <trkpt lat="45.90124" lon="6.12829">
        <ele>471.60000610352</ele>
        <time>2013-04-21T13:51:07.000Z</time>
      </trkpt>
      <trkpt lat="45.90125" lon="6.12835">
        <ele>471.39999389648</ele>
        <time>2013-04-21T13:51:08.000Z</time>
      </trkpt>
      <trkpt lat="45.90128" lon="6.12841">
        <ele>471.20001220703</ele>
        <time>2013-04-21T13:51:09.000Z</time>
      </trkpt>
      <trkpt lat="45.9013" lon="6.12846">
        <ele>470.79998779297</ele>
        <time>2013-04-21T13:51:10.000Z</time>
      </trkpt>
      <trkpt lat="45.90132" lon="6.12851">
        <ele>470.60000610352</ele>
        <time>2013-04-21T13:51:11.000Z</time>
      </trkpt>
      <trkpt lat="45.90133" lon="6.12857">
        <ele>470.60000610352</ele>
        <time>2013-04-21T13:51:12.000Z</time>
      </trkpt>
      <trkpt lat="45.90134" lon="6.12861">
        <ele>470.60000610352</ele>
        <time>2013-04-21T13:51:13.000Z</time>
      </trkpt>
      <trkpt lat="45.90139" lon="6.12881">
        <ele>470.60000610352</ele>
        <time>2013-04-21T13:51:17.000Z</time>
      </trkpt>
      <trkpt lat="45.90141" lon="6.12886">
        <ele>470.60000610352</ele>
        <time>2013-04-21T13:51:18.000Z</time>
      </trkpt>
      <trkpt lat="45.90147" lon="6.12911">
        <ele>470.60000610352</ele>
        <time>2013-04-21T13:51:23.000Z</time>
      </trkpt>
      <trkpt lat="45.90147" lon="6.12916">
        <ele>470.60000610352</ele>
        <time>2013-04-21T13:51:24.000Z</time>
      </trkpt>
      <trkpt lat="45.90145" lon="6.12921">
        <ele>470.60000610352</ele>
        <time>2013-04-21T13:51:25.000Z</time>
      </trkpt>
      <trkpt lat="45.9014" lon="6.12928">
        <ele>470.60000610352</ele>
        <time>2013-04-21T13:51:27.000Z</time>
      </trkpt>
      <trkpt lat="45.90129" lon="6.12949">
        <ele>470.60000610352</ele>
        <time>2013-04-21T13:51:32.000Z</time>
      </trkpt>
      <trkpt lat="45.90126" lon="6.12958">
        <ele>470.60000610352</ele>
        <time>2013-04-21T13:51:34.000Z</time>
      </trkpt>
      <trkpt lat="45.90119" lon="6.12983">
        <ele>470.60000610352</ele>
        <time>2013-04-21T13:51:39.000Z</time>
      </trkpt>
      <trkpt lat="45.90111" lon="6.13007">
        <ele>470.60000610352</ele>
        <time>2013-04-21T13:51:44.000Z</time>
      </trkpt>
      <trkpt lat="45.90109" lon="6.13011">
        <ele>470.60000610352</ele>
        <time>2013-04-21T13:51:45.000Z</time>
      </trkpt>
      <trkpt lat="45.90102" lon="6.13037">
        <ele>470.60000610352</ele>
        <time>2013-04-21T13:51:50.000Z</time>
      </trkpt>
      <trkpt lat="45.90101" lon="6.13041">
        <ele>470.60000610352</ele>
        <time>2013-04-21T13:51:51.000Z</time>
      </trkpt>
      <trkpt lat="45.90095" lon="6.13065">
        <ele>470.60000610352</ele>
        <time>2013-04-21T13:51:56.000Z</time>
      </trkpt>
      <trkpt lat="45.90094" lon="6.13071">
        <ele>470.60000610352</ele>
        <time>2013-04-21T13:51:57.000Z</time>
      </trkpt>
      <trkpt lat="45.90088" lon="6.13089">
        <ele>470.60000610352</ele>
        <time>2013-04-21T13:52:01.000Z</time>
      </trkpt>
      <trkpt lat="45.90087" lon="6.13095">
        <ele>470.60000610352</ele>
        <time>2013-04-21T13:52:02.000Z</time>
      </trkpt>
      <trkpt lat="45.90076" lon="6.13118">
        <ele>470.60000610352</ele>
        <time>2013-04-21T13:52:07.000Z</time>
      </trkpt>
      <trkpt lat="45.90072" lon="6.13137">
        <ele>470.60000610352</ele>
        <time>2013-04-21T13:52:12.000Z</time>
      </trkpt>
      <trkpt lat="45.90086" lon="6.13136">
        <ele>470.60000610352</ele>
        <time>2013-04-21T13:52:15.000Z</time>
      </trkpt>
      <trkpt lat="45.90104" lon="6.13134">
        <ele>470.60000610352</ele>
        <time>2013-04-21T13:52:19.000Z</time>
      </trkpt>
      <trkpt lat="45.90118" lon="6.13134">
        <ele>470.60000610352</ele>
        <time>2013-04-21T13:52:22.000Z</time>
      </trkpt>
      <trkpt lat="45.90136" lon="6.13134">
        <ele>470.60000610352</ele>
        <time>2013-04-21T13:52:26.000Z</time>
      </trkpt>
      <trkpt lat="45.90145" lon="6.13133">
        <ele>470.60000610352</ele>
        <time>2013-04-21T13:52:28.000Z</time>
      </trkpt>
      <trkpt lat="45.9015" lon="6.13133">
        <ele>470.60000610352</ele>
        <time>2013-04-21T13:52:29.000Z</time>
      </trkpt>
    </trkseg>
  </trk>
</gpx>